Time,TemperatureF,DewpointF,PressureIn,WindDirection,WindDirectionDegrees,WindSpeedMPH,WindSpeedGustMPH,Humidity,HourlyPrecipIn,Conditions,Clouds,dailyrainin,SoftwareType,DateUTC
2013-04-02 00:00:00,34.4,18.2,29.70,NNW,329,7.0,17.0,51,0.00,,SKC,0.58,VWS V13.01,2013-04-02 04:00:00,
2013-04-02 00:01:00,34.4,18.2,29.70,West,278,2.0,4.0,51,0.00,,SKC,0.00,VWS V13.01,2013-04-02 04:01:00,
2013-04-02 00:02:00,34.4,18.6,29.70,West,277,2.0,4.0,52,0.00,,SKC,0.00,VWS V13.01,2013-04-02 04:02:00,
2013-04-02 00:03:00,34.4,18.6,29.71,NW,320,6.0,6.0,52,0.00,,SKC,0.00,VWS V13.01,2013-04-02 04:03:00,
2013-04-02 00:04:00,34.4,18.2,29.70,NNW,340,9.0,10.0,51,0.00,,SKC,0.00,VWS V13.01,2013-04-02 04:04:00,
2013-04-02 00:06:00,34.4,18.6,29.71,NNW,332,4.0,11.0,52,0.00,,SKC,0.00,VWS V13.01,2013-04-02 04:06:00,
2013-04-02 00:07:00,34.3,18.5,29.71,NW,316,5.0,11.0,52,0.00,,SKC,0.00,VWS V13.01,2013-04-02 04:07:00,
2013-04-02 00:08:00,34.2,18.4,29.71,WNW,303,3.0,11.0,52,0.00,,SKC,0.00,VWS V13.01,2013-04-02 04:08:00,
2013-04-02 00:09:00,34.2,18.4,29.71,NW,317,5.0,11.0,52,0.00,,SKC,0.00,VWS V13.01,2013-04-02 04:09:00,
2013-04-02 00:10:00,34.1,18.3,29.71,NW,326,3.0,11.0,52,0.00,,SKC,0.00,VWS V13.01,2013-04-02 04:10:00,
2013-04-02 00:11:00,34.1,18.3,29.71,NNW,341,3.0,11.0,52,0.00,,SKC,0.00,VWS V13.01,2013-04-02 04:11:00,
2013-04-02 00:12:00,34.1,17.9,29.71,WNW,282,4.0,13.0,51,0.00,,SKC,0.00,VWS V13.01,2013-04-02 04:12:00,
2013-04-02 00:13:00,34.0,17.8,29.71,West,277,3.0,13.0,51,0.00,,SKC,0.00,VWS V13.01,2013-04-02 04:13:00,
2013-04-02 00:14:00,34.0,17.8,29.71,NNE,31,4.0,13.0,51,0.00,,SKC,0.00,VWS V13.01,2013-04-02 04:14:00,
2013-04-02 00:15:00,34.0,18.2,29.71,North,360,3.0,13.0,52,0.00,,SKC,0.00,VWS V13.01,2013-04-02 04:15:00,
2013-04-02 00:16:00,33.9,18.6,29.71,NNW,345,2.0,13.0,53,0.00,,SKC,0.00,VWS V13.01,2013-04-02 04:16:00,
2013-04-02 00:17:00,33.9,18.1,29.71,NNW,346,9.0,13.0,52,0.00,,SKC,0.00,VWS V13.01,2013-04-02 04:17:00,
2013-04-02 00:18:00,33.9,18.1,29.71,WNW,292,2.0,13.0,52,0.00,,SKC,0.00,VWS V13.01,2013-04-02 04:18:00,
2013-04-02 00:19:00,33.9,18.1,29.71,WNW,302,6.0,13.0,52,0.00,,SKC,0.00,VWS V13.01,2013-04-02 04:19:00,
2013-04-02 00:20:00,33.8,18.0,29.72,NW,305,4.0,13.0,52,0.00,,SKC,0.00,VWS V13.01,2013-04-02 04:20:00,
2013-04-02 00:21:00,33.8,18.0,29.71,NW,304,3.0,13.0,52,0.00,,SKC,0.00,VWS V13.01,2013-04-02 04:21:00,
2013-04-02 00:22:00,33.8,18.0,29.71,NNW,347,6.0,13.0,52,0.00,,SKC,0.00,VWS V13.01,2013-04-02 04:22:00,
2013-04-02 00:23:00,33.7,17.5,29.71,West,273,5.0,13.0,51,0.00,,SKC,0.00,VWS V13.01,2013-04-02 04:23:00,
2013-04-02 00:24:00,33.7,17.5,29.72,West,259,6.0,13.0,51,0.00,,SKC,0.00,VWS V13.01,2013-04-02 04:24:00,
2013-04-02 00:25:00,33.7,17.5,29.72,NNW,338,1.0,13.0,51,0.00,,SKC,0.00,VWS V13.01,2013-04-02 04:25:00,
2013-04-02 00:26:00,33.7,18.0,29.72,WNW,286,5.0,13.0,52,0.00,,SKC,0.00,VWS V13.01,2013-04-02 04:26:00,
2013-04-02 00:27:00,33.7,18.0,29.72,WNW,287,2.0,13.0,52,0.00,,SKC,0.00,VWS V13.01,2013-04-02 04:27:00,
2013-04-02 00:28:00,33.7,17.5,29.72,NW,319,3.0,13.0,51,0.00,,SKC,0.00,VWS V13.01,2013-04-02 04:28:00,
2013-04-02 00:29:00,33.6,17.9,29.72,NW,321,13.0,13.0,52,0.00,,SKC,0.00,VWS V13.01,2013-04-02 04:29:00,
2013-04-02 00:30:00,33.6,17.4,29.72,WNW,298,4.0,15.0,51,0.00,,SKC,0.00,VWS V13.01,2013-04-02 04:30:00,
2013-04-02 00:31:00,33.6,17.4,29.72,West,275,4.0,4.0,51,0.00,,SKC,0.00,VWS V13.01,2013-04-02 04:31:00,
2013-04-02 00:32:00,33.6,17.4,29.72,North,355,7.0,8.0,51,0.00,,SKC,0.00,VWS V13.01,2013-04-02 04:32:00,
2013-04-02 00:33:00,33.6,17.4,29.72,NW,310,9.0,10.0,51,0.00,,SKC,0.00,VWS V13.01,2013-04-02 04:33:00,
2013-04-02 00:34:00,33.6,17.0,29.72,NW,326,14.0,14.0,50,0.00,,SKC,0.00,VWS V13.01,2013-04-02 04:34:00,
2013-04-02 00:36:00,33.6,17.4,29.72,West,266,4.0,14.0,51,0.00,,SKC,0.00,VWS V13.01,2013-04-02 04:36:00,
2013-04-02 00:37:00,33.6,17.4,29.72,WNW,302,3.0,14.0,51,0.00,,SKC,0.00,VWS V13.01,2013-04-02 04:37:00,
2013-04-02 00:38:00,33.6,17.4,29.72,WNW,283,4.0,14.0,51,0.00,,SKC,0.00,VWS V13.01,2013-04-02 04:38:00,
2013-04-02 00:39:00,33.5,17.3,29.72,NW,318,6.0,14.0,51,0.00,,SKC,0.00,VWS V13.01,2013-04-02 04:39:00,
2013-04-02 00:41:00,33.5,17.3,29.72,WSW,239,7.0,14.0,51,0.00,,SKC,0.00,VWS V13.01,2013-04-02 04:41:00,
2013-04-02 00:42:00,33.5,17.3,29.72,WSW,253,2.0,14.0,51,0.00,,SKC,0.00,VWS V13.01,2013-04-02 04:42:00,
2013-04-02 00:43:00,33.5,17.3,29.72,North,5,7.0,14.0,51,0.00,,SKC,0.00,VWS V13.01,2013-04-02 04:43:00,
2013-04-02 00:44:00,33.4,16.8,29.73,NW,325,6.0,14.0,50,0.00,,SKC,0.00,VWS V13.01,2013-04-02 04:44:00,
2013-04-02 00:45:00,33.4,16.8,29.73,WNW,300,5.0,14.0,50,0.00,,SKC,0.00,VWS V13.01,2013-04-02 04:45:00,
2013-04-02 00:46:00,33.4,16.8,29.72,NNW,338,6.0,14.0,50,0.00,,SKC,0.00,VWS V13.01,2013-04-02 04:46:00,
2013-04-02 00:47:00,33.4,16.8,29.72,NNW,340,3.0,14.0,50,0.00,,SKC,0.00,VWS V13.01,2013-04-02 04:47:00,
2013-04-02 00:48:00,33.4,16.8,29.73,NNW,344,13.0,14.0,50,0.00,,SKC,0.00,VWS V13.01,2013-04-02 04:48:00,
2013-04-02 00:49:00,33.4,16.3,29.73,West,278,3.0,14.0,49,0.00,,SKC,0.00,VWS V13.01,2013-04-02 04:49:00,
2013-04-02 00:51:00,33.4,16.8,29.73,North,5,5.0,14.0,50,0.00,,SKC,0.00,VWS V13.01,2013-04-02 04:51:00,
2013-04-02 00:52:00,33.4,16.3,29.73,North,360,6.0,14.0,49,0.00,,SKC,0.00,VWS V13.01,2013-04-02 04:52:00,
2013-04-02 00:53:00,33.4,16.3,29.73,WNW,286,3.0,14.0,49,0.00,,SKC,0.00,VWS V13.01,2013-04-02 04:53:00,
2013-04-02 00:54:00,33.3,16.2,29.73,West,259,4.0,14.0,49,0.00,,SKC,0.00,VWS V13.01,2013-04-02 04:54:00,
2013-04-02 00:56:00,33.3,16.7,29.73,NNW,338,5.0,14.0,50,0.00,,SKC,0.00,VWS V13.01,2013-04-02 04:56:00,
2013-04-02 00:57:00,33.2,16.6,29.73,West,275,3.0,16.0,50,0.00,,SKC,0.00,VWS V13.01,2013-04-02 04:57:00,
2013-04-02 00:58:00,33.2,17.0,29.73,SW,226,3.0,16.0,51,0.00,,SKC,0.00,VWS V13.01,2013-04-02 04:58:00,
2013-04-02 00:59:00,33.2,17.0,29.73,NNW,348,5.0,16.0,51,0.00,,SKC,0.00,VWS V13.01,2013-04-02 04:59:00,
2013-04-02 01:00:00,33.1,17.0,29.73,West,279,3.0,16.0,51,0.00,,SKC,0.00,VWS V13.01,2013-04-02 05:00:00,
2013-04-02 01:01:00,33.1,16.5,29.73,WNW,298,3.0,5.0,50,0.00,,SKC,0.00,VWS V13.01,2013-04-02 05:01:00,
2013-04-02 01:02:00,33.1,17.0,29.73,NW,323,3.0,7.0,51,0.00,,SKC,0.00,VWS V13.01,2013-04-02 05:02:00,
2013-04-02 01:03:00,33.1,17.0,29.73,NNW,337,4.0,7.0,51,0.00,,SKC,0.00,VWS V13.01,2013-04-02 05:03:00,
2013-04-02 01:04:00,33.0,16.9,29.74,North,350,1.0,7.0,51,0.00,,SKC,0.00,VWS V13.01,2013-04-02 05:04:00,
2013-04-02 01:05:00,33.0,17.3,29.73,WSW,241,2.0,7.0,52,0.00,,SKC,0.00,VWS V13.01,2013-04-02 05:05:00,
2013-04-02 01:06:00,32.9,17.2,29.74,WNW,282,13.0,13.0,52,0.00,,SKC,0.00,VWS V13.01,2013-04-02 05:06:00,
2013-04-02 01:07:00,32.9,17.2,29.74,NNW,331,5.0,13.0,52,0.00,,SKC,0.00,VWS V13.01,2013-04-02 05:07:00,
2013-04-02 01:08:00,32.9,16.8,29.74,NNW,327,3.0,13.0,51,0.00,,SKC,0.00,VWS V13.01,2013-04-02 05:08:00,
2013-04-02 01:09:00,32.9,16.3,29.74,NNW,334,10.0,13.0,50,0.00,,SKC,0.00,VWS V13.01,2013-04-02 05:09:00,
2013-04-02 01:10:00,32.9,16.3,29.74,WNW,300,4.0,13.0,50,0.00,,SKC,0.00,VWS V13.01,2013-04-02 05:10:00,
2013-04-02 01:11:00,32.9,16.3,29.74,NW,317,2.0,13.0,50,0.00,,SKC,0.00,VWS V13.01,2013-04-02 05:11:00,
2013-04-02 01:12:00,32.9,16.3,29.74,NW,320,2.0,13.0,50,0.00,,SKC,0.00,VWS V13.01,2013-04-02 05:12:00,
2013-04-02 01:13:00,32.9,16.3,29.74,NW,316,3.0,13.0,50,0.00,,SKC,0.00,VWS V13.01,2013-04-02 05:13:00,
2013-04-02 01:14:00,32.9,16.8,29.74,NNW,329,3.0,13.0,51,0.00,,SKC,0.00,VWS V13.01,2013-04-02 05:14:00,
2013-04-02 01:15:00,32.9,16.8,29.74,NNW,327,1.0,13.0,51,0.00,,SKC,0.00,VWS V13.01,2013-04-02 05:15:00,
2013-04-02 01:16:00,32.9,16.3,29.74,NNW,336,2.0,13.0,50,0.00,,SKC,0.00,VWS V13.01,2013-04-02 05:16:00,
2013-04-02 01:17:00,32.8,16.7,29.74,NNW,336,1.0,13.0,51,0.00,,SKC,0.00,VWS V13.01,2013-04-02 05:17:00,
2013-04-02 01:18:00,32.8,16.7,29.74,NW,305,6.0,13.0,51,0.00,,SKC,0.00,VWS V13.01,2013-04-02 05:18:00,
2013-04-02 01:19:00,32.8,16.7,29.74,NNW,329,3.0,13.0,51,0.00,,SKC,0.00,VWS V13.01,2013-04-02 05:19:00,
2013-04-02 01:20:00,32.8,16.7,29.74,NNW,337,10.0,13.0,51,0.00,,SKC,0.00,VWS V13.01,2013-04-02 05:20:00,
2013-04-02 01:21:00,32.8,15.8,29.74,NNW,329,6.0,13.0,49,0.00,,SKC,0.00,VWS V13.01,2013-04-02 05:21:00,
2013-04-02 01:22:00,32.8,15.8,29.74,NW,321,3.0,13.0,49,0.00,,SKC,0.00,VWS V13.01,2013-04-02 05:22:00,
2013-04-02 01:23:00,32.8,15.8,29.74,NW,313,1.0,13.0,49,0.00,,SKC,0.00,VWS V13.01,2013-04-02 05:23:00,
2013-04-02 01:24:00,32.8,16.2,29.74,West,271,2.0,13.0,50,0.00,,SKC,0.00,VWS V13.01,2013-04-02 05:24:00,
2013-04-02 01:26:00,32.8,15.8,29.74,NNE,30,9.0,13.0,49,0.00,,SKC,0.00,VWS V13.01,2013-04-02 05:26:00,
2013-04-02 01:27:00,32.8,15.8,29.74,North,355,6.0,13.0,49,0.00,,SKC,0.00,VWS V13.01,2013-04-02 05:27:00,
2013-04-02 01:28:00,32.8,15.8,29.74,North,350,4.0,13.0,49,0.00,,SKC,0.00,VWS V13.01,2013-04-02 05:28:00,
2013-04-02 01:29:00,32.8,15.8,29.74,WNW,298,6.0,13.0,49,0.00,,SKC,0.00,VWS V13.01,2013-04-02 05:29:00,
2013-04-02 01:30:00,32.8,15.8,29.74,WSW,238,0.0,13.0,49,0.00,,SKC,0.00,VWS V13.01,2013-04-02 05:30:00,
2013-04-02 01:31:00,32.7,15.7,29.74,NW,316,3.0,11.0,49,0.00,,SKC,0.00,VWS V13.01,2013-04-02 05:31:00,
2013-04-02 01:32:00,32.7,15.2,29.74,NW,326,1.0,11.0,48,0.00,,SKC,0.00,VWS V13.01,2013-04-02 05:32:00,
2013-04-02 01:33:00,32.7,15.7,29.74,West,266,1.0,11.0,49,0.00,,SKC,0.00,VWS V13.01,2013-04-02 05:33:00,
2013-04-02 01:34:00,32.7,15.7,29.74,NNW,331,7.0,11.0,49,0.00,,SKC,0.00,VWS V13.01,2013-04-02 05:34:00,
2013-04-02 01:36:00,32.6,15.6,29.74,WNW,285,4.0,11.0,49,0.00,,SKC,0.00,VWS V13.01,2013-04-02 05:36:00,
2013-04-02 01:37:00,32.6,15.6,29.74,NNW,342,3.0,11.0,49,0.00,,SKC,0.00,VWS V13.01,2013-04-02 05:37:00,
2013-04-02 01:38:00,32.6,15.6,29.74,NW,307,8.0,11.0,49,0.00,,SKC,0.00,VWS V13.01,2013-04-02 05:38:00,
2013-04-02 01:39:00,32.6,15.6,29.74,NNW,348,1.0,11.0,49,0.00,,SKC,0.00,VWS V13.01,2013-04-02 05:39:00,
2013-04-02 01:40:00,32.6,15.6,29.74,WNW,301,7.0,11.0,49,0.00,,SKC,0.00,VWS V13.01,2013-04-02 05:40:00,
2013-04-02 01:41:00,32.6,15.6,29.74,NNW,333,6.0,11.0,49,0.00,,SKC,0.00,VWS V13.01,2013-04-02 05:41:00,
2013-04-02 01:42:00,32.6,15.1,29.74,North,355,5.0,12.0,48,0.00,,SKC,0.00,VWS V13.01,2013-04-02 05:42:00,
2013-04-02 01:43:00,32.6,15.1,29.75,NNW,336,5.0,12.0,48,0.00,,SKC,0.00,VWS V13.01,2013-04-02 05:43:00,
2013-04-02 01:44:00,32.6,15.6,29.74,SSE,158,1.0,12.0,49,0.00,,SKC,0.00,VWS V13.01,2013-04-02 05:44:00,
2013-04-02 01:45:00,32.6,15.6,29.75,North,360,5.0,13.0,49,0.00,,SKC,0.00,VWS V13.01,2013-04-02 05:45:00,
2013-04-02 01:46:00,32.5,15.5,29.75,NNW,327,7.0,13.0,49,0.00,,SKC,0.00,VWS V13.01,2013-04-02 05:46:00,
2013-04-02 01:47:00,32.5,15.0,29.75,NW,315,3.0,13.0,48,0.00,,SKC,0.00,VWS V13.01,2013-04-02 05:47:00,
2013-04-02 01:48:00,32.5,15.0,29.75,NNW,346,3.0,13.0,48,0.00,,SKC,0.00,VWS V13.01,2013-04-02 05:48:00,
2013-04-02 01:49:00,32.5,15.5,29.75,NW,310,0.0,13.0,49,0.00,,SKC,0.00,VWS V13.01,2013-04-02 05:49:00,
2013-04-02 01:51:00,32.5,15.5,29.74,WSW,247,1.0,13.0,49,0.00,,SKC,0.00,VWS V13.01,2013-04-02 05:51:00,
2013-04-02 01:52:00,32.5,15.5,29.74,WSW,249,4.0,13.0,49,0.00,,SKC,0.00,VWS V13.01,2013-04-02 05:52:00,
2013-04-02 01:53:00,32.4,15.4,29.75,NW,306,6.0,13.0,49,0.00,,SKC,0.00,VWS V13.01,2013-04-02 05:53:00,
2013-04-02 01:54:00,32.4,15.4,29.75,NW,304,3.0,13.0,49,0.00,,SKC,0.00,VWS V13.01,2013-04-02 05:54:00,
2013-04-02 01:55:00,32.4,15.4,29.75,WNW,291,0.0,13.0,49,0.00,,SKC,0.00,VWS V13.01,2013-04-02 05:55:00,
2013-04-02 01:56:00,32.4,15.4,29.74,WSW,252,5.0,13.0,49,0.00,,SKC,0.00,VWS V13.01,2013-04-02 05:56:00,
2013-04-02 01:57:00,32.4,15.4,29.74,WSW,252,2.0,13.0,49,0.00,,SKC,0.00,VWS V13.01,2013-04-02 05:57:00,
2013-04-02 01:58:00,32.4,15.4,29.74,WNW,296,5.0,13.0,49,0.00,,SKC,0.00,VWS V13.01,2013-04-02 05:58:00,
2013-04-02 01:59:00,32.3,15.3,29.74,WNW,300,2.0,13.0,49,0.00,,SKC,0.00,VWS V13.01,2013-04-02 05:59:00,
2013-04-02 02:00:00,32.3,15.3,29.74,WSW,239,6.0,13.0,49,0.00,,SKC,0.00,VWS V13.01,2013-04-02 06:00:00,
2013-04-02 02:01:00,32.3,15.3,29.74,NNW,338,7.0,7.0,49,0.00,,SKC,0.00,VWS V13.01,2013-04-02 06:01:00,
2013-04-02 02:02:00,32.3,15.3,29.74,WNW,284,5.0,7.0,49,0.00,,SKC,0.00,VWS V13.01,2013-04-02 06:02:00,
2013-04-02 02:03:00,32.3,14.8,29.74,NW,304,4.0,7.0,48,0.00,,SKC,0.00,VWS V13.01,2013-04-02 06:03:00,
2013-04-02 02:04:00,32.3,15.3,29.74,WNW,302,2.0,7.0,49,0.00,,SKC,0.00,VWS V13.01,2013-04-02 06:04:00,
2013-04-02 02:06:00,32.3,15.8,29.74,NW,307,1.0,7.0,50,0.00,,SKC,0.00,VWS V13.01,2013-04-02 06:06:00,
2013-04-02 02:07:00,32.3,15.8,29.74,NW,308,2.0,7.0,50,0.00,,SKC,0.00,VWS V13.01,2013-04-02 06:07:00,
2013-04-02 02:08:00,32.3,15.3,29.74,NW,310,1.0,7.0,49,0.00,,SKC,0.00,VWS V13.01,2013-04-02 06:08:00,
2013-04-02 02:09:00,32.2,15.7,29.74,WNW,287,2.0,9.0,50,0.00,,SKC,0.00,VWS V13.01,2013-04-02 06:09:00,
2013-04-02 02:10:00,32.2,15.7,29.74,WNW,294,1.0,9.0,50,0.00,,SKC,0.00,VWS V13.01,2013-04-02 06:10:00,
2013-04-02 02:11:00,32.2,15.2,29.74,WNW,294,5.0,9.0,49,0.00,,SKC,0.00,VWS V13.01,2013-04-02 06:11:00,
2013-04-02 02:12:00,32.2,15.2,29.74,NNW,334,3.0,9.0,49,0.00,,SKC,0.00,VWS V13.01,2013-04-02 06:12:00,
2013-04-02 02:13:00,32.2,15.2,29.74,NW,321,3.0,9.0,49,0.00,,SKC,0.00,VWS V13.01,2013-04-02 06:13:00,
2013-04-02 02:14:00,32.2,15.7,29.74,WNW,290,2.0,9.0,50,0.00,,SKC,0.00,VWS V13.01,2013-04-02 06:14:00,
2013-04-02 02:15:00,32.2,15.2,29.74,WNW,292,4.0,9.0,49,0.00,,SKC,0.00,VWS V13.01,2013-04-02 06:15:00,
2013-04-02 02:16:00,32.2,14.7,29.74,WSW,251,6.0,9.0,48,0.00,,SKC,0.00,VWS V13.01,2013-04-02 06:16:00,
2013-04-02 02:17:00,32.2,14.7,29.74,NW,323,6.0,12.0,48,0.00,,SKC,0.00,VWS V13.01,2013-04-02 06:17:00,
2013-04-02 02:18:00,32.2,14.7,29.74,North,355,5.0,12.0,48,0.00,,SKC,0.00,VWS V13.01,2013-04-02 06:18:00,
2013-04-02 02:19:00,32.2,15.2,29.74,WNW,287,2.0,12.0,49,0.00,,SKC,0.00,VWS V13.01,2013-04-02 06:19:00,
2013-04-02 02:20:00,32.2,14.7,29.74,NW,319,0.0,12.0,48,0.00,,SKC,0.00,VWS V13.01,2013-04-02 06:20:00,
2013-04-02 02:21:00,32.1,15.1,29.74,NNW,336,3.0,12.0,49,0.00,,SKC,0.00,VWS V13.01,2013-04-02 06:21:00,
2013-04-02 02:22:00,32.1,15.1,29.74,NNW,337,4.0,12.0,49,0.00,,SKC,0.00,VWS V13.01,2013-04-02 06:22:00,
2013-04-02 02:23:00,32.1,15.1,29.74,WNW,290,3.0,12.0,49,0.00,,SKC,0.00,VWS V13.01,2013-04-02 06:23:00,
2013-04-02 02:24:00,32.1,15.1,29.74,WNW,294,0.0,12.0,49,0.00,,SKC,0.00,VWS V13.01,2013-04-02 06:24:00,
2013-04-02 02:26:00,32.0,15.5,29.74,West,278,0.0,12.0,50,0.00,,SKC,0.00,VWS V13.01,2013-04-02 06:26:00,
2013-04-02 02:27:00,32.0,15.9,29.74,West,271,4.0,12.0,51,0.00,,SKC,0.00,VWS V13.01,2013-04-02 06:27:00,
2013-04-02 02:28:00,32.0,15.9,29.74,WNW,303,1.0,12.0,51,0.00,,SKC,0.00,VWS V13.01,2013-04-02 06:28:00,
2013-04-02 02:29:00,32.0,15.9,29.74,West,271,0.0,12.0,51,0.00,,SKC,0.00,VWS V13.01,2013-04-02 06:29:00,
2013-04-02 02:30:00,31.9,15.8,29.74,West,275,3.0,12.0,51,0.00,,SKC,0.00,VWS V13.01,2013-04-02 06:30:00,
2013-04-02 02:31:00,31.9,15.8,29.74,West,272,1.0,3.0,51,0.00,,SKC,0.00,VWS V13.01,2013-04-02 06:31:00,
2013-04-02 02:32:00,31.9,15.8,29.74,West,273,2.0,3.0,51,0.00,,SKC,0.00,VWS V13.01,2013-04-02 06:32:00,
2013-04-02 02:33:00,31.9,15.8,29.74,WSW,245,3.0,4.0,51,0.00,,SKC,0.00,VWS V13.01,2013-04-02 06:33:00,
2013-04-02 02:34:00,31.9,15.4,29.74,WSW,250,2.0,4.0,50,0.00,,SKC,0.00,VWS V13.01,2013-04-02 06:34:00,
2013-04-02 02:35:00,31.9,15.4,29.74,NNW,336,1.0,5.0,50,0.00,,SKC,0.00,VWS V13.01,2013-04-02 06:35:00,
2013-04-02 02:36:00,31.9,15.4,29.74,NW,325,7.0,8.0,50,0.00,,SKC,0.00,VWS V13.01,2013-04-02 06:36:00,
2013-04-02 02:37:00,31.9,15.4,29.74,NW,315,1.0,8.0,50,0.00,,SKC,0.00,VWS V13.01,2013-04-02 06:37:00,
2013-04-02 02:38:00,31.8,15.3,29.74,NW,315,1.0,8.0,50,0.00,,SKC,0.00,VWS V13.01,2013-04-02 06:38:00,
2013-04-02 02:39:00,31.8,15.3,29.74,WNW,300,5.0,10.0,50,0.00,,SKC,0.00,VWS V13.01,2013-04-02 06:39:00,
2013-04-02 02:40:00,31.8,15.3,29.74,NNW,331,2.0,10.0,50,0.00,,SKC,0.00,VWS V13.01,2013-04-02 06:40:00,
2013-04-02 02:41:00,31.8,15.3,29.74,NNW,331,0.0,10.0,50,0.00,,SKC,0.00,VWS V13.01,2013-04-02 06:41:00,
2013-04-02 02:42:00,31.8,15.8,29.74,NNW,331,0.0,10.0,51,0.00,,SKC,0.00,VWS V13.01,2013-04-02 06:42:00,
2013-04-02 02:43:00,31.8,15.8,29.74,NNW,330,6.0,10.0,51,0.00,,SKC,0.00,VWS V13.01,2013-04-02 06:43:00,
2013-04-02 02:44:00,31.7,15.7,29.74,NNW,330,1.0,10.0,51,0.00,,SKC,0.00,VWS V13.01,2013-04-02 06:44:00,
2013-04-02 02:45:00,31.7,15.7,29.74,NNW,331,3.0,10.0,51,0.00,,SKC,0.00,VWS V13.01,2013-04-02 06:45:00,
2013-04-02 02:46:00,31.7,15.7,29.74,NNW,331,2.0,10.0,51,0.00,,SKC,0.00,VWS V13.01,2013-04-02 06:46:00,
2013-04-02 02:47:00,31.7,15.7,29.74,NW,307,3.0,10.0,51,0.00,,SKC,0.00,VWS V13.01,2013-04-02 06:47:00,
2013-04-02 02:48:00,31.7,15.7,29.74,NW,307,1.0,10.0,51,0.00,,SKC,0.00,VWS V13.01,2013-04-02 06:48:00,
2013-04-02 02:49:00,31.6,15.6,29.74,NW,320,3.0,10.0,51,0.00,,SKC,0.00,VWS V13.01,2013-04-02 06:49:00,
2013-04-02 02:51:00,31.6,15.6,29.74,NW,321,2.0,10.0,51,0.00,,SKC,0.00,VWS V13.01,2013-04-02 06:51:00,
2013-04-02 02:52:00,31.6,15.6,29.74,NW,320,2.0,10.0,51,0.00,,SKC,0.00,VWS V13.01,2013-04-02 06:52:00,
2013-04-02 02:53:00,31.6,15.6,29.74,West,260,3.0,10.0,51,0.00,,SKC,0.00,VWS V13.01,2013-04-02 06:53:00,
2013-04-02 02:54:00,31.6,16.0,29.74,West,260,2.0,10.0,52,0.00,,SKC,0.00,VWS V13.01,2013-04-02 06:54:00,
2013-04-02 02:55:00,31.6,16.0,29.74,West,261,2.0,10.0,52,0.00,,SKC,0.00,VWS V13.01,2013-04-02 06:55:00,
2013-04-02 02:56:00,31.6,15.6,29.74,West,261,0.0,10.0,51,0.00,,SKC,0.00,VWS V13.01,2013-04-02 06:56:00,
2013-04-02 02:57:00,31.5,15.9,29.74,West,261,2.0,10.0,52,0.00,,SKC,0.00,VWS V13.01,2013-04-02 06:57:00,
2013-04-02 02:58:00,31.5,15.9,29.74,West,261,0.0,10.0,52,0.00,,SKC,0.00,VWS V13.01,2013-04-02 06:58:00,
2013-04-02 02:59:00,31.5,15.9,29.74,West,260,0.0,10.0,52,0.00,,SKC,0.00,VWS V13.01,2013-04-02 06:59:00,
2013-04-02 03:00:00,31.5,15.9,29.74,West,260,1.0,10.0,52,0.00,,SKC,0.00,VWS V13.01,2013-04-02 07:00:00,
2013-04-02 03:01:00,31.4,15.8,29.74,NNW,346,3.0,7.0,52,0.00,,SKC,0.00,VWS V13.01,2013-04-02 07:01:00,
2013-04-02 03:02:00,31.4,15.8,29.74,NW,320,3.0,7.0,52,0.00,,SKC,0.00,VWS V13.01,2013-04-02 07:02:00,
2013-04-02 03:03:00,31.4,16.3,29.74,NW,320,1.0,7.0,53,0.00,,SKC,0.00,VWS V13.01,2013-04-02 07:03:00,
2013-04-02 03:04:00,31.3,15.7,29.74,NW,321,4.0,7.0,52,0.00,,SKC,0.00,VWS V13.01,2013-04-02 07:04:00,
2013-04-02 03:05:00,31.3,15.7,29.74,NW,314,1.0,7.0,52,0.00,,SKC,0.00,VWS V13.01,2013-04-02 07:05:00,
2013-04-02 03:06:00,31.3,15.7,29.74,NNW,338,1.0,7.0,52,0.00,,SKC,0.00,VWS V13.01,2013-04-02 07:06:00,
2013-04-02 03:07:00,31.3,15.7,29.74,NW,315,5.0,7.0,52,0.00,,SKC,0.00,VWS V13.01,2013-04-02 07:07:00,
2013-04-02 03:08:00,31.3,15.3,29.74,NNW,334,2.0,10.0,51,0.00,,SKC,0.00,VWS V13.01,2013-04-02 07:08:00,
2013-04-02 03:09:00,31.3,15.3,29.74,WNW,302,2.0,10.0,51,0.00,,SKC,0.00,VWS V13.01,2013-04-02 07:09:00,
2013-04-02 03:10:00,31.3,15.3,29.74,NW,307,2.0,10.0,51,0.00,,SKC,0.00,VWS V13.01,2013-04-02 07:10:00,
2013-04-02 03:11:00,31.3,15.3,29.74,West,267,6.0,10.0,51,0.00,,SKC,0.00,VWS V13.01,2013-04-02 07:11:00,
2013-04-02 03:12:00,31.4,14.9,29.74,West,263,3.0,10.0,50,0.00,,SKC,0.00,VWS V13.01,2013-04-02 07:12:00,
2013-04-02 03:13:00,31.4,14.9,29.74,West,277,3.0,10.0,50,0.00,,SKC,0.00,VWS V13.01,2013-04-02 07:13:00,
2013-04-02 03:14:00,31.4,14.9,29.74,WSW,246,6.0,10.0,50,0.00,,SKC,0.00,VWS V13.01,2013-04-02 07:14:00,
2013-04-02 03:16:00,31.4,14.9,29.74,NNW,337,3.0,10.0,50,0.00,,SKC,0.00,VWS V13.01,2013-04-02 07:16:00,
2013-04-02 03:17:00,31.4,14.9,29.74,NW,323,5.0,10.0,50,0.00,,SKC,0.00,VWS V13.01,2013-04-02 07:17:00,
2013-04-02 03:18:00,31.3,14.8,29.74,NW,320,3.0,10.0,50,0.00,,SKC,0.00,VWS V13.01,2013-04-02 07:18:00,
2013-04-02 03:19:00,31.3,14.8,29.74,NW,313,4.0,10.0,50,0.00,,SKC,0.00,VWS V13.01,2013-04-02 07:19:00,
2013-04-02 03:20:00,31.3,14.8,29.74,NW,319,2.0,10.0,50,0.00,,SKC,0.00,VWS V13.01,2013-04-02 07:20:00,
2013-04-02 03:21:00,31.2,14.7,29.74,NW,325,3.0,10.0,50,0.00,,SKC,0.00,VWS V13.01,2013-04-02 07:21:00,
2013-04-02 03:22:00,31.2,14.7,29.74,NW,319,3.0,10.0,50,0.00,,SKC,0.00,VWS V13.01,2013-04-02 07:22:00,
2013-04-02 03:23:00,31.2,14.7,29.74,NW,318,2.0,10.0,50,0.00,,SKC,0.00,VWS V13.01,2013-04-02 07:23:00,
2013-04-02 03:24:00,31.1,14.6,29.74,NW,313,4.0,10.0,50,0.00,,SKC,0.00,VWS V13.01,2013-04-02 07:24:00,
2013-04-02 03:25:00,31.1,14.6,29.74,North,349,3.0,10.0,50,0.00,,SKC,0.00,VWS V13.01,2013-04-02 07:25:00,
2013-04-02 03:26:00,31.0,14.6,29.74,NW,326,4.0,10.0,50,0.00,,SKC,0.00,VWS V13.01,2013-04-02 07:26:00,
2013-04-02 03:27:00,31.1,14.6,29.74,NW,322,2.0,10.0,50,0.00,,SKC,0.00,VWS V13.01,2013-04-02 07:27:00,
2013-04-02 03:28:00,31.0,14.6,29.74,NNW,338,5.0,10.0,50,0.00,,SKC,0.00,VWS V13.01,2013-04-02 07:28:00,
2013-04-02 03:29:00,31.0,14.6,29.74,NW,322,2.0,10.0,50,0.00,,SKC,0.00,VWS V13.01,2013-04-02 07:29:00,
2013-04-02 03:30:00,31.0,14.6,29.74,NW,322,1.0,10.0,50,0.00,,SKC,0.00,VWS V13.01,2013-04-02 07:30:00,
2013-04-02 03:31:00,31.0,14.6,29.74,NW,321,0.0,3.0,50,0.00,,SKC,0.00,VWS V13.01,2013-04-02 07:31:00,
2013-04-02 03:32:00,31.0,15.0,29.74,WNW,302,4.0,4.0,51,0.00,,SKC,0.00,VWS V13.01,2013-04-02 07:32:00,
2013-04-02 03:33:00,31.0,15.0,29.74,WNW,302,1.0,4.0,51,0.00,,SKC,0.00,VWS V13.01,2013-04-02 07:33:00,
2013-04-02 03:34:00,31.0,15.0,29.74,WNW,302,2.0,4.0,51,0.00,,SKC,0.00,VWS V13.01,2013-04-02 07:34:00,
2013-04-02 03:35:00,31.0,15.0,29.74,WNW,301,3.0,4.0,51,0.00,,SKC,0.00,VWS V13.01,2013-04-02 07:35:00,
2013-04-02 03:36:00,31.0,15.0,29.74,West,281,3.0,4.0,51,0.00,,SKC,0.00,VWS V13.01,2013-04-02 07:36:00,
2013-04-02 03:37:00,31.0,15.0,29.74,WNW,302,2.0,4.0,51,0.00,,SKC,0.00,VWS V13.01,2013-04-02 07:37:00,
2013-04-02 03:38:00,30.9,15.4,29.74,WNW,302,2.0,4.0,52,0.00,,SKC,0.00,VWS V13.01,2013-04-02 07:38:00,
2013-04-02 03:39:00,30.9,15.4,29.74,WNW,302,3.0,4.0,52,0.00,,SKC,0.00,VWS V13.01,2013-04-02 07:39:00,
2013-04-02 03:40:00,30.9,14.9,29.74,NW,317,3.0,4.0,51,0.00,,SKC,0.00,VWS V13.01,2013-04-02 07:40:00,
2013-04-02 03:41:00,30.8,14.8,29.74,WNW,302,4.0,7.0,51,0.00,,SKC,0.00,VWS V13.01,2013-04-02 07:41:00,
2013-04-02 03:42:00,30.9,14.9,29.74,WNW,289,2.0,7.0,51,0.00,,SKC,0.00,VWS V13.01,2013-04-02 07:42:00,
2013-04-02 03:43:00,30.9,14.9,29.74,WNW,286,5.0,7.0,51,0.00,,SKC,0.00,VWS V13.01,2013-04-02 07:43:00,
2013-04-02 03:44:00,30.9,15.4,29.74,WSW,253,1.0,7.0,52,0.00,,SKC,0.00,VWS V13.01,2013-04-02 07:44:00,
2013-04-02 03:45:00,30.9,15.4,29.74,WSW,252,2.0,7.0,52,0.00,,SKC,0.00,VWS V13.01,2013-04-02 07:45:00,
2013-04-02 03:46:00,30.9,15.4,29.74,WSW,252,0.0,7.0,52,0.00,,SKC,0.00,VWS V13.01,2013-04-02 07:46:00,
2013-04-02 03:47:00,30.9,15.8,29.74,WSW,252,1.0,7.0,53,0.00,,SKC,0.00,VWS V13.01,2013-04-02 07:47:00,
2013-04-02 03:48:00,30.9,15.8,29.74,WSW,245,2.0,7.0,53,0.00,,SKC,0.00,VWS V13.01,2013-04-02 07:48:00,
2013-04-02 03:49:00,30.9,15.8,29.74,WSW,245,0.0,7.0,53,0.00,,SKC,0.00,VWS V13.01,2013-04-02 07:49:00,
2013-04-02 03:50:00,30.8,16.1,29.74,WSW,245,1.0,7.0,54,0.00,,SKC,0.00,VWS V13.01,2013-04-02 07:50:00,
2013-04-02 03:51:00,30.8,16.1,29.75,WSW,244,1.0,7.0,54,0.00,,SKC,0.00,VWS V13.01,2013-04-02 07:51:00,
2013-04-02 03:52:00,30.8,16.1,29.74,NW,309,3.0,7.0,54,0.00,,SKC,0.00,VWS V13.01,2013-04-02 07:52:00,
2013-04-02 03:53:00,30.8,15.7,29.75,WNW,300,1.0,7.0,53,0.00,,SKC,0.00,VWS V13.01,2013-04-02 07:53:00,
2013-04-02 03:54:00,30.8,16.1,29.75,WNW,299,4.0,7.0,54,0.00,,SKC,0.00,VWS V13.01,2013-04-02 07:54:00,
2013-04-02 03:55:00,30.8,16.1,29.75,WSW,248,3.0,7.0,54,0.00,,SKC,0.00,VWS V13.01,2013-04-02 07:55:00,
2013-04-02 03:56:00,30.9,16.2,29.75,WNW,295,1.0,7.0,54,0.00,,SKC,0.00,VWS V13.01,2013-04-02 07:56:00,
2013-04-02 03:57:00,30.9,16.2,29.75,NW,312,5.0,9.0,54,0.00,,SKC,0.00,VWS V13.01,2013-04-02 07:57:00,
2013-04-02 03:58:00,30.9,16.2,29.75,WNW,294,2.0,9.0,54,0.00,,SKC,0.00,VWS V13.01,2013-04-02 07:58:00,
2013-04-02 03:59:00,31.0,16.3,29.75,NW,307,4.0,9.0,54,0.00,,SKC,0.00,VWS V13.01,2013-04-02 07:59:00,
2013-04-02 04:00:00,31.0,16.3,29.75,NW,317,0.0,9.0,54,0.00,,SKC,0.00,VWS V13.01,2013-04-02 08:00:00,
2013-04-02 04:01:00,31.0,16.3,29.75,WNW,284,4.0,4.0,54,0.00,,SKC,0.00,VWS V13.01,2013-04-02 08:01:00,
2013-04-02 04:02:00,31.0,16.3,29.75,NW,324,1.0,5.0,54,0.00,,SKC,0.00,VWS V13.01,2013-04-02 08:02:00,
2013-04-02 04:03:00,31.0,16.3,29.75,NW,322,2.0,5.0,54,0.00,,SKC,0.00,VWS V13.01,2013-04-02 08:03:00,
2013-04-02 04:04:00,30.9,16.2,29.75,NW,307,2.0,5.0,54,0.00,,SKC,0.00,VWS V13.01,2013-04-02 08:04:00,
2013-04-02 04:05:00,30.9,16.2,29.75,NW,308,1.0,5.0,54,0.00,,SKC,0.00,VWS V13.01,2013-04-02 08:05:00,
2013-04-02 04:06:00,30.9,16.6,29.75,WNW,297,2.0,5.0,55,0.00,,SKC,0.00,VWS V13.01,2013-04-02 08:06:00,
2013-04-02 04:07:00,30.9,16.6,29.75,West,280,3.0,5.0,55,0.00,,SKC,0.00,VWS V13.01,2013-04-02 08:07:00,
2013-04-02 04:08:00,30.9,16.6,29.75,West,281,0.0,5.0,55,0.00,,SKC,0.00,VWS V13.01,2013-04-02 08:08:00,
2013-04-02 04:09:00,30.9,16.6,29.75,West,281,2.0,5.0,55,0.00,,SKC,0.00,VWS V13.01,2013-04-02 08:09:00,
2013-04-02 04:11:00,30.9,16.6,29.75,NW,325,1.0,5.0,55,0.00,,SKC,0.00,VWS V13.01,2013-04-02 08:11:00,
2013-04-02 04:12:00,30.8,16.5,29.75,NW,325,2.0,5.0,55,0.00,,SKC,0.00,VWS V13.01,2013-04-02 08:12:00,
2013-04-02 04:13:00,30.8,16.5,29.75,North,351,1.0,5.0,55,0.00,,SKC,0.00,VWS V13.01,2013-04-02 08:13:00,
2013-04-02 04:14:00,30.8,16.5,29.75,North,351,0.0,5.0,55,0.00,,SKC,0.00,VWS V13.01,2013-04-02 08:14:00,
2013-04-02 04:16:00,30.8,17.0,29.75,WNW,295,3.0,5.0,56,0.00,,SKC,0.00,VWS V13.01,2013-04-02 08:16:00,
2013-04-02 04:17:00,30.8,17.0,29.75,WNW,295,3.0,5.0,56,0.00,,SKC,0.00,VWS V13.01,2013-04-02 08:17:00,
2013-04-02 04:18:00,30.8,17.0,29.75,WNW,295,0.0,5.0,56,0.00,,SKC,0.00,VWS V13.01,2013-04-02 08:18:00,
2013-04-02 04:19:00,30.8,17.0,29.75,WSW,245,0.0,5.0,56,0.00,,SKC,0.00,VWS V13.01,2013-04-02 08:19:00,
2013-04-02 04:20:00,30.8,17.0,29.75,WSW,245,0.0,5.0,56,0.00,,SKC,0.00,VWS V13.01,2013-04-02 08:20:00,
2013-04-02 04:21:00,30.8,17.0,29.75,WNW,297,0.0,5.0,56,0.00,,SKC,0.00,VWS V13.01,2013-04-02 08:21:00,
2013-04-02 04:22:00,30.8,17.0,29.75,South,173,1.0,5.0,56,0.00,,SKC,0.00,VWS V13.01,2013-04-02 08:22:00,
2013-04-02 04:23:00,30.8,17.0,29.75,NW,304,1.0,5.0,56,0.00,,SKC,0.00,VWS V13.01,2013-04-02 08:23:00,
2013-04-02 04:24:00,30.8,16.5,29.75,WSW,247,3.0,6.0,55,0.00,,SKC,0.00,VWS V13.01,2013-04-02 08:24:00,
2013-04-02 04:26:00,30.8,16.5,29.75,WSW,246,0.0,6.0,55,0.00,,SKC,0.00,VWS V13.01,2013-04-02 08:26:00,
2013-04-02 04:27:00,30.8,16.5,29.75,WSW,246,1.0,6.0,55,0.00,,SKC,0.00,VWS V13.01,2013-04-02 08:27:00,
2013-04-02 04:28:00,30.8,17.0,29.75,NW,315,5.0,6.0,56,0.00,,SKC,0.00,VWS V13.01,2013-04-02 08:28:00,
2013-04-02 04:29:00,30.8,17.0,29.75,WSW,237,4.0,6.0,56,0.00,,SKC,0.00,VWS V13.01,2013-04-02 08:29:00,
2013-04-02 04:30:00,30.8,16.5,29.75,WSW,254,0.0,7.0,55,0.00,,SKC,0.00,VWS V13.01,2013-04-02 08:30:00,
2013-04-02 04:31:00,30.8,16.5,29.75,West,264,1.0,3.0,55,0.00,,SKC,0.00,VWS V13.01,2013-04-02 08:31:00,
2013-04-02 04:32:00,30.8,16.5,29.75,NW,311,1.0,6.0,55,0.00,,SKC,0.00,VWS V13.01,2013-04-02 08:32:00,
2013-04-02 04:33:00,30.8,16.5,29.76,NW,312,1.0,6.0,55,0.00,,SKC,0.00,VWS V13.01,2013-04-02 08:33:00,
2013-04-02 04:34:00,30.8,16.1,29.76,NW,312,0.0,6.0,54,0.00,,SKC,0.00,VWS V13.01,2013-04-02 08:34:00,
2013-04-02 04:36:00,30.7,16.0,29.76,NW,322,1.0,6.0,54,0.00,,SKC,0.00,VWS V13.01,2013-04-02 08:36:00,
2013-04-02 04:37:00,30.7,16.0,29.76,West,266,9.0,9.0,54,0.00,,SKC,0.00,VWS V13.01,2013-04-02 08:37:00,
2013-04-02 04:38:00,30.7,16.0,29.76,NW,306,1.0,9.0,54,0.00,,SKC,0.00,VWS V13.01,2013-04-02 08:38:00,
2013-04-02 04:39:00,30.7,16.5,29.76,NW,323,2.0,9.0,55,0.00,,SKC,0.00,VWS V13.01,2013-04-02 08:39:00,
2013-04-02 04:51:00,30.5,16.3,29.76,WNW,303,2.0,9.0,55,0.00,,SKC,0.00,VWS V13.01,2013-04-02 08:51:00,
2013-04-02 04:52:00,30.5,15.9,29.76,NW,304,0.0,9.0,54,0.00,,SKC,0.00,VWS V13.01,2013-04-02 08:52:00,
2013-04-02 04:53:00,30.4,15.8,29.76,NW,304,1.0,9.0,54,0.00,,SKC,0.00,VWS V13.01,2013-04-02 08:53:00,
2013-04-02 04:54:00,30.4,15.8,29.76,NW,314,4.0,9.0,54,0.00,,SKC,0.00,VWS V13.01,2013-04-02 08:54:00,
2013-04-02 04:55:00,30.3,15.7,29.76,NW,306,0.0,9.0,54,0.00,,SKC,0.00,VWS V13.01,2013-04-02 08:55:00,
2013-04-02 04:56:00,30.3,15.7,29.76,WNW,301,2.0,9.0,54,0.00,,SKC,0.00,VWS V13.01,2013-04-02 08:56:00,
2013-04-02 04:57:00,30.3,16.1,29.76,WNW,301,3.0,9.0,55,0.00,,SKC,0.00,VWS V13.01,2013-04-02 08:57:00,
2013-04-02 04:58:00,30.3,15.7,29.76,WNW,292,2.0,9.0,54,0.00,,SKC,0.00,VWS V13.01,2013-04-02 08:58:00,
2013-04-02 04:59:00,30.2,16.0,29.76,WNW,293,0.0,9.0,55,0.00,,SKC,0.00,VWS V13.01,2013-04-02 08:59:00,
2013-04-02 05:00:00,30.2,16.0,29.76,WNW,288,0.0,9.0,55,0.00,,SKC,0.00,VWS V13.01,2013-04-02 09:00:00,
2013-04-02 05:01:00,30.2,16.0,29.76,WNW,288,0.0,1.0,55,0.00,,SKC,0.00,VWS V13.01,2013-04-02 09:01:00,
2013-04-02 05:02:00,30.1,15.9,29.76,NW,314,3.0,3.0,55,0.00,,SKC,0.00,VWS V13.01,2013-04-02 09:02:00,
2013-04-02 05:03:00,30.1,15.9,29.76,NW,315,1.0,3.0,55,0.00,,SKC,0.00,VWS V13.01,2013-04-02 09:03:00,
2013-04-02 05:04:00,30.1,15.5,29.76,NW,315,3.0,4.0,54,0.00,,SKC,0.00,VWS V13.01,2013-04-02 09:04:00,
2013-04-02 05:06:00,30.0,15.8,29.76,NNW,329,3.0,4.0,55,0.00,,SKC,0.00,VWS V13.01,2013-04-02 09:06:00,
2013-04-02 05:07:00,30.0,15.4,29.76,NW,325,0.0,4.0,54,0.00,,SKC,0.00,VWS V13.01,2013-04-02 09:07:00,
2013-04-02 05:08:00,29.9,15.7,29.76,North,355,1.0,5.0,55,0.00,,SKC,0.00,VWS V13.01,2013-04-02 09:08:00,
2013-04-02 05:09:00,29.9,15.7,29.76,North,360,8.0,9.0,55,0.00,,SKC,0.00,VWS V13.01,2013-04-02 09:09:00,
2013-04-02 05:10:00,29.9,15.7,29.77,WNW,298,0.0,9.0,55,0.00,,SKC,0.00,VWS V13.01,2013-04-02 09:10:00,
2013-04-02 05:11:00,29.8,15.6,29.77,WNW,290,2.0,9.0,55,0.00,,SKC,0.00,VWS V13.01,2013-04-02 09:11:00,
2013-04-02 05:12:00,29.8,15.6,29.77,WNW,290,2.0,9.0,55,0.00,,SKC,0.00,VWS V13.01,2013-04-02 09:12:00,
2013-04-02 05:13:00,29.8,15.6,29.77,WNW,290,2.0,9.0,55,0.00,,SKC,0.00,VWS V13.01,2013-04-02 09:13:00,
2013-04-02 05:14:00,29.8,15.6,29.77,NW,314,4.0,9.0,55,0.00,,SKC,0.00,VWS V13.01,2013-04-02 09:14:00,
2013-04-02 05:16:00,29.7,15.5,29.77,NNW,333,2.0,9.0,55,0.00,,SKC,0.00,VWS V13.01,2013-04-02 09:16:00,
2013-04-02 05:17:00,29.7,15.5,29.77,NW,321,3.0,9.0,55,0.00,,SKC,0.00,VWS V13.01,2013-04-02 09:17:00,
2013-04-02 05:18:00,29.7,15.5,29.77,NW,321,1.0,9.0,55,0.00,,SKC,0.00,VWS V13.01,2013-04-02 09:18:00,
2013-04-02 05:19:00,29.7,15.5,29.77,NW,325,2.0,9.0,55,0.00,,SKC,0.00,VWS V13.01,2013-04-02 09:19:00,
2013-04-02 05:21:00,29.7,15.9,29.77,NW,325,0.0,9.0,56,0.00,,SKC,0.00,VWS V13.01,2013-04-02 09:21:00,
2013-04-02 05:22:00,29.6,15.8,29.77,NW,325,4.0,9.0,56,0.00,,SKC,0.00,VWS V13.01,2013-04-02 09:22:00,
2013-04-02 05:23:00,29.6,15.8,29.77,NW,322,4.0,9.0,56,0.00,,SKC,0.00,VWS V13.01,2013-04-02 09:23:00,
2013-04-02 05:24:00,29.5,15.8,29.77,NNW,330,1.0,9.0,56,0.00,,SKC,0.00,VWS V13.01,2013-04-02 09:24:00,
2013-04-02 05:25:00,29.4,15.7,29.77,NW,317,2.0,9.0,56,0.00,,SKC,0.00,VWS V13.01,2013-04-02 09:25:00,
2013-04-02 05:26:00,29.4,15.7,29.77,WNW,300,3.0,9.0,56,0.00,,SKC,0.00,VWS V13.01,2013-04-02 09:26:00,
2013-04-02 05:27:00,29.4,15.7,29.77,WNW,299,1.0,9.0,56,0.00,,SKC,0.00,VWS V13.01,2013-04-02 09:27:00,
2013-04-02 05:28:00,29.4,16.1,29.77,NW,305,3.0,9.0,57,0.00,,SKC,0.00,VWS V13.01,2013-04-02 09:28:00,
2013-04-02 05:29:00,29.4,16.1,29.77,NW,305,4.0,9.0,57,0.00,,SKC,0.00,VWS V13.01,2013-04-02 09:29:00,
2013-04-02 05:30:00,29.3,16.0,29.77,NNW,338,4.0,9.0,57,0.00,,SKC,0.00,VWS V13.01,2013-04-02 09:30:00,
2013-04-02 05:31:00,29.3,15.6,29.77,NNW,340,3.0,4.0,56,0.00,,SKC,0.00,VWS V13.01,2013-04-02 09:31:00,
2013-04-02 05:32:00,29.3,15.6,29.77,NNW,332,5.0,5.0,56,0.00,,SKC,0.00,VWS V13.01,2013-04-02 09:32:00,
2013-04-02 05:33:00,29.3,16.0,29.77,NW,325,0.0,5.0,57,0.00,,SKC,0.00,VWS V13.01,2013-04-02 09:33:00,
2013-04-02 05:34:00,29.2,15.9,29.77,NW,325,1.0,5.0,57,0.00,,SKC,0.00,VWS V13.01,2013-04-02 09:34:00,
2013-04-02 05:35:00,29.2,15.9,29.77,NW,325,0.0,5.0,57,0.00,,SKC,0.00,VWS V13.01,2013-04-02 09:35:00,
2013-04-02 05:36:00,29.2,15.9,29.77,NW,325,0.0,5.0,57,0.00,,SKC,0.00,VWS V13.01,2013-04-02 09:36:00,
2013-04-02 05:37:00,29.1,15.8,29.77,NW,325,0.0,5.0,57,0.00,,SKC,0.00,VWS V13.01,2013-04-02 09:37:00,
2013-04-02 05:38:00,29.1,15.8,29.77,NW,325,1.0,5.0,57,0.00,,SKC,0.00,VWS V13.01,2013-04-02 09:38:00,
2013-04-02 05:39:00,29.0,16.1,29.77,NW,325,1.0,5.0,58,0.00,,SKC,0.00,VWS V13.01,2013-04-02 09:39:00,
2013-04-02 05:40:00,29.0,15.7,29.77,NW,325,2.0,5.0,57,0.00,,SKC,0.00,VWS V13.01,2013-04-02 09:40:00,
2013-04-02 05:41:00,28.9,16.0,29.77,NW,324,3.0,5.0,58,0.00,,SKC,0.00,VWS V13.01,2013-04-02 09:41:00,
2013-04-02 05:42:00,28.9,16.0,29.77,NW,324,1.0,5.0,58,0.00,,SKC,0.00,VWS V13.01,2013-04-02 09:42:00,
2013-04-02 05:43:00,28.8,15.9,29.77,NW,323,1.0,5.0,58,0.00,,SKC,0.00,VWS V13.01,2013-04-02 09:43:00,
2013-04-02 05:44:00,28.8,15.9,29.77,NW,324,0.0,5.0,58,0.00,,SKC,0.00,VWS V13.01,2013-04-02 09:44:00,
2013-04-02 05:45:00,28.8,15.9,29.77,NW,324,0.0,5.0,58,0.00,,SKC,0.00,VWS V13.01,2013-04-02 09:45:00,
2013-04-02 05:46:00,28.7,15.8,29.77,NW,324,0.0,5.0,58,0.00,,SKC,0.00,VWS V13.01,2013-04-02 09:46:00,
2013-04-02 05:47:00,28.7,15.8,29.77,NW,324,0.0,5.0,58,0.00,,SKC,0.00,VWS V13.01,2013-04-02 09:47:00,
2013-04-02 05:48:00,28.7,15.8,29.77,NW,324,0.0,5.0,58,0.00,,SKC,0.00,VWS V13.01,2013-04-02 09:48:00,
2013-04-02 05:49:00,28.7,16.2,29.77,NW,324,0.0,5.0,59,0.00,,SKC,0.00,VWS V13.01,2013-04-02 09:49:00,
2013-04-02 05:51:00,28.5,16.0,29.77,NW,324,0.0,5.0,59,0.00,,SKC,0.00,VWS V13.01,2013-04-02 09:51:00,
2013-04-02 05:52:00,28.5,16.0,29.77,NW,324,0.0,5.0,59,0.00,,SKC,0.00,VWS V13.01,2013-04-02 09:52:00,
2013-04-02 05:53:00,28.5,16.4,29.77,NW,324,0.0,5.0,60,0.00,,SKC,0.00,VWS V13.01,2013-04-02 09:53:00,
2013-04-02 05:54:00,28.4,16.3,29.77,NW,323,0.0,5.0,60,0.00,,SKC,0.00,VWS V13.01,2013-04-02 09:54:00,
2013-04-02 05:56:00,28.3,16.2,29.77,NW,323,0.0,5.0,60,0.00,,SKC,0.00,VWS V13.01,2013-04-02 09:56:00,
2013-04-02 05:57:00,28.2,16.1,29.77,NW,324,0.0,5.0,60,0.00,,SKC,0.00,VWS V13.01,2013-04-02 09:57:00,
2013-04-02 05:58:00,28.1,16.4,29.77,NW,323,0.0,5.0,61,0.00,,SKC,0.00,VWS V13.01,2013-04-02 09:58:00,
2013-04-02 05:59:00,28.1,16.4,29.77,NW,324,0.0,5.0,61,0.00,,SKC,0.00,VWS V13.01,2013-04-02 09:59:00,
2013-04-02 06:00:00,28.0,16.3,29.77,NW,324,0.0,5.0,61,0.00,,SKC,0.00,VWS V13.01,2013-04-02 10:00:00,
2013-04-02 06:01:00,27.9,16.6,29.77,NW,323,0.0,0.0,62,0.00,,SKC,0.00,VWS V13.01,2013-04-02 10:01:00,
2013-04-02 06:02:00,27.8,16.5,29.78,NW,324,0.0,0.0,62,0.00,,SKC,0.00,VWS V13.01,2013-04-02 10:02:00,
2013-04-02 06:03:00,27.7,16.4,29.78,NW,323,0.0,0.0,62,0.00,,SKC,0.00,VWS V13.01,2013-04-02 10:03:00,
2013-04-02 06:04:00,27.7,16.4,29.77,NW,323,0.0,0.0,62,0.00,,SKC,0.00,VWS V13.01,2013-04-02 10:04:00,
2013-04-02 06:05:00,27.6,16.7,29.77,NW,324,0.0,0.0,63,0.00,,SKC,0.00,VWS V13.01,2013-04-02 10:05:00,
2013-04-02 06:06:00,27.5,16.6,29.77,NW,324,0.0,0.0,63,0.00,,SKC,0.00,VWS V13.01,2013-04-02 10:06:00,
2013-04-02 06:07:00,27.4,16.5,29.78,NW,324,0.0,0.0,63,0.00,,SKC,0.00,VWS V13.01,2013-04-02 10:07:00,
2013-04-02 06:08:00,27.4,16.8,29.77,NW,324,0.0,0.0,64,0.00,,SKC,0.00,VWS V13.01,2013-04-02 10:08:00,
2013-04-02 06:09:00,27.3,16.8,29.77,NW,324,0.0,0.0,64,0.00,,SKC,0.00,VWS V13.01,2013-04-02 10:09:00,
2013-04-02 06:10:00,27.3,16.8,29.77,NW,324,0.0,0.0,64,0.00,,SKC,0.00,VWS V13.01,2013-04-02 10:10:00,
2013-04-02 06:11:00,27.2,16.6,29.77,NW,323,0.0,0.0,64,0.00,,SKC,0.00,VWS V13.01,2013-04-02 10:11:00,
2013-04-02 06:12:00,27.1,16.9,29.77,NW,323,0.0,0.0,65,0.00,,SKC,0.00,VWS V13.01,2013-04-02 10:12:00,
2013-04-02 06:13:00,27.1,16.9,29.78,NW,324,0.0,0.0,65,0.00,,SKC,0.00,VWS V13.01,2013-04-02 10:13:00,
2013-04-02 06:14:00,27.1,16.9,29.77,NW,323,0.0,0.0,65,0.00,,SKC,0.00,VWS V13.01,2013-04-02 10:14:00,
2013-04-02 06:16:00,27.0,17.2,29.78,NW,324,0.0,0.0,66,0.00,,SKC,0.00,VWS V13.01,2013-04-02 10:16:00,
2013-04-02 06:17:00,27.0,17.2,29.78,NW,323,0.0,0.0,66,0.00,,SKC,0.00,VWS V13.01,2013-04-02 10:17:00,
2013-04-02 06:18:00,27.0,17.2,29.78,NW,324,0.0,0.0,66,0.00,,SKC,0.00,VWS V13.01,2013-04-02 10:18:00,
2013-04-02 06:19:00,26.9,17.1,29.78,NW,323,0.0,0.0,66,0.00,,SKC,0.00,VWS V13.01,2013-04-02 10:19:00,
2013-04-02 06:20:00,27.0,17.5,29.78,NW,324,2.0,3.0,67,0.00,,SKC,0.00,VWS V13.01,2013-04-02 10:20:00,
2013-04-02 06:21:00,27.0,17.5,29.78,NW,324,2.0,3.0,67,0.00,,SKC,0.00,VWS V13.01,2013-04-02 10:21:00,
2013-04-02 06:22:00,27.1,17.6,29.78,NW,324,1.0,3.0,67,0.00,,SKC,0.00,VWS V13.01,2013-04-02 10:22:00,
2013-04-02 06:23:00,27.1,17.6,29.78,NW,324,0.0,3.0,67,0.00,,SKC,0.00,VWS V13.01,2013-04-02 10:23:00,
2013-04-02 06:24:00,27.1,17.6,29.78,NW,324,0.0,3.0,67,0.00,,SKC,0.00,VWS V13.01,2013-04-02 10:24:00,
2013-04-02 06:25:00,27.2,17.7,29.78,NW,323,0.0,3.0,67,0.00,,SKC,0.00,VWS V13.01,2013-04-02 10:25:00,
2013-04-02 06:26:00,27.2,17.7,29.78,NW,324,0.0,3.0,67,0.00,,SKC,0.00,VWS V13.01,2013-04-02 10:26:00,
2013-04-02 06:27:00,27.2,17.7,29.78,NW,324,0.0,3.0,67,0.00,,SKC,0.00,VWS V13.01,2013-04-02 10:27:00,
2013-04-02 06:28:00,27.2,17.7,29.78,NW,323,0.0,3.0,67,0.00,,SKC,0.00,VWS V13.01,2013-04-02 10:28:00,
2013-04-02 06:29:00,27.2,17.7,29.78,NW,324,0.0,3.0,67,0.00,,SKC,0.00,VWS V13.01,2013-04-02 10:29:00,
2013-04-02 06:30:00,27.2,17.7,29.78,NW,324,0.0,3.0,67,0.00,,SKC,0.00,VWS V13.01,2013-04-02 10:30:00,
2013-04-02 06:31:00,27.3,17.8,29.78,NW,323,0.0,0.0,67,0.00,,SKC,0.00,VWS V13.01,2013-04-02 10:31:00,
2013-04-02 06:32:00,27.3,18.1,29.78,NW,323,0.0,0.0,68,0.00,,SKC,0.00,VWS V13.01,2013-04-02 10:32:00,
2013-04-02 06:33:00,27.3,18.1,29.78,NW,324,0.0,0.0,68,0.00,,SKC,0.00,VWS V13.01,2013-04-02 10:33:00,
2013-04-02 06:34:00,27.3,18.1,29.78,NW,324,0.0,0.0,68,0.00,,SKC,0.00,VWS V13.01,2013-04-02 10:34:00,
2013-04-02 06:36:00,27.3,17.8,29.79,NW,324,0.0,2.0,67,0.00,,SKC,0.00,VWS V13.01,2013-04-02 10:36:00,
2013-04-02 06:37:00,27.4,17.9,29.79,NW,324,3.0,3.0,67,0.00,,SKC,0.00,VWS V13.01,2013-04-02 10:37:00,
2013-04-02 06:38:00,27.4,17.9,29.79,NW,322,0.0,3.0,67,0.00,,SKC,0.00,VWS V13.01,2013-04-02 10:38:00,
2013-04-02 06:39:00,27.4,18.2,29.79,NW,323,2.0,3.0,68,0.00,,SKC,0.00,VWS V13.01,2013-04-02 10:39:00,
2013-04-02 06:41:00,27.6,18.1,29.79,NW,322,0.0,3.0,67,0.00,,SKC,0.00,VWS V13.01,2013-04-02 10:41:00,
2013-04-02 06:42:00,27.6,18.1,29.79,NW,323,1.0,3.0,67,0.00,,SKC,0.00,VWS V13.01,2013-04-02 10:42:00,
2013-04-02 06:43:00,27.6,18.4,29.79,NW,323,2.0,3.0,68,0.00,,SKC,0.00,VWS V13.01,2013-04-02 10:43:00,
2013-04-02 06:44:00,27.7,18.2,29.79,NW,323,1.0,3.0,67,0.00,,SKC,0.00,VWS V13.01,2013-04-02 10:44:00,
2013-04-02 06:46:00,27.8,18.3,29.79,NW,322,0.0,3.0,67,0.00,,SKC,0.00,VWS V13.01,2013-04-02 10:46:00,
2013-04-02 06:47:00,27.8,18.3,29.79,NW,323,0.0,3.0,67,0.00,,SKC,0.00,VWS V13.01,2013-04-02 10:47:00,
2013-04-02 06:48:00,27.8,18.3,29.79,NW,322,0.0,3.0,67,0.00,,SKC,0.00,VWS V13.01,2013-04-02 10:48:00,
2013-04-02 06:49:00,27.8,18.3,29.79,NW,322,0.0,3.0,67,0.00,,SKC,0.00,VWS V13.01,2013-04-02 10:49:00,
2013-04-02 06:50:00,27.8,18.3,29.79,NW,322,0.0,3.0,67,0.00,,SKC,0.00,VWS V13.01,2013-04-02 10:50:00,
2013-04-02 06:51:00,27.8,18.3,29.79,NW,322,0.0,3.0,67,0.00,,SKC,0.00,VWS V13.01,2013-04-02 10:51:00,
2013-04-02 06:52:00,27.8,18.3,29.79,NW,323,0.0,3.0,67,0.00,,SKC,0.00,VWS V13.01,2013-04-02 10:52:00,
2013-04-02 06:53:00,27.8,18.3,29.79,NW,323,0.0,3.0,67,0.00,,SKC,0.00,VWS V13.01,2013-04-02 10:53:00,
2013-04-02 06:54:00,27.8,18.3,29.79,NW,322,3.0,3.0,67,0.00,,SKC,0.00,VWS V13.01,2013-04-02 10:54:00,
2013-04-02 06:55:00,27.9,18.4,29.79,NW,323,0.0,3.0,67,0.00,,SKC,0.00,VWS V13.01,2013-04-02 10:55:00,
2013-04-02 06:56:00,27.9,18.4,29.79,NW,323,0.0,3.0,67,0.00,,SKC,0.00,VWS V13.01,2013-04-02 10:56:00,
2013-04-02 06:57:00,27.9,18.4,29.79,NW,323,0.0,3.0,67,0.00,,SKC,0.00,VWS V13.01,2013-04-02 10:57:00,
2013-04-02 06:58:00,27.9,18.4,29.79,NW,322,0.0,3.0,67,0.00,,SKC,0.00,VWS V13.01,2013-04-02 10:58:00,
2013-04-02 06:59:00,27.9,18.4,29.79,NW,322,0.0,3.0,67,0.00,,SKC,0.00,VWS V13.01,2013-04-02 10:59:00,
2013-04-02 07:00:00,27.9,18.4,29.79,NW,323,0.0,3.0,67,0.00,,SKC,0.00,VWS V13.01,2013-04-02 11:00:00,
2013-04-02 07:01:00,27.9,18.4,29.79,NW,323,0.0,0.0,67,0.00,,SKC,0.00,VWS V13.01,2013-04-02 11:01:00,
2013-04-02 07:02:00,27.9,18.4,29.79,NW,323,0.0,0.0,67,0.00,,SKC,0.00,VWS V13.01,2013-04-02 11:02:00,
2013-04-02 07:03:00,27.9,18.4,29.80,NW,322,0.0,0.0,67,0.00,,SKC,0.00,VWS V13.01,2013-04-02 11:03:00,
2013-04-02 07:04:00,27.9,18.4,29.79,NW,323,0.0,0.0,67,0.00,,SKC,0.00,VWS V13.01,2013-04-02 11:04:00,
2013-04-02 07:05:00,28.0,18.5,29.80,NW,322,0.0,0.0,67,0.00,,SKC,0.00,VWS V13.01,2013-04-02 11:05:00,
2013-04-02 07:06:00,28.0,18.8,29.80,NW,323,0.0,1.0,68,0.00,,SKC,0.00,VWS V13.01,2013-04-02 11:06:00,
2013-04-02 07:07:00,28.0,18.8,29.80,NW,322,0.0,1.0,68,0.00,,SKC,0.00,VWS V13.01,2013-04-02 11:07:00,
2013-04-02 07:08:00,28.0,18.8,29.80,NW,323,0.0,2.0,68,0.00,,SKC,0.00,VWS V13.01,2013-04-02 11:08:00,
2013-04-02 07:09:00,28.1,18.9,29.79,NW,323,0.0,2.0,68,0.00,,SKC,0.00,VWS V13.01,2013-04-02 11:09:00,
2013-04-02 07:11:00,28.1,18.9,29.79,NW,323,0.0,2.0,68,0.00,,SKC,0.00,VWS V13.01,2013-04-02 11:11:00,
2013-04-02 07:12:00,28.1,18.9,29.79,NW,322,0.0,2.0,68,0.00,,SKC,0.00,VWS V13.01,2013-04-02 11:12:00,
2013-04-02 07:13:00,28.1,18.6,29.79,NW,322,2.0,2.0,67,0.00,,SKC,0.00,VWS V13.01,2013-04-02 11:13:00,
2013-04-02 07:14:00,28.1,18.6,29.79,NW,323,1.0,2.0,67,0.00,,SKC,0.00,VWS V13.01,2013-04-02 11:14:00,
2013-04-02 07:15:00,28.1,18.2,29.79,NW,323,1.0,2.0,66,0.00,,SKC,0.00,VWS V13.01,2013-04-02 11:15:00,
2013-04-02 07:16:00,28.2,18.3,29.79,NW,323,1.0,3.0,66,0.00,,SKC,0.00,VWS V13.01,2013-04-02 11:16:00,
2013-04-02 07:17:00,28.3,18.4,29.80,NW,323,1.0,3.0,66,0.00,,SKC,0.00,VWS V13.01,2013-04-02 11:17:00,
2013-04-02 07:18:00,28.3,18.4,29.80,NW,322,1.0,3.0,66,0.00,,SKC,0.00,VWS V13.01,2013-04-02 11:18:00,
2013-04-02 07:19:00,28.3,18.4,29.80,NW,322,0.0,3.0,66,0.00,,SKC,0.00,VWS V13.01,2013-04-02 11:19:00,
2013-04-02 07:20:00,28.4,18.5,29.80,NW,322,1.0,3.0,66,0.00,,SKC,0.00,VWS V13.01,2013-04-02 11:20:00,
2013-04-02 07:21:00,28.4,18.5,29.80,NW,321,0.0,3.0,66,0.00,,SKC,0.00,VWS V13.01,2013-04-02 11:21:00,
2013-04-02 07:22:00,28.4,18.5,29.80,NW,322,2.0,3.0,66,0.00,,SKC,0.00,VWS V13.01,2013-04-02 11:22:00,
2013-04-02 07:23:00,28.4,18.5,29.80,NW,322,0.0,3.0,66,0.00,,SKC,0.00,VWS V13.01,2013-04-02 11:23:00,
2013-04-02 07:24:00,28.4,18.5,29.80,NW,322,1.0,3.0,66,0.00,,SKC,0.00,VWS V13.01,2013-04-02 11:24:00,
2013-04-02 07:25:00,28.4,18.5,29.80,NW,322,1.0,3.0,66,0.00,,SKC,0.00,VWS V13.01,2013-04-02 11:25:00,
2013-04-02 07:26:00,28.5,18.6,29.80,NW,322,3.0,3.0,66,0.00,,SKC,0.00,VWS V13.01,2013-04-02 11:26:00,
2013-04-02 07:27:00,28.5,18.2,29.80,NW,322,0.0,3.0,65,0.00,,SKC,0.00,VWS V13.01,2013-04-02 11:27:00,
2013-04-02 07:28:00,28.5,18.2,29.80,NW,321,1.0,3.0,65,0.00,,SKC,0.00,VWS V13.01,2013-04-02 11:28:00,
2013-04-02 07:29:00,28.6,18.3,29.80,NW,321,3.0,3.0,65,0.00,,SKC,0.00,VWS V13.01,2013-04-02 11:29:00,
2013-04-02 07:30:00,28.7,18.4,29.80,WNW,290,4.0,4.0,65,0.00,,SKC,0.00,VWS V13.01,2013-04-02 11:30:00,
2013-04-02 07:31:00,28.7,17.7,29.80,WSW,257,2.0,5.0,63,0.00,,SKC,0.00,VWS V13.01,2013-04-02 11:31:00,
2013-04-02 07:32:00,28.8,17.8,29.80,West,259,2.0,5.0,63,0.00,,SKC,0.00,VWS V13.01,2013-04-02 11:32:00,
2013-04-02 07:33:00,28.8,17.8,29.80,West,259,1.0,5.0,63,0.00,,SKC,0.00,VWS V13.01,2013-04-02 11:33:00,
2013-04-02 07:34:00,28.8,17.8,29.80,SW,234,0.0,5.0,63,0.00,,SKC,0.00,VWS V13.01,2013-04-02 11:34:00,
2013-04-02 07:35:00,28.8,17.1,29.80,WSW,250,0.0,5.0,61,0.00,,SKC,0.00,VWS V13.01,2013-04-02 11:35:00,
2013-04-02 07:36:00,28.8,17.4,29.80,WSW,250,1.0,5.0,62,0.00,,SKC,0.00,VWS V13.01,2013-04-02 11:36:00,
2013-04-02 07:37:00,28.9,17.2,29.80,West,267,2.0,5.0,61,0.00,,SKC,0.00,VWS V13.01,2013-04-02 11:37:00,
2013-04-02 07:38:00,28.9,17.2,29.80,WSW,238,3.0,5.0,61,0.00,,SKC,0.00,VWS V13.01,2013-04-02 11:38:00,
2013-04-02 07:39:00,29.0,17.6,29.80,WSW,241,1.0,5.0,62,0.00,,SKC,0.00,VWS V13.01,2013-04-02 11:39:00,
2013-04-02 07:41:00,29.0,16.9,29.80,NW,310,2.0,5.0,60,0.00,,SKC,0.00,VWS V13.01,2013-04-02 11:41:00,
2013-04-02 07:42:00,29.0,16.9,29.80,NW,309,0.0,5.0,60,0.00,,SKC,0.00,VWS V13.01,2013-04-02 11:42:00,
2013-04-02 07:43:00,29.0,16.9,29.80,NW,313,2.0,5.0,60,0.00,,SKC,0.00,VWS V13.01,2013-04-02 11:43:00,
2013-04-02 07:44:00,29.0,17.2,29.80,NNW,346,6.0,7.0,61,0.00,,SKC,0.00,VWS V13.01,2013-04-02 11:44:00,
2013-04-02 07:46:00,29.1,16.6,29.80,NW,325,1.0,7.0,59,0.00,,SKC,0.00,VWS V13.01,2013-04-02 11:46:00,
2013-04-02 07:47:00,29.1,17.0,29.80,NW,311,0.0,7.0,60,0.00,,SKC,0.00,VWS V13.01,2013-04-02 11:47:00,
2013-04-02 07:48:00,29.1,16.6,29.80,North,355,6.0,7.0,59,0.00,,SKC,0.00,VWS V13.01,2013-04-02 11:48:00,
2013-04-02 07:49:00,29.1,16.6,29.80,North,351,2.0,7.0,59,0.00,,SKC,0.00,VWS V13.01,2013-04-02 11:49:00,
2013-04-02 07:50:00,29.2,16.7,29.80,NNW,348,3.0,7.0,59,0.00,,SKC,0.00,VWS V13.01,2013-04-02 11:50:00,
2013-04-02 07:51:00,29.2,16.7,29.80,WNW,297,1.0,7.0,59,0.00,,SKC,0.00,VWS V13.01,2013-04-02 11:51:00,
2013-04-02 07:52:00,29.2,16.7,29.80,NNE,19,2.0,7.0,59,0.00,,SKC,0.00,VWS V13.01,2013-04-02 11:52:00,
2013-04-02 07:53:00,29.2,16.7,29.80,NNE,13,4.0,7.0,59,0.00,,SKC,0.00,VWS V13.01,2013-04-02 11:53:00,
2013-04-02 07:54:00,29.2,16.7,29.80,NNE,13,2.0,7.0,59,0.00,,SKC,0.00,VWS V13.01,2013-04-02 11:54:00,
2013-04-02 07:55:00,29.3,17.1,29.80,NW,325,3.0,7.0,60,0.00,,SKC,0.00,VWS V13.01,2013-04-02 11:55:00,
2013-04-02 07:56:00,29.3,17.1,29.80,WNW,296,5.0,7.0,60,0.00,,SKC,0.00,VWS V13.01,2013-04-02 11:56:00,
2013-04-02 07:57:00,29.4,17.2,29.80,WNW,291,4.0,7.0,60,0.00,,SKC,0.00,VWS V13.01,2013-04-02 11:57:00,
2013-04-02 07:58:00,29.4,16.9,29.80,WNW,291,0.0,7.0,59,0.00,,SKC,0.00,VWS V13.01,2013-04-02 11:58:00,
2013-04-02 07:59:00,29.5,17.0,29.80,WNW,288,3.0,7.0,59,0.00,,SKC,0.00,VWS V13.01,2013-04-02 11:59:00,
2013-04-02 08:00:00,29.5,16.6,29.80,WNW,286,1.0,7.0,58,0.00,,SKC,0.00,VWS V13.01,2013-04-02 12:00:00,
2013-04-02 08:01:00,29.5,17.0,29.80,NNW,333,4.0,6.0,59,0.00,,SKC,0.00,VWS V13.01,2013-04-02 12:01:00,
2013-04-02 08:02:00,29.5,16.6,29.80,NNW,344,4.0,6.0,58,0.00,,SKC,0.00,VWS V13.01,2013-04-02 12:02:00,
2013-04-02 08:03:00,29.6,16.6,29.80,North,9,4.0,7.0,58,0.00,,SKC,0.00,VWS V13.01,2013-04-02 12:03:00,
2013-04-02 08:04:00,29.5,16.2,29.80,North,5,2.0,7.0,57,0.00,,SKC,0.00,VWS V13.01,2013-04-02 12:04:00,
2013-04-02 08:06:00,29.5,16.2,29.80,NNE,17,3.0,7.0,57,0.00,,SKC,0.00,VWS V13.01,2013-04-02 12:06:00,
2013-04-02 08:07:00,29.5,16.2,29.80,NNE,17,4.0,7.0,57,0.00,,SKC,0.00,VWS V13.01,2013-04-02 12:07:00,
2013-04-02 08:08:00,29.5,16.6,29.80,North,350,7.0,7.0,58,0.00,,SKC,0.00,VWS V13.01,2013-04-02 12:08:00,
2013-04-02 08:09:00,29.6,16.2,29.80,NNW,346,2.0,7.0,57,0.00,,SKC,0.00,VWS V13.01,2013-04-02 12:09:00,
2013-04-02 08:10:00,29.7,16.8,29.80,NNW,336,4.0,7.0,58,0.00,,SKC,0.00,VWS V13.01,2013-04-02 12:10:00,
2013-04-02 08:11:00,29.7,15.9,29.80,NNW,338,0.0,7.0,56,0.00,,SKC,0.00,VWS V13.01,2013-04-02 12:11:00,
2013-04-02 08:12:00,29.8,16.0,29.80,NNW,338,1.0,7.0,56,0.00,,SKC,0.00,VWS V13.01,2013-04-02 12:12:00,
2013-04-02 08:13:00,29.9,16.5,29.80,NNW,336,1.0,7.0,57,0.00,,SKC,0.00,VWS V13.01,2013-04-02 12:13:00,
2013-04-02 08:14:00,29.9,16.1,29.80,NNW,329,2.0,7.0,56,0.00,,SKC,0.00,VWS V13.01,2013-04-02 12:14:00,
2013-04-02 08:15:00,29.9,16.1,29.80,WNW,300,5.0,7.0,56,0.00,,SKC,0.00,VWS V13.01,2013-04-02 12:15:00,
2013-04-02 08:16:00,30.1,16.3,29.80,NNW,333,2.0,7.0,56,0.00,,SKC,0.00,VWS V13.01,2013-04-02 12:16:00,
2013-04-02 08:17:00,30.1,16.3,29.80,NW,324,6.0,7.0,56,0.00,,SKC,0.00,VWS V13.01,2013-04-02 12:17:00,
2013-04-02 08:18:00,30.1,15.9,29.80,NNW,327,2.0,7.0,55,0.00,,SKC,0.00,VWS V13.01,2013-04-02 12:18:00,
2013-04-02 08:19:00,30.1,16.3,29.80,NNW,329,0.0,7.0,56,0.00,,SKC,0.00,VWS V13.01,2013-04-02 12:19:00,
2013-04-02 08:21:00,30.3,16.9,29.80,WNW,299,3.0,7.0,57,0.00,,SKC,0.00,VWS V13.01,2013-04-02 12:21:00,
2013-04-02 08:22:00,30.3,16.5,29.80,WSW,245,2.0,9.0,56,0.00,,SKC,0.00,VWS V13.01,2013-04-02 12:22:00,
2013-04-02 08:23:00,30.3,16.5,29.80,NNW,329,2.0,9.0,56,0.00,,SKC,0.00,VWS V13.01,2013-04-02 12:23:00,
2013-04-02 08:24:00,30.4,16.6,29.80,NNW,328,2.0,9.0,56,0.00,,SKC,0.00,VWS V13.01,2013-04-02 12:24:00,
2013-04-02 08:25:00,30.5,16.3,29.80,WNW,296,3.0,9.0,55,0.00,,SKC,0.00,VWS V13.01,2013-04-02 12:25:00,
2013-04-02 08:26:00,30.5,16.7,29.80,WNW,302,0.0,9.0,56,0.00,,SKC,0.00,VWS V13.01,2013-04-02 12:26:00,
2013-04-02 08:27:00,30.6,16.8,29.80,WNW,292,2.0,9.0,56,0.00,,SKC,0.00,VWS V13.01,2013-04-02 12:27:00,
2013-04-02 08:28:00,30.7,16.9,29.80,WSW,238,5.0,9.0,56,0.00,,SKC,0.00,VWS V13.01,2013-04-02 12:28:00,
2013-04-02 08:29:00,30.7,16.5,29.80,NW,321,6.0,10.0,55,0.00,,SKC,0.00,VWS V13.01,2013-04-02 12:29:00,
2013-04-02 08:30:00,30.6,16.4,29.80,WNW,291,2.0,10.0,55,0.00,,SKC,0.00,VWS V13.01,2013-04-02 12:30:00,
2013-04-02 08:31:00,30.7,16.5,29.80,West,267,4.0,4.0,55,0.00,,SKC,0.00,VWS V13.01,2013-04-02 12:31:00,
2013-04-02 08:32:00,30.6,15.5,29.80,WNW,302,0.0,6.0,53,0.00,,SKC,0.00,VWS V13.01,2013-04-02 12:32:00,
2013-04-02 08:33:00,30.6,15.9,29.80,NW,313,4.0,6.0,54,0.00,,SKC,0.00,VWS V13.01,2013-04-02 12:33:00,
2013-04-02 08:34:00,30.7,16.0,29.80,NW,310,1.0,6.0,54,0.00,,SKC,0.00,VWS V13.01,2013-04-02 12:34:00,
2013-04-02 08:35:00,30.8,16.1,29.80,WNW,299,3.0,6.0,54,0.00,,SKC,0.00,VWS V13.01,2013-04-02 12:35:00,
2013-04-02 08:36:00,30.8,15.7,29.80,WSW,247,3.0,6.0,53,0.00,,SKC,0.00,VWS V13.01,2013-04-02 12:36:00,
2013-04-02 08:37:00,30.8,16.1,29.80,SSW,194,2.0,7.0,54,0.00,,SKC,0.00,VWS V13.01,2013-04-02 12:37:00,
2013-04-02 08:38:00,30.8,16.1,29.80,SW,236,4.0,7.0,54,0.00,,SKC,0.00,VWS V13.01,2013-04-02 12:38:00,
2013-04-02 08:39:00,30.8,16.1,29.80,WSW,242,2.0,7.0,54,0.00,,SKC,0.00,VWS V13.01,2013-04-02 12:39:00,
2013-04-02 08:41:00,30.8,16.5,29.80,WSW,248,0.0,7.0,55,0.00,,SKC,0.00,VWS V13.01,2013-04-02 12:41:00,
2013-04-02 08:42:00,30.8,16.5,29.80,WSW,248,3.0,7.0,55,0.00,,SKC,0.00,VWS V13.01,2013-04-02 12:42:00,
2013-04-02 08:43:00,30.8,16.1,29.80,West,262,4.0,7.0,54,0.00,,SKC,0.00,VWS V13.01,2013-04-02 12:43:00,
2013-04-02 08:44:00,30.8,15.3,29.80,SW,228,4.0,7.0,52,0.00,,SKC,0.00,VWS V13.01,2013-04-02 12:44:00,
2013-04-02 08:45:00,30.9,15.4,29.80,SSW,213,3.0,7.0,52,0.00,,SKC,0.00,VWS V13.01,2013-04-02 12:45:00,
2013-04-02 08:46:00,30.9,15.4,29.80,SW,226,4.0,7.0,52,0.00,,SKC,0.00,VWS V13.01,2013-04-02 12:46:00,
2013-04-02 08:47:00,30.9,15.4,29.80,SW,226,1.0,7.0,52,0.00,,SKC,0.00,VWS V13.01,2013-04-02 12:47:00,
2013-04-02 08:48:00,31.0,15.4,29.80,West,263,0.0,7.0,52,0.00,,SKC,0.00,VWS V13.01,2013-04-02 12:48:00,
2013-04-02 08:49:00,31.1,15.5,29.80,SSW,195,9.0,12.0,52,0.00,,SKC,0.00,VWS V13.01,2013-04-02 12:49:00,
2013-04-02 08:51:00,31.0,14.6,29.80,NNW,344,4.0,12.0,50,0.00,,SKC,0.00,VWS V13.01,2013-04-02 12:51:00,
2013-04-02 08:52:00,31.0,15.0,29.80,WSW,246,5.0,12.0,51,0.00,,SKC,0.00,VWS V13.01,2013-04-02 12:52:00,
2013-04-02 08:53:00,31.0,14.6,29.80,WSW,252,3.0,12.0,50,0.00,,SKC,0.00,VWS V13.01,2013-04-02 12:53:00,
2013-04-02 08:54:00,31.0,14.6,29.80,WNW,290,6.0,12.0,50,0.00,,SKC,0.00,VWS V13.01,2013-04-02 12:54:00,
2013-04-02 08:56:00,31.2,14.3,29.81,North,360,2.0,12.0,49,0.00,,SKC,0.00,VWS V13.01,2013-04-02 12:56:00,
2013-04-02 08:57:00,31.4,14.5,29.81,NW,318,2.0,12.0,49,0.00,,SKC,0.00,VWS V13.01,2013-04-02 12:57:00,
2013-04-02 08:58:00,31.5,14.1,29.80,West,279,4.0,12.0,48,0.00,,SKC,0.00,VWS V13.01,2013-04-02 12:58:00,
2013-04-02 08:59:00,31.7,14.3,29.80,NNW,344,9.0,12.0,48,0.00,,SKC,0.00,VWS V13.01,2013-04-02 12:59:00,
2013-04-02 09:00:00,31.8,14.4,29.80,NW,306,1.0,12.0,48,0.00,,SKC,0.00,VWS V13.01,2013-04-02 13:00:00,
2013-04-02 09:01:00,31.9,14.4,29.80,WSW,252,3.0,6.0,48,0.00,,SKC,0.00,VWS V13.01,2013-04-02 13:01:00,
2013-04-02 09:02:00,31.9,14.4,29.80,West,271,4.0,6.0,48,0.00,,SKC,0.00,VWS V13.01,2013-04-02 13:02:00,
2013-04-02 09:03:00,31.9,14.4,29.80,WSW,244,0.0,7.0,48,0.00,,SKC,0.00,VWS V13.01,2013-04-02 13:03:00,
2013-04-02 09:04:00,32.0,15.0,29.80,WSW,241,5.0,7.0,49,0.00,,SKC,0.00,VWS V13.01,2013-04-02 13:04:00,
2013-04-02 09:05:00,32.1,15.6,29.80,WSW,239,2.0,11.0,50,0.00,,SKC,0.00,VWS V13.01,2013-04-02 13:05:00,
2013-04-02 09:06:00,32.1,15.1,29.80,NNW,332,9.0,11.0,49,0.00,,SKC,0.00,VWS V13.01,2013-04-02 13:06:00,
2013-04-02 09:07:00,32.1,14.6,29.80,NE,38,4.0,11.0,48,0.00,,SKC,0.00,VWS V13.01,2013-04-02 13:07:00,
2013-04-02 09:08:00,32.1,14.2,29.80,NW,304,4.0,11.0,47,0.00,,SKC,0.00,VWS V13.01,2013-04-02 13:08:00,
2013-04-02 09:09:00,32.1,14.2,29.80,WSW,241,4.0,11.0,47,0.00,,SKC,0.00,VWS V13.01,2013-04-02 13:09:00,
2013-04-02 09:10:00,32.0,14.6,29.80,West,259,4.0,11.0,48,0.00,,SKC,0.00,VWS V13.01,2013-04-02 13:10:00,
2013-04-02 09:11:00,32.0,13.6,29.80,WNW,302,3.0,11.0,46,0.00,,SKC,0.00,VWS V13.01,2013-04-02 13:11:00,
2013-04-02 09:12:00,32.0,14.1,29.79,NNW,344,7.0,11.0,47,0.00,,SKC,0.00,VWS V13.01,2013-04-02 13:12:00,
2013-04-02 09:13:00,32.0,14.1,29.79,NW,323,4.0,11.0,47,0.00,,SKC,0.00,VWS V13.01,2013-04-02 13:13:00,
2013-04-02 09:14:00,32.0,14.1,29.79,NW,321,1.0,11.0,47,0.00,,SKC,0.00,VWS V13.01,2013-04-02 13:14:00,
2013-04-02 09:15:00,32.1,14.6,29.80,NNW,338,3.0,11.0,48,0.00,,SKC,0.00,VWS V13.01,2013-04-02 13:15:00,
2013-04-02 09:16:00,32.0,15.0,29.80,WNW,286,3.0,12.0,49,0.00,,SKC,0.00,VWS V13.01,2013-04-02 13:16:00,
2013-04-02 09:17:00,31.9,14.9,29.80,NW,310,6.0,12.0,49,0.00,,SKC,0.00,VWS V13.01,2013-04-02 13:17:00,
2013-04-02 09:18:00,31.9,14.9,29.80,NNW,329,6.0,12.0,49,0.00,,SKC,0.00,VWS V13.01,2013-04-02 13:18:00,
2013-04-02 09:19:00,31.9,14.0,29.80,WSW,249,3.0,12.0,47,0.00,,SKC,0.00,VWS V13.01,2013-04-02 13:19:00,
2013-04-02 09:21:00,31.9,14.9,29.80,West,277,11.0,12.0,49,0.00,,SKC,0.00,VWS V13.01,2013-04-02 13:21:00,
2013-04-02 09:22:00,32.0,14.6,29.80,WNW,292,2.0,14.0,48,0.00,,SKC,0.00,VWS V13.01,2013-04-02 13:22:00,
2013-04-02 09:23:00,32.0,15.0,29.80,SSW,194,1.0,14.0,49,0.00,,SKC,0.00,VWS V13.01,2013-04-02 13:23:00,
2013-04-02 09:24:00,32.0,15.0,29.80,WSW,251,3.0,14.0,49,0.00,,SKC,0.00,VWS V13.01,2013-04-02 13:24:00,
2013-04-02 09:26:00,31.9,14.0,29.80,SSE,164,4.0,14.0,47,0.00,,SKC,0.00,VWS V13.01,2013-04-02 13:26:00,
2013-04-02 09:27:00,31.8,13.4,29.80,WSW,257,3.0,14.0,46,0.00,,SKC,0.00,VWS V13.01,2013-04-02 13:27:00,
2013-04-02 09:28:00,31.7,12.8,29.80,SW,232,2.0,14.0,45,0.00,,SKC,0.00,VWS V13.01,2013-04-02 13:28:00,
2013-04-02 09:29:00,31.6,13.2,29.80,WNW,299,6.0,14.0,46,0.00,,SKC,0.00,VWS V13.01,2013-04-02 13:29:00,
2013-04-02 09:30:00,31.6,13.7,29.80,NNW,334,1.0,14.0,47,0.00,,SKC,0.00,VWS V13.01,2013-04-02 13:30:00,
2013-04-02 09:31:00,31.6,14.2,29.80,SW,219,8.0,8.0,48,0.00,,SKC,0.00,VWS V13.01,2013-04-02 13:31:00,
2013-04-02 09:32:00,31.5,13.6,29.80,SW,218,3.0,10.0,47,0.00,,SKC,0.00,VWS V13.01,2013-04-02 13:32:00,
2013-04-02 09:33:00,31.5,14.6,29.80,SW,218,5.0,10.0,49,0.00,,SKC,0.00,VWS V13.01,2013-04-02 13:33:00,
2013-04-02 09:34:00,31.6,14.2,29.80,WSW,242,9.0,10.0,48,0.00,,SKC,0.00,VWS V13.01,2013-04-02 13:34:00,
2013-04-02 09:35:00,31.7,13.8,29.80,WNW,286,0.0,10.0,47,0.00,,SKC,0.00,VWS V13.01,2013-04-02 13:35:00,
2013-04-02 09:36:00,31.7,14.3,29.80,NW,305,1.0,10.0,48,0.00,,SKC,0.00,VWS V13.01,2013-04-02 13:36:00,
2013-04-02 09:37:00,31.9,14.4,29.80,WSW,253,3.0,10.0,48,0.00,,SKC,0.00,VWS V13.01,2013-04-02 13:37:00,
2013-04-02 09:38:00,32.0,14.6,29.80,West,269,4.0,10.0,48,0.00,,SKC,0.00,VWS V13.01,2013-04-02 13:38:00,
2013-04-02 09:39:00,32.1,14.6,29.80,NNW,337,4.0,11.0,48,0.00,,SKC,0.00,VWS V13.01,2013-04-02 13:39:00,
2013-04-02 09:40:00,32.2,13.8,29.80,West,263,1.0,11.0,46,0.00,,SKC,0.00,VWS V13.01,2013-04-02 13:40:00,
2013-04-02 09:41:00,32.1,13.2,29.80,NNW,331,4.0,11.0,45,0.00,,SKC,0.00,VWS V13.01,2013-04-02 13:41:00,
2013-04-02 09:42:00,32.1,13.2,29.80,NW,326,5.0,11.0,45,0.00,,SKC,0.00,VWS V13.01,2013-04-02 13:42:00,
2013-04-02 09:43:00,32.0,12.6,29.80,NW,306,4.0,11.0,44,0.00,,SKC,0.00,VWS V13.01,2013-04-02 13:43:00,
2013-04-02 09:44:00,31.9,12.5,29.80,WNW,288,1.0,11.0,44,0.00,,SKC,0.00,VWS V13.01,2013-04-02 13:44:00,
2013-04-02 09:45:00,31.9,13.0,29.80,WNW,286,9.0,12.0,45,0.00,,SKC,0.00,VWS V13.01,2013-04-02 13:45:00,
2013-04-02 09:46:00,32.1,14.2,29.80,SSW,212,2.0,12.0,47,0.00,,SKC,0.00,VWS V13.01,2013-04-02 13:46:00,
2013-04-02 09:47:00,32.2,13.3,29.80,SW,230,4.0,12.0,45,0.00,,SKC,0.00,VWS V13.01,2013-04-02 13:47:00,
2013-04-02 09:48:00,32.3,13.4,29.80,WSW,248,2.0,12.0,45,0.00,,SKC,0.00,VWS V13.01,2013-04-02 13:48:00,
2013-04-02 09:49:00,32.5,15.0,29.80,WSW,244,2.0,12.0,48,0.00,,SKC,0.00,VWS V13.01,2013-04-02 13:49:00,
2013-04-02 09:51:00,32.6,13.6,29.80,West,270,3.0,12.0,45,0.00,,SKC,0.00,VWS V13.01,2013-04-02 13:51:00,
2013-04-02 09:52:00,32.6,13.6,29.80,West,277,5.0,12.0,45,0.00,,SKC,0.00,VWS V13.01,2013-04-02 13:52:00,
2013-04-02 09:53:00,32.7,13.2,29.80,North,349,7.0,12.0,44,0.00,,SKC,0.00,VWS V13.01,2013-04-02 13:53:00,
2013-04-02 09:54:00,32.7,12.7,29.80,NW,325,3.0,13.0,43,0.00,,SKC,0.00,VWS V13.01,2013-04-02 13:54:00,
2013-04-02 09:56:00,32.5,13.5,29.80,NNW,329,7.0,13.0,45,0.00,,SKC,0.00,VWS V13.01,2013-04-02 13:56:00,
2013-04-02 09:57:00,32.5,13.0,29.80,SW,234,5.0,13.0,44,0.00,,SKC,0.00,VWS V13.01,2013-04-02 13:57:00,
2013-04-02 09:58:00,32.3,12.3,29.80,West,261,3.0,14.0,43,0.00,,SKC,0.00,VWS V13.01,2013-04-02 13:58:00,
2013-04-02 09:59:00,32.3,12.8,29.80,South,188,5.0,14.0,44,0.00,,SKC,0.00,VWS V13.01,2013-04-02 13:59:00,
2013-04-02 10:00:00,32.4,12.9,29.80,WNW,299,6.0,14.0,44,0.00,,SKC,0.00,VWS V13.01,2013-04-02 14:00:00,
2013-04-02 10:01:00,32.4,12.9,29.80,WNW,292,2.0,6.0,44,0.00,,SKC,0.00,VWS V13.01,2013-04-02 14:01:00,
2013-04-02 10:02:00,32.6,14.1,29.80,WNW,297,4.0,6.0,46,0.00,,SKC,0.00,VWS V13.01,2013-04-02 14:02:00,
2013-04-02 10:03:00,32.7,14.2,29.80,WSW,237,2.0,6.0,46,0.00,,SKC,0.00,VWS V13.01,2013-04-02 14:03:00,
2013-04-02 10:04:00,32.8,14.8,29.80,West,269,1.0,6.0,47,0.00,,SKC,0.00,VWS V13.01,2013-04-02 14:04:00,
2013-04-02 10:05:00,32.9,14.9,29.80,NW,315,14.0,14.0,47,0.00,,SKC,0.00,VWS V13.01,2013-04-02 14:05:00,
2013-04-02 10:06:00,32.9,14.4,29.80,WNW,284,4.0,14.0,46,0.00,,SKC,0.00,VWS V13.01,2013-04-02 14:06:00,
2013-04-02 10:07:00,33.0,14.5,29.80,WNW,282,0.0,14.0,46,0.00,,SKC,0.00,VWS V13.01,2013-04-02 14:07:00,
2013-04-02 10:08:00,33.1,13.6,29.80,NNW,342,5.0,14.0,44,0.00,,SKC,0.00,VWS V13.01,2013-04-02 14:08:00,
2013-04-02 10:09:00,33.2,13.7,29.80,NNW,340,5.0,14.0,44,0.00,,SKC,0.00,VWS V13.01,2013-04-02 14:09:00,
2013-04-02 10:10:00,33.4,13.3,29.80,SW,223,6.0,14.0,43,0.00,,SKC,0.00,VWS V13.01,2013-04-02 14:10:00,
2013-04-02 10:11:00,33.4,12.8,29.80,North,349,4.0,14.0,42,0.00,,SKC,0.00,VWS V13.01,2013-04-02 14:11:00,
2013-04-02 10:12:00,33.3,13.2,29.80,NW,309,5.0,14.0,43,0.00,,SKC,0.00,VWS V13.01,2013-04-02 14:12:00,
2013-04-02 10:13:00,33.2,12.6,29.80,South,185,4.0,14.0,42,0.00,,SKC,0.00,VWS V13.01,2013-04-02 14:13:00,
2013-04-02 10:14:00,33.1,13.1,29.80,WNW,287,10.0,14.0,43,0.00,,SKC,0.00,VWS V13.01,2013-04-02 14:14:00,
2013-04-02 10:15:00,32.9,12.3,29.80,WSW,253,2.0,14.0,42,0.00,,SKC,0.00,VWS V13.01,2013-04-02 14:15:00,
2013-04-02 10:16:00,32.7,13.2,29.80,NW,305,4.0,14.0,44,0.00,,SKC,0.00,VWS V13.01,2013-04-02 14:16:00,
2013-04-02 10:17:00,32.7,13.2,29.80,WSW,252,4.0,14.0,44,0.00,,SKC,0.00,VWS V13.01,2013-04-02 14:17:00,
2013-04-02 10:18:00,32.8,13.3,29.80,North,360,1.0,14.0,44,0.00,,SKC,0.00,VWS V13.01,2013-04-02 14:18:00,
2013-04-02 10:19:00,32.9,13.9,29.80,NW,315,9.0,14.0,45,0.00,,SKC,0.00,VWS V13.01,2013-04-02 14:19:00,
2013-04-02 10:20:00,33.1,14.6,29.80,NNW,333,5.0,14.0,46,0.00,,SKC,0.00,VWS V13.01,2013-04-02 14:20:00,
2013-04-02 10:21:00,33.2,13.7,29.80,NW,307,3.0,14.0,44,0.00,,SKC,0.00,VWS V13.01,2013-04-02 14:21:00,
2013-04-02 10:22:00,33.2,13.7,29.80,NW,313,3.0,14.0,44,0.00,,SKC,0.00,VWS V13.01,2013-04-02 14:22:00,
2013-04-02 10:23:00,33.3,13.2,29.80,NW,320,1.0,14.0,43,0.00,,SKC,0.00,VWS V13.01,2013-04-02 14:23:00,
2013-04-02 10:24:00,33.4,13.3,29.80,NW,322,4.0,14.0,43,0.00,,SKC,0.00,VWS V13.01,2013-04-02 14:24:00,
2013-04-02 10:25:00,33.4,13.9,29.80,NNE,23,5.0,14.0,44,0.00,,SKC,0.00,VWS V13.01,2013-04-02 14:25:00,
2013-04-02 10:26:00,33.3,13.2,29.80,West,271,3.0,14.0,43,0.00,,SKC,0.00,VWS V13.01,2013-04-02 14:26:00,
2013-04-02 10:27:00,33.3,13.2,29.80,West,278,3.0,14.0,43,0.00,,SKC,0.00,VWS V13.01,2013-04-02 14:27:00,
2013-04-02 10:28:00,33.3,13.8,29.80,SW,222,3.0,14.0,44,0.00,,SKC,0.00,VWS V13.01,2013-04-02 14:28:00,
2013-04-02 10:29:00,33.3,14.3,29.80,NNW,328,3.0,14.0,45,0.00,,SKC,0.00,VWS V13.01,2013-04-02 14:29:00,
2013-04-02 10:31:00,33.5,14.9,29.80,NW,319,7.0,7.0,46,0.00,,SKC,0.00,VWS V13.01,2013-04-02 14:31:00,
2013-04-02 10:32:00,33.5,15.4,29.80,West,269,10.0,10.0,47,0.00,,SKC,0.00,VWS V13.01,2013-04-02 14:32:00,
2013-04-02 10:33:00,33.6,15.5,29.80,SW,225,5.0,10.0,47,0.00,,SKC,0.00,VWS V13.01,2013-04-02 14:33:00,
2013-04-02 10:34:00,33.6,15.5,29.80,NW,309,6.0,10.0,47,0.00,,SKC,0.00,VWS V13.01,2013-04-02 14:34:00,
2013-04-02 10:35:00,33.6,15.0,29.80,NE,34,5.0,10.0,46,0.00,,SKC,0.00,VWS V13.01,2013-04-02 14:35:00,
2013-04-02 10:36:00,33.7,14.6,29.80,NNW,331,9.0,12.0,45,0.00,,SKC,0.00,VWS V13.01,2013-04-02 14:36:00,
2013-04-02 10:37:00,33.8,14.2,29.80,SW,217,7.0,17.0,44,0.00,,SKC,0.00,VWS V13.01,2013-04-02 14:37:00,
2013-04-02 10:38:00,33.7,14.1,29.80,NNE,26,5.0,17.0,44,0.00,,SKC,0.00,VWS V13.01,2013-04-02 14:38:00,
2013-04-02 10:39:00,33.6,14.5,29.80,West,259,12.0,17.0,45,0.00,,SKC,0.00,VWS V13.01,2013-04-02 14:39:00,
2013-04-02 10:40:00,33.4,13.3,29.80,West,267,11.0,17.0,43,0.00,,SKC,0.00,VWS V13.01,2013-04-02 14:40:00,
2013-04-02 10:41:00,33.1,12.5,29.80,SSW,199,2.0,17.0,42,0.00,,SKC,0.00,VWS V13.01,2013-04-02 14:41:00,
2013-04-02 10:42:00,33.0,12.4,29.80,SW,227,3.0,17.0,42,0.00,,SKC,0.00,VWS V13.01,2013-04-02 14:42:00,
2013-04-02 10:43:00,32.8,12.8,29.80,WSW,237,3.0,17.0,43,0.00,,SKC,0.00,VWS V13.01,2013-04-02 14:43:00,
2013-04-02 10:44:00,32.8,12.8,29.80,WSW,250,9.0,17.0,43,0.00,,SKC,0.00,VWS V13.01,2013-04-02 14:44:00,
2013-04-02 10:46:00,33.0,14.0,29.80,WSW,257,2.0,17.0,45,0.00,,SKC,0.00,VWS V13.01,2013-04-02 14:46:00,
2013-04-02 10:47:00,33.2,15.2,29.80,NW,304,4.0,17.0,47,0.00,,SKC,0.00,VWS V13.01,2013-04-02 14:47:00,
2013-04-02 10:48:00,33.5,14.9,29.80,WSW,238,5.0,17.0,46,0.00,,SKC,0.00,VWS V13.01,2013-04-02 14:48:00,
2013-04-02 10:49:00,33.7,13.6,29.80,SW,225,4.0,17.0,43,0.00,,SKC,0.00,VWS V13.01,2013-04-02 14:49:00,
2013-04-02 10:50:00,33.7,14.1,29.80,NW,309,5.0,17.0,44,0.00,,SKC,0.00,VWS V13.01,2013-04-02 14:50:00,
2013-04-02 10:51:00,33.8,13.7,29.80,South,187,2.0,17.0,43,0.00,,SKC,0.00,VWS V13.01,2013-04-02 14:51:00,
2013-04-02 10:52:00,33.8,14.7,29.80,SW,226,4.0,17.0,45,0.00,,SKC,0.00,VWS V13.01,2013-04-02 14:52:00,
2013-04-02 10:53:00,33.6,13.0,29.80,SW,232,3.0,17.0,42,0.00,,SKC,0.00,VWS V13.01,2013-04-02 14:53:00,
2013-04-02 10:54:00,33.6,14.0,29.80,West,272,6.0,17.0,44,0.00,,SKC,0.00,VWS V13.01,2013-04-02 14:54:00,
2013-04-02 10:56:00,33.7,14.6,29.80,SSW,211,4.0,17.0,45,0.00,,SKC,0.00,VWS V13.01,2013-04-02 14:56:00,
2013-04-02 10:57:00,33.8,14.2,29.80,WNW,294,4.0,17.0,44,0.00,,SKC,0.00,VWS V13.01,2013-04-02 14:57:00,
2013-04-02 10:58:00,33.8,13.1,29.80,South,169,5.0,17.0,42,0.00,,SKC,0.00,VWS V13.01,2013-04-02 14:58:00,
2013-04-02 10:59:00,33.8,13.1,29.80,WNW,298,2.0,17.0,42,0.00,,SKC,0.00,VWS V13.01,2013-04-02 14:59:00,
2013-04-02 11:00:00,33.9,13.8,29.80,SW,222,5.0,17.0,43,0.00,,SKC,0.00,VWS V13.01,2013-04-02 15:00:00,
2013-04-02 11:01:00,34.1,14.5,29.80,West,277,7.0,7.0,44,0.00,,SKC,0.00,VWS V13.01,2013-04-02 15:01:00,
2013-04-02 11:02:00,34.0,13.9,29.80,NNW,328,0.0,9.0,43,0.00,,SKC,0.00,VWS V13.01,2013-04-02 15:02:00,
2013-04-02 11:03:00,34.0,13.3,29.80,West,267,7.0,9.0,42,0.00,,SKC,0.00,VWS V13.01,2013-04-02 15:03:00,
2013-04-02 11:04:00,33.9,13.2,29.80,WSW,241,2.0,13.0,42,0.00,,SKC,0.00,VWS V13.01,2013-04-02 15:04:00,
2013-04-02 11:05:00,33.8,13.7,29.80,NW,304,5.0,16.0,43,0.00,,SKC,0.00,VWS V13.01,2013-04-02 15:05:00,
2013-04-02 11:06:00,33.7,13.1,29.80,SW,221,2.0,16.0,42,0.00,,SKC,0.00,VWS V13.01,2013-04-02 15:06:00,
2013-04-02 11:07:00,33.7,12.5,29.80,West,280,8.0,16.0,41,0.00,,SKC,0.00,VWS V13.01,2013-04-02 15:07:00,
2013-04-02 11:08:00,33.6,13.0,29.80,WSW,245,9.0,16.0,42,0.00,,SKC,0.00,VWS V13.01,2013-04-02 15:08:00,
2013-04-02 11:09:00,33.7,13.1,29.79,WNW,288,3.0,16.0,42,0.00,,SKC,0.00,VWS V13.01,2013-04-02 15:09:00,
2013-04-02 11:11:00,34.0,13.9,29.79,NW,314,10.0,16.0,43,0.00,,SKC,0.00,VWS V13.01,2013-04-02 15:11:00,
2013-04-02 11:12:00,34.2,13.5,29.79,NW,314,6.0,16.0,42,0.00,,SKC,0.00,VWS V13.01,2013-04-02 15:12:00,
2013-04-02 11:13:00,34.3,14.1,29.79,North,360,6.0,16.0,43,0.00,,SKC,0.00,VWS V13.01,2013-04-02 15:13:00,
2013-04-02 11:14:00,34.4,15.3,29.80,NNW,341,2.0,16.0,45,0.00,,SKC,0.00,VWS V13.01,2013-04-02 15:14:00,
2013-04-02 11:16:00,34.4,12.6,29.80,NW,304,3.0,16.0,40,0.00,,SKC,0.00,VWS V13.01,2013-04-02 15:16:00,
2013-04-02 11:17:00,34.4,12.6,29.79,NNW,348,5.0,16.0,40,0.00,,SKC,0.00,VWS V13.01,2013-04-02 15:17:00,
2013-04-02 11:18:00,34.4,12.0,29.79,NW,310,3.0,16.0,39,0.00,,SKC,0.00,VWS V13.01,2013-04-02 15:18:00,
2013-04-02 11:19:00,34.4,12.0,29.79,WNW,303,3.0,16.0,39,0.00,,SKC,0.00,VWS V13.01,2013-04-02 15:19:00,
2013-04-02 11:20:00,34.4,12.6,29.79,WNW,294,8.0,16.0,40,0.00,,SKC,0.00,VWS V13.01,2013-04-02 15:20:00,
2013-04-02 11:21:00,34.4,13.1,29.80,WSW,257,3.0,16.0,41,0.00,,SKC,0.00,VWS V13.01,2013-04-02 15:21:00,
2013-04-02 11:22:00,34.3,13.1,29.80,WNW,300,6.0,16.0,41,0.00,,SKC,0.00,VWS V13.01,2013-04-02 15:22:00,
2013-04-02 11:23:00,34.4,13.1,29.80,WSW,242,2.0,16.0,41,0.00,,SKC,0.00,VWS V13.01,2013-04-02 15:23:00,
2013-04-02 11:24:00,34.4,13.1,29.79,NNE,19,2.0,16.0,41,0.00,,SKC,0.00,VWS V13.01,2013-04-02 15:24:00,
2013-04-02 11:26:00,34.4,13.7,29.79,WNW,300,7.0,16.0,42,0.00,,SKC,0.00,VWS V13.01,2013-04-02 15:26:00,
2013-04-02 11:27:00,34.3,13.1,29.79,WSW,241,3.0,16.0,41,0.00,,SKC,0.00,VWS V13.01,2013-04-02 15:27:00,
2013-04-02 11:28:00,34.2,13.5,29.79,WSW,247,8.0,16.0,42,0.00,,SKC,0.00,VWS V13.01,2013-04-02 15:28:00,
2013-04-02 11:29:00,34.2,13.0,29.79,SW,232,5.0,16.0,41,0.00,,SKC,0.00,VWS V13.01,2013-04-02 15:29:00,
2013-04-02 11:30:00,34.1,13.4,29.79,ENE,63,5.0,16.0,42,0.00,,SKC,0.00,VWS V13.01,2013-04-02 15:30:00,
2013-04-02 11:31:00,34.2,14.1,29.79,WSW,238,6.0,12.0,43,0.00,,SKC,0.00,VWS V13.01,2013-04-02 15:31:00,
2013-04-02 11:32:00,34.2,14.1,29.79,WSW,242,6.0,12.0,43,0.00,,SKC,0.00,VWS V13.01,2013-04-02 15:32:00,
2013-04-02 11:33:00,34.3,14.1,29.79,West,267,3.0,13.0,43,0.00,,SKC,0.00,VWS V13.01,2013-04-02 15:33:00,
2013-04-02 11:34:00,34.3,14.1,29.79,West,270,6.0,13.0,43,0.00,,SKC,0.00,VWS V13.01,2013-04-02 15:34:00,
2013-04-02 11:36:00,34.4,14.2,29.79,NW,326,3.0,13.0,43,0.00,,SKC,0.00,VWS V13.01,2013-04-02 15:36:00,
2013-04-02 11:37:00,34.6,13.9,29.79,West,259,5.0,13.0,42,0.00,,SKC,0.00,VWS V13.01,2013-04-02 15:37:00,
2013-04-02 11:38:00,34.8,14.6,29.79,WSW,256,6.0,13.0,43,0.00,,SKC,0.00,VWS V13.01,2013-04-02 15:38:00,
2013-04-02 11:39:00,35.0,14.8,29.79,NW,304,6.0,13.0,43,0.00,,SKC,0.00,VWS V13.01,2013-04-02 15:39:00,
2013-04-02 11:40:00,35.1,13.8,29.79,West,279,4.0,13.0,41,0.00,,SKC,0.00,VWS V13.01,2013-04-02 15:40:00,
2013-04-02 11:41:00,35.2,13.9,29.79,SW,221,7.0,13.0,41,0.00,,SKC,0.00,VWS V13.01,2013-04-02 15:41:00,
2013-04-02 11:42:00,35.0,13.1,29.79,WSW,248,7.0,13.0,40,0.00,,SKC,0.00,VWS V13.01,2013-04-02 15:42:00,
2013-04-02 11:43:00,34.8,12.9,29.79,SW,234,6.0,13.0,40,0.00,,SKC,0.00,VWS V13.01,2013-04-02 15:43:00,
2013-04-02 11:44:00,34.6,12.8,29.79,WNW,282,5.0,13.0,40,0.00,,SKC,0.00,VWS V13.01,2013-04-02 15:44:00,
2013-04-02 11:45:00,34.6,13.3,29.79,West,278,6.0,13.0,41,0.00,,SKC,0.00,VWS V13.01,2013-04-02 15:45:00,
2013-04-02 11:46:00,34.8,14.1,29.79,West,269,5.0,13.0,42,0.00,,SKC,0.00,VWS V13.01,2013-04-02 15:46:00,
2013-04-02 11:47:00,34.8,13.5,29.79,North,9,2.0,13.0,41,0.00,,SKC,0.00,VWS V13.01,2013-04-02 15:47:00,
2013-04-02 11:48:00,34.9,13.6,29.79,NNW,327,2.0,13.0,41,0.00,,SKC,0.00,VWS V13.01,2013-04-02 15:48:00,
2013-04-02 11:49:00,35.0,14.2,29.79,West,277,2.0,13.0,42,0.00,,SKC,0.00,VWS V13.01,2013-04-02 15:49:00,
2013-04-02 11:51:00,35.3,12.8,29.79,West,272,3.0,13.0,39,0.00,,SKC,0.00,VWS V13.01,2013-04-02 15:51:00,
2013-04-02 11:52:00,35.3,12.8,29.79,WSW,247,4.0,13.0,39,0.00,,SKC,0.00,VWS V13.01,2013-04-02 15:52:00,
2013-04-02 11:53:00,35.2,13.3,29.79,NW,325,2.0,13.0,40,0.00,,SKC,0.00,VWS V13.01,2013-04-02 15:53:00,
2013-04-02 11:54:00,35.3,13.4,29.79,WNW,300,1.0,13.0,40,0.00,,SKC,0.00,VWS V13.01,2013-04-02 15:54:00,
2013-04-02 11:55:00,35.3,14.5,29.79,WNW,292,7.0,13.0,42,0.00,,SKC,0.00,VWS V13.01,2013-04-02 15:55:00,
2013-04-02 11:56:00,35.4,14.6,29.79,WNW,302,5.0,13.0,42,0.00,,SKC,0.00,VWS V13.01,2013-04-02 15:56:00,
2013-04-02 11:57:00,35.3,12.8,29.79,SSW,205,5.0,13.0,39,0.00,,SKC,0.00,VWS V13.01,2013-04-02 15:57:00,
2013-04-02 11:58:00,35.1,11.5,29.79,West,277,6.0,13.0,37,0.00,,SKC,0.00,VWS V13.01,2013-04-02 15:58:00,
2013-04-02 11:59:00,34.9,13.0,29.79,North,350,5.0,13.0,40,0.00,,SKC,0.00,VWS V13.01,2013-04-02 15:59:00,
2013-04-02 12:00:00,34.8,13.5,29.79,NW,308,7.0,13.0,41,0.00,,SKC,0.00,VWS V13.01,2013-04-02 16:00:00,
2013-04-02 12:01:00,34.9,13.0,29.79,NE,44,3.0,10.0,40,0.00,,SKC,0.00,VWS V13.01,2013-04-02 16:01:00,
2013-04-02 12:02:00,35.0,12.6,29.79,WSW,252,2.0,10.0,39,0.00,,SKC,0.00,VWS V13.01,2013-04-02 16:02:00,
2013-04-02 12:03:00,35.1,13.2,29.78,WNW,286,3.0,10.0,40,0.00,,SKC,0.00,VWS V13.01,2013-04-02 16:03:00,
2013-04-02 12:04:00,35.2,13.3,29.78,NNE,17,4.0,12.0,40,0.00,,SKC,0.00,VWS V13.01,2013-04-02 16:04:00,
2013-04-02 12:06:00,35.2,12.7,29.78,SW,236,6.0,12.0,39,0.00,,SKC,0.00,VWS V13.01,2013-04-02 16:06:00,
2013-04-02 12:07:00,35.2,12.7,29.78,NW,304,3.0,12.0,39,0.00,,SKC,0.00,VWS V13.01,2013-04-02 16:07:00,
2013-04-02 12:08:00,35.2,13.3,29.78,NNW,335,5.0,14.0,40,0.00,,SKC,0.00,VWS V13.01,2013-04-02 16:08:00,
2013-04-02 12:09:00,35.1,12.1,29.78,West,263,7.0,16.0,38,0.00,,SKC,0.00,VWS V13.01,2013-04-02 16:09:00,
2013-04-02 12:10:00,35.2,12.7,29.78,WSW,254,3.0,16.0,39,0.00,,SKC,0.00,VWS V13.01,2013-04-02 16:10:00,
2013-04-02 12:11:00,35.3,13.4,29.78,WNW,284,12.0,16.0,40,0.00,,SKC,0.00,VWS V13.01,2013-04-02 16:11:00,
2013-04-02 12:12:00,35.4,13.5,29.79,NNE,22,4.0,16.0,40,0.00,,SKC,0.00,VWS V13.01,2013-04-02 16:12:00,
2013-04-02 12:13:00,35.6,13.1,29.78,NW,323,9.0,16.0,39,0.00,,SKC,0.00,VWS V13.01,2013-04-02 16:13:00,
2013-04-02 12:14:00,35.7,13.2,29.78,NNW,344,16.0,16.0,39,0.00,,SKC,0.00,VWS V13.01,2013-04-02 16:14:00,
2013-04-02 12:16:00,35.4,12.3,29.78,SW,227,2.0,16.0,38,0.00,,SKC,0.00,VWS V13.01,2013-04-02 16:16:00,
2013-04-02 12:17:00,35.3,11.6,29.78,West,268,4.0,16.0,37,0.00,,SKC,0.00,VWS V13.01,2013-04-02 16:17:00,
2013-04-02 12:18:00,35.1,12.1,29.78,WSW,244,4.0,16.0,38,0.00,,SKC,0.00,VWS V13.01,2013-04-02 16:18:00,
2013-04-02 12:19:00,35.0,12.6,29.78,NNE,26,5.0,16.0,39,0.00,,SKC,0.00,VWS V13.01,2013-04-02 16:19:00,
2013-04-02 12:20:00,34.8,11.8,29.78,WNW,298,12.0,16.0,38,0.00,,SKC,0.00,VWS V13.01,2013-04-02 16:20:00,
2013-04-02 12:21:00,34.6,12.2,29.78,WNW,290,6.0,16.0,39,0.00,,SKC,0.00,VWS V13.01,2013-04-02 16:21:00,
2013-04-02 12:23:00,34.5,12.7,29.78,SSW,210,4.0,16.0,40,0.00,,SKC,0.00,VWS V13.01,2013-04-02 16:23:00,
2013-04-02 12:24:00,34.4,13.1,29.78,North,355,3.0,16.0,41,0.00,,SKC,0.00,VWS V13.01,2013-04-02 16:24:00,
2013-04-02 12:25:00,34.7,14.5,29.78,NE,36,1.0,16.0,43,0.00,,SKC,0.00,VWS V13.01,2013-04-02 16:25:00,
2013-04-02 12:26:00,35.1,14.9,29.78,North,11,4.0,16.0,43,0.00,,SKC,0.00,VWS V13.01,2013-04-02 16:26:00,
2013-04-02 12:27:00,35.4,14.6,29.78,WSW,251,5.0,16.0,42,0.00,,SKC,0.00,VWS V13.01,2013-04-02 16:27:00,
2013-04-02 12:28:00,35.5,14.7,29.78,North,360,5.0,16.0,42,0.00,,SKC,0.00,VWS V13.01,2013-04-02 16:28:00,
2013-04-02 12:29:00,35.9,14.5,29.78,SSW,196,5.0,16.0,41,0.00,,SKC,0.00,VWS V13.01,2013-04-02 16:29:00,
2013-04-02 12:30:00,35.9,13.4,29.78,ENE,65,3.0,16.0,39,0.00,,SKC,0.00,VWS V13.01,2013-04-02 16:30:00,
2013-04-02 12:31:00,36.0,12.3,29.78,SW,231,6.0,12.0,37,0.00,,SKC,0.00,VWS V13.01,2013-04-02 16:31:00,
2013-04-02 12:32:00,35.9,12.8,29.78,SSW,192,6.0,12.0,38,0.00,,SKC,0.00,VWS V13.01,2013-04-02 16:32:00,
2013-04-02 12:34:00,35.8,13.3,29.78,WNW,283,6.0,16.0,39,0.00,,SKC,0.00,VWS V13.01,2013-04-02 16:34:00,
2013-04-02 12:35:00,35.7,13.8,29.78,WSW,257,4.0,16.0,40,0.00,,SKC,0.00,VWS V13.01,2013-04-02 16:35:00,
2013-04-02 12:36:00,35.6,13.1,29.78,South,171,4.0,16.0,39,0.00,,SKC,0.00,VWS V13.01,2013-04-02 16:36:00,
2013-04-02 12:37:00,35.5,12.4,29.78,NW,304,2.0,16.0,38,0.00,,SKC,0.00,VWS V13.01,2013-04-02 16:37:00,
2013-04-02 12:38:00,35.5,12.4,29.78,West,274,4.0,16.0,38,0.00,,SKC,0.00,VWS V13.01,2013-04-02 16:38:00,
2013-04-02 12:39:00,35.5,13.6,29.78,WSW,254,3.0,16.0,40,0.00,,SKC,0.00,VWS V13.01,2013-04-02 16:39:00,
2013-04-02 12:40:00,35.5,14.1,29.78,NW,318,4.0,16.0,41,0.00,,SKC,0.00,VWS V13.01,2013-04-02 16:40:00,
2013-04-02 12:41:00,35.6,14.2,29.78,West,276,6.0,16.0,41,0.00,,SKC,0.00,VWS V13.01,2013-04-02 16:41:00,
2013-04-02 12:42:00,35.7,14.3,29.78,West,259,4.0,16.0,41,0.00,,SKC,0.00,VWS V13.01,2013-04-02 16:42:00,
2013-04-02 12:43:00,35.9,14.5,29.77,SSW,195,8.0,16.0,41,0.00,,SKC,0.00,VWS V13.01,2013-04-02 16:43:00,
2013-04-02 12:44:00,35.9,13.9,29.77,West,260,11.0,16.0,40,0.00,,SKC,0.00,VWS V13.01,2013-04-02 16:44:00,
2013-04-02 12:46:00,35.6,12.5,29.77,NNW,340,3.0,16.0,38,0.00,,SKC,0.00,VWS V13.01,2013-04-02 16:46:00,
2013-04-02 12:47:00,35.7,12.6,29.77,North,360,5.0,16.0,38,0.00,,SKC,0.00,VWS V13.01,2013-04-02 16:47:00,
2013-04-02 12:48:00,35.9,13.4,29.77,NW,307,4.0,16.0,39,0.00,,SKC,0.00,VWS V13.01,2013-04-02 16:48:00,
2013-04-02 12:49:00,36.1,14.1,29.77,NW,311,7.0,16.0,40,0.00,,SKC,0.00,VWS V13.01,2013-04-02 16:49:00,
2013-04-02 12:50:00,36.2,13.6,29.77,WSW,249,2.0,16.0,39,0.00,,SKC,0.00,VWS V13.01,2013-04-02 16:50:00,
2013-04-02 12:51:00,36.2,13.1,29.77,NNW,346,0.0,16.0,38,0.00,,SKC,0.00,VWS V13.01,2013-04-02 16:51:00,
2013-04-02 12:52:00,36.2,12.4,29.77,SW,230,3.0,16.0,37,0.00,,SKC,0.00,VWS V13.01,2013-04-02 16:52:00,
2013-04-02 12:53:00,36.1,11.7,29.77,SW,233,1.0,16.0,36,0.00,,SKC,0.00,VWS V13.01,2013-04-02 16:53:00,
2013-04-02 12:54:00,36.0,11.6,29.77,WNW,299,4.0,16.0,36,0.00,,SKC,0.00,VWS V13.01,2013-04-02 16:54:00,
2013-04-02 12:55:00,36.0,12.3,29.77,WSW,252,7.0,16.0,37,0.00,,SKC,0.00,VWS V13.01,2013-04-02 16:55:00,
2013-04-02 12:56:00,35.8,12.7,29.77,West,277,6.0,16.0,38,0.00,,SKC,0.00,VWS V13.01,2013-04-02 16:56:00,
2013-04-02 12:57:00,35.8,12.1,29.77,NNW,348,5.0,16.0,37,0.00,,SKC,0.00,VWS V13.01,2013-04-02 16:57:00,
2013-04-02 12:58:00,35.8,12.1,29.77,West,275,12.0,16.0,37,0.00,,SKC,0.00,VWS V13.01,2013-04-02 16:58:00,
2013-04-02 12:59:00,35.7,11.4,29.77,WSW,249,5.0,16.0,36,0.00,,SKC,0.00,VWS V13.01,2013-04-02 16:59:00,
2013-04-02 13:00:00,35.6,11.3,29.77,West,274,14.0,16.0,36,0.00,,SKC,0.00,VWS V13.01,2013-04-02 17:00:00,
2013-04-02 13:01:00,35.4,11.1,29.77,WNW,293,6.0,14.0,36,0.00,,SKC,0.00,VWS V13.01,2013-04-02 17:01:00,
2013-04-02 13:02:00,35.3,12.2,29.77,North,350,11.0,14.0,38,0.00,,SKC,0.00,VWS V13.01,2013-04-02 17:02:00,
2013-04-02 13:03:00,35.3,12.2,29.77,West,278,10.0,14.0,38,0.00,,SKC,0.00,VWS V13.01,2013-04-02 17:03:00,
2013-04-02 13:04:00,35.3,11.6,29.77,WNW,284,4.0,14.0,37,0.00,,SKC,0.00,VWS V13.01,2013-04-02 17:04:00,
2013-04-02 13:05:00,35.3,11.0,29.77,WSW,244,2.0,14.0,36,0.00,,SKC,0.00,VWS V13.01,2013-04-02 17:05:00,
2013-04-02 13:06:00,35.2,11.6,29.77,WNW,298,3.0,14.0,37,0.00,,SKC,0.00,VWS V13.01,2013-04-02 17:06:00,
2013-04-02 13:07:00,35.3,11.6,29.77,WSW,257,7.0,14.0,37,0.00,,SKC,0.00,VWS V13.01,2013-04-02 17:07:00,
2013-04-02 13:08:00,35.3,12.2,29.77,SW,234,9.0,14.0,38,0.00,,SKC,0.00,VWS V13.01,2013-04-02 17:08:00,
2013-04-02 13:09:00,35.3,11.6,29.77,SW,223,2.0,14.0,37,0.00,,SKC,0.00,VWS V13.01,2013-04-02 17:09:00,
2013-04-02 13:11:00,35.6,13.1,29.77,WNW,287,4.0,14.0,39,0.00,,SKC,0.00,VWS V13.01,2013-04-02 17:11:00,
2013-04-02 13:12:00,35.6,11.9,29.77,SW,236,2.0,14.0,37,0.00,,SKC,0.00,VWS V13.01,2013-04-02 17:12:00,
2013-04-02 13:13:00,35.6,11.9,29.77,NW,313,4.0,14.0,37,0.00,,SKC,0.00,VWS V13.01,2013-04-02 17:13:00,
2013-04-02 13:14:00,35.5,11.8,29.77,North,9,9.0,14.0,37,0.00,,SKC,0.00,VWS V13.01,2013-04-02 17:14:00,
2013-04-02 13:16:00,35.3,10.4,29.76,ENE,61,4.0,14.0,35,0.00,,SKC,0.00,VWS V13.01,2013-04-02 17:16:00,
2013-04-02 13:17:00,35.2,10.9,29.76,NNW,334,4.0,14.0,36,0.00,,SKC,0.00,VWS V13.01,2013-04-02 17:17:00,
2013-04-02 13:18:00,35.2,10.9,29.77,NNE,17,4.0,14.0,36,0.00,,SKC,0.00,VWS V13.01,2013-04-02 17:18:00,
2013-04-02 13:19:00,35.2,10.3,29.77,NNE,24,5.0,14.0,35,0.00,,SKC,0.00,VWS V13.01,2013-04-02 17:19:00,
2013-04-02 13:20:00,35.1,10.2,29.77,WNW,303,5.0,14.0,35,0.00,,SKC,0.00,VWS V13.01,2013-04-02 17:20:00,
2013-04-02 13:21:00,35.2,10.3,29.77,NNW,339,5.0,14.0,35,0.00,,SKC,0.00,VWS V13.01,2013-04-02 17:21:00,
2013-04-02 13:22:00,35.2,10.9,29.77,WNW,286,5.0,14.0,36,0.00,,SKC,0.00,VWS V13.01,2013-04-02 17:22:00,
2013-04-02 13:23:00,35.3,10.4,29.77,WNW,290,5.0,14.0,35,0.00,,SKC,0.00,VWS V13.01,2013-04-02 17:23:00,
2013-04-02 13:24:00,35.3,10.4,29.77,SW,232,8.0,14.0,35,0.00,,SKC,0.00,VWS V13.01,2013-04-02 17:24:00,
2013-04-02 13:25:00,35.2,10.9,29.77,NW,314,3.0,18.0,36,0.00,,SKC,0.00,VWS V13.01,2013-04-02 17:25:00,
2013-04-02 13:26:00,35.0,10.1,29.77,NW,306,2.0,18.0,35,0.00,,SKC,0.00,VWS V13.01,2013-04-02 17:26:00,
2013-04-02 13:27:00,34.9,10.7,29.77,NNE,19,3.0,18.0,36,0.00,,SKC,0.00,VWS V13.01,2013-04-02 17:27:00,
2013-04-02 13:28:00,34.9,10.7,29.77,North,355,1.0,18.0,36,0.00,,SKC,0.00,VWS V13.01,2013-04-02 17:28:00,
2013-04-02 13:29:00,34.9,10.0,29.77,NNW,345,2.0,18.0,35,0.00,,SKC,0.00,VWS V13.01,2013-04-02 17:29:00,
2013-04-02 13:30:00,34.8,9.9,29.76,NW,309,4.0,18.0,35,0.00,,SKC,0.00,VWS V13.01,2013-04-02 17:30:00,
2013-04-02 13:31:00,34.8,9.9,29.76,SW,214,6.0,9.0,35,0.00,,SKC,0.00,VWS V13.01,2013-04-02 17:31:00,
2013-04-02 13:32:00,34.7,9.9,29.76,NNW,331,1.0,9.0,35,0.00,,SKC,0.00,VWS V13.01,2013-04-02 17:32:00,
2013-04-02 13:33:00,34.8,11.2,29.76,NW,310,2.0,9.0,37,0.00,,SKC,0.00,VWS V13.01,2013-04-02 17:33:00,
2013-04-02 13:34:00,34.9,11.9,29.76,WSW,250,5.0,9.0,38,0.00,,SKC,0.00,VWS V13.01,2013-04-02 17:34:00,
2013-04-02 13:36:00,35.1,11.5,29.76,WSW,243,3.0,9.0,37,0.00,,SKC,0.00,VWS V13.01,2013-04-02 17:36:00,
2013-04-02 13:37:00,35.3,11.6,29.76,WNW,287,11.0,11.0,37,0.00,,SKC,0.00,VWS V13.01,2013-04-02 17:37:00,
2013-04-02 13:38:00,35.4,11.1,29.76,NNE,13,1.0,12.0,36,0.00,,SKC,0.00,VWS V13.01,2013-04-02 17:38:00,
2013-04-02 13:39:00,35.4,11.7,29.76,West,273,3.0,12.0,37,0.00,,SKC,0.00,VWS V13.01,2013-04-02 17:39:00,
2013-04-02 13:40:00,35.5,11.2,29.76,NNW,347,10.0,12.0,36,0.00,,SKC,0.00,VWS V13.01,2013-04-02 17:40:00,
2013-04-02 13:41:00,35.5,10.6,29.76,NNW,334,4.0,12.0,35,0.00,,SKC,0.00,VWS V13.01,2013-04-02 17:41:00,
2013-04-02 13:42:00,35.5,11.2,29.76,NNE,28,4.0,12.0,36,0.00,,SKC,0.00,VWS V13.01,2013-04-02 17:42:00,
2013-04-02 13:43:00,35.5,11.8,29.76,NE,34,4.0,12.0,37,0.00,,SKC,0.00,VWS V13.01,2013-04-02 17:43:00,
2013-04-02 13:44:00,35.5,11.8,29.76,North,350,6.0,12.0,37,0.00,,SKC,0.00,VWS V13.01,2013-04-02 17:44:00,
2013-04-02 13:46:00,35.5,11.8,29.76,WNW,292,9.0,12.0,37,0.00,,SKC,0.00,VWS V13.01,2013-04-02 17:46:00,
2013-04-02 13:47:00,35.5,11.2,29.76,WSW,254,7.0,12.0,36,0.00,,SKC,0.00,VWS V13.01,2013-04-02 17:47:00,
2013-04-02 13:48:00,35.6,12.5,29.76,NW,320,2.0,12.0,38,0.00,,SKC,0.00,VWS V13.01,2013-04-02 17:48:00,
2013-04-02 13:49:00,35.7,12.6,29.75,WSW,246,6.0,12.0,38,0.00,,SKC,0.00,VWS V13.01,2013-04-02 17:49:00,
2013-04-02 13:51:00,35.6,10.7,29.75,NW,324,10.0,15.0,35,0.00,,SKC,0.00,VWS V13.01,2013-04-02 17:51:00,
2013-04-02 13:52:00,35.6,10.7,29.75,WSW,248,3.0,15.0,35,0.00,,SKC,0.00,VWS V13.01,2013-04-02 17:52:00,
2013-04-02 13:53:00,35.5,11.8,29.75,NW,319,1.0,15.0,37,0.00,,SKC,0.00,VWS V13.01,2013-04-02 17:53:00,
2013-04-02 13:54:00,35.4,11.7,29.76,NNE,30,6.0,15.0,37,0.00,,SKC,0.00,VWS V13.01,2013-04-02 17:54:00,
2013-04-02 13:56:00,35.3,11.0,29.75,West,263,11.0,15.0,36,0.00,,SKC,0.00,VWS V13.01,2013-04-02 17:56:00,
2013-04-02 13:57:00,35.3,11.0,29.75,WNW,296,2.0,15.0,36,0.00,,SKC,0.00,VWS V13.01,2013-04-02 17:57:00,
2013-04-02 13:58:00,35.4,11.7,29.75,West,259,3.0,15.0,37,0.00,,SKC,0.00,VWS V13.01,2013-04-02 17:58:00,
2013-04-02 13:59:00,35.5,13.0,29.75,WNW,285,10.0,15.0,39,0.00,,SKC,0.00,VWS V13.01,2013-04-02 17:59:00,
2013-04-02 14:00:00,35.6,13.1,29.75,West,279,7.0,15.0,39,0.00,,SKC,0.00,VWS V13.01,2013-04-02 18:00:00,
2013-04-02 14:01:00,35.6,11.9,29.75,NNW,344,3.0,10.0,37,0.00,,SKC,0.00,VWS V13.01,2013-04-02 18:01:00,
2013-04-02 14:02:00,35.6,12.5,29.75,NNW,337,2.0,10.0,38,0.00,,SKC,0.00,VWS V13.01,2013-04-02 18:02:00,
2013-04-02 14:03:00,35.7,13.8,29.75,SW,215,9.0,12.0,40,0.00,,SKC,0.00,VWS V13.01,2013-04-02 18:03:00,
2013-04-02 14:04:00,35.7,12.0,29.75,SW,236,7.0,13.0,37,0.00,,SKC,0.00,VWS V13.01,2013-04-02 18:04:00,
2013-04-02 14:05:00,35.6,11.9,29.75,West,265,6.0,13.0,37,0.00,,SKC,0.00,VWS V13.01,2013-04-02 18:05:00,
2013-04-02 14:06:00,35.7,12.6,29.75,North,351,5.0,13.0,38,0.00,,SKC,0.00,VWS V13.01,2013-04-02 18:06:00,
2013-04-02 14:07:00,35.8,13.3,29.75,WSW,241,7.0,13.0,39,0.00,,SKC,0.00,VWS V13.01,2013-04-02 18:07:00,
2013-04-02 14:08:00,35.9,12.8,29.75,West,270,2.0,13.0,38,0.00,,SKC,0.00,VWS V13.01,2013-04-02 18:08:00,
2013-04-02 14:09:00,36.1,13.0,29.76,SSW,210,5.0,13.0,38,0.00,,SKC,0.00,VWS V13.01,2013-04-02 18:09:00,
2013-04-02 14:10:00,36.1,13.0,29.76,SW,215,4.0,13.0,38,0.00,,SKC,0.00,VWS V13.01,2013-04-02 18:10:00,
2013-04-02 14:11:00,36.1,11.7,29.75,NNW,329,5.0,13.0,36,0.00,,SKC,0.00,VWS V13.01,2013-04-02 18:11:00,
2013-04-02 14:12:00,36.1,11.1,29.75,West,279,4.0,14.0,35,0.00,,SKC,0.00,VWS V13.01,2013-04-02 18:12:00,
2013-04-02 14:13:00,36.1,11.1,29.75,West,263,11.0,14.0,35,0.00,,SKC,0.00,VWS V13.01,2013-04-02 18:13:00,
2013-04-02 14:14:00,36.0,11.0,29.75,NNW,346,11.0,14.0,35,0.00,,SKC,0.00,VWS V13.01,2013-04-02 18:14:00,
2013-04-02 14:15:00,36.0,11.0,29.75,North,9,12.0,14.0,35,0.00,,SKC,0.00,VWS V13.01,2013-04-02 18:15:00,
2013-04-02 14:16:00,36.0,11.6,29.75,NNW,341,3.0,14.0,36,0.00,,SKC,0.00,VWS V13.01,2013-04-02 18:16:00,
2013-04-02 14:17:00,35.9,11.6,29.75,West,279,2.0,14.0,36,0.00,,SKC,0.00,VWS V13.01,2013-04-02 18:17:00,
2013-04-02 14:18:00,35.9,11.6,29.75,NW,310,5.0,14.0,36,0.00,,SKC,0.00,VWS V13.01,2013-04-02 18:18:00,
2013-04-02 14:19:00,35.9,12.2,29.75,NW,307,6.0,14.0,37,0.00,,SKC,0.00,VWS V13.01,2013-04-02 18:19:00,
2013-04-02 14:20:00,35.9,12.8,29.75,West,272,7.0,14.0,38,0.00,,SKC,0.00,VWS V13.01,2013-04-02 18:20:00,
2013-04-02 14:21:00,35.9,11.6,29.75,WNW,298,9.0,14.0,36,0.00,,SKC,0.00,VWS V13.01,2013-04-02 18:21:00,
2013-04-02 14:22:00,35.9,12.2,29.75,WNW,284,9.0,14.0,37,0.00,,SKC,0.00,VWS V13.01,2013-04-02 18:22:00,
2013-04-02 14:23:00,35.9,12.2,29.75,West,264,10.0,14.0,37,0.00,,SKC,0.00,VWS V13.01,2013-04-02 18:23:00,
2013-04-02 14:24:00,36.0,12.3,29.75,WSW,254,6.0,14.0,37,0.00,,SKC,0.00,VWS V13.01,2013-04-02 18:24:00,
2013-04-02 14:26:00,36.2,13.1,29.75,SSW,207,1.0,14.0,38,0.00,,SKC,0.00,VWS V13.01,2013-04-02 18:26:00,
2013-04-02 14:27:00,36.3,13.1,29.75,SW,232,5.0,14.0,38,0.00,,SKC,0.00,VWS V13.01,2013-04-02 18:27:00,
2013-04-02 14:28:00,36.4,12.6,29.75,NNW,330,4.0,14.0,37,0.00,,SKC,0.00,VWS V13.01,2013-04-02 18:28:00,
2013-04-02 14:29:00,36.5,12.7,29.75,SW,225,3.0,14.0,37,0.00,,SKC,0.00,VWS V13.01,2013-04-02 18:29:00,
2013-04-02 14:31:00,36.7,12.9,29.75,North,355,7.0,13.0,37,0.00,,SKC,0.00,VWS V13.01,2013-04-02 18:31:00,
2013-04-02 14:32:00,36.8,13.0,29.75,North,350,6.0,13.0,37,0.00,,SKC,0.00,VWS V13.01,2013-04-02 18:32:00,
2013-04-02 14:33:00,36.9,11.8,29.75,NNW,335,4.0,14.0,35,0.00,,SKC,0.00,VWS V13.01,2013-04-02 18:33:00,
2013-04-02 14:34:00,36.8,11.1,29.75,NNW,346,12.0,14.0,34,0.00,,SKC,0.00,VWS V13.01,2013-04-02 18:34:00,
2013-04-02 14:35:00,36.7,11.0,29.75,West,260,4.0,14.0,34,0.00,,SKC,0.00,VWS V13.01,2013-04-02 18:35:00,
2013-04-02 14:36:00,36.6,10.9,29.75,NNW,344,14.0,14.0,34,0.00,,SKC,0.00,VWS V13.01,2013-04-02 18:36:00,
2013-04-02 14:37:00,36.6,12.2,29.75,WNW,292,9.0,14.0,36,0.00,,SKC,0.00,VWS V13.01,2013-04-02 18:37:00,
2013-04-02 14:38:00,36.7,12.3,29.75,SW,219,5.0,14.0,36,0.00,,SKC,0.00,VWS V13.01,2013-04-02 18:38:00,
2013-04-02 14:39:00,36.8,11.7,29.75,WNW,288,5.0,14.0,35,0.00,,SKC,0.00,VWS V13.01,2013-04-02 18:39:00,
2013-04-02 14:40:00,36.8,11.7,29.75,NNW,339,5.0,14.0,35,0.00,,SKC,0.00,VWS V13.01,2013-04-02 18:40:00,
2013-04-02 14:41:00,36.8,11.7,29.75,NNE,25,3.0,14.0,35,0.00,,SKC,0.00,VWS V13.01,2013-04-02 18:41:00,
2013-04-02 14:42:00,36.8,11.7,29.75,NNE,18,5.0,14.0,35,0.00,,SKC,0.00,VWS V13.01,2013-04-02 18:42:00,
2013-04-02 14:43:00,36.8,12.4,29.75,ESE,118,10.0,14.0,36,0.00,,SKC,0.00,VWS V13.01,2013-04-02 18:43:00,
2013-04-02 14:44:00,36.9,12.4,29.75,NW,317,9.0,15.0,36,0.00,,SKC,0.00,VWS V13.01,2013-04-02 18:44:00,
2013-04-02 14:45:00,37.0,12.5,29.75,North,350,6.0,15.0,36,0.00,,SKC,0.00,VWS V13.01,2013-04-02 18:45:00,
2013-04-02 14:46:00,37.1,13.2,29.75,WNW,282,15.0,16.0,37,0.00,,SKC,0.00,VWS V13.01,2013-04-02 18:46:00,
2013-04-02 14:47:00,37.2,13.9,29.75,NNE,15,5.0,16.0,38,0.00,,SKC,0.00,VWS V13.01,2013-04-02 18:47:00,
2013-04-02 14:48:00,37.4,13.5,29.75,WNW,286,1.0,16.0,37,0.00,,SKC,0.00,VWS V13.01,2013-04-02 18:48:00,
2013-04-02 14:49:00,37.4,13.5,29.74,NW,326,4.0,16.0,37,0.00,,SKC,0.00,VWS V13.01,2013-04-02 18:49:00,
2013-04-02 14:51:00,37.6,13.1,29.74,WNW,296,6.0,16.0,36,0.00,,SKC,0.00,VWS V13.01,2013-04-02 18:51:00,
2013-04-02 14:52:00,37.4,12.9,29.74,WSW,241,12.0,16.0,36,0.00,,SKC,0.00,VWS V13.01,2013-04-02 18:52:00,
2013-04-02 14:53:00,37.2,11.4,29.74,NW,323,3.0,16.0,34,0.00,,SKC,0.00,VWS V13.01,2013-04-02 18:53:00,
2013-04-02 14:54:00,37.0,11.2,29.74,SW,230,5.0,18.0,34,0.00,,SKC,0.00,VWS V13.01,2013-04-02 18:54:00,
2013-04-02 14:56:00,36.6,12.8,29.74,West,269,6.0,18.0,37,0.00,,SKC,0.00,VWS V13.01,2013-04-02 18:56:00,
2013-04-02 14:57:00,36.6,12.8,29.74,ESE,109,3.0,18.0,37,0.00,,SKC,0.00,VWS V13.01,2013-04-02 18:57:00,
2013-04-02 14:58:00,36.6,12.2,29.74,WSW,250,11.0,18.0,36,0.00,,SKC,0.00,VWS V13.01,2013-04-02 18:58:00,
2013-04-02 14:59:00,36.7,12.9,29.74,NNW,336,10.0,18.0,37,0.00,,SKC,0.00,VWS V13.01,2013-04-02 18:59:00,
2013-04-02 15:00:00,36.8,11.7,29.74,NE,56,4.0,18.0,35,0.00,,SKC,0.00,VWS V13.01,2013-04-02 19:00:00,
2013-04-02 15:01:00,36.9,11.8,29.74,SW,236,1.0,7.0,35,0.00,,SKC,0.00,VWS V13.01,2013-04-02 19:01:00,
2013-04-02 15:02:00,37.1,12.6,29.74,West,271,7.0,7.0,36,0.00,,SKC,0.00,VWS V13.01,2013-04-02 19:02:00,
2013-04-02 15:03:00,37.1,12.6,29.74,NW,325,7.0,9.0,36,0.00,,SKC,0.00,VWS V13.01,2013-04-02 19:03:00,
2013-04-02 15:04:00,37.2,12.7,29.74,NW,323,3.0,11.0,36,0.00,,SKC,0.00,VWS V13.01,2013-04-02 19:04:00,
2013-04-02 15:06:00,37.1,13.2,29.74,West,264,1.0,12.0,37,0.00,,SKC,0.00,VWS V13.01,2013-04-02 19:06:00,
2013-04-02 15:07:00,37.1,12.6,29.74,West,259,7.0,12.0,36,0.00,,SKC,0.00,VWS V13.01,2013-04-02 19:07:00,
2013-04-02 15:08:00,37.0,12.5,29.74,WNW,282,5.0,13.0,36,0.00,,SKC,0.00,VWS V13.01,2013-04-02 19:08:00,
2013-04-02 15:09:00,36.9,11.2,29.74,NNW,327,3.0,18.0,34,0.00,,SKC,0.00,VWS V13.01,2013-04-02 19:09:00,
2013-04-02 15:10:00,36.8,11.1,29.74,NE,46,3.0,18.0,34,0.00,,SKC,0.00,VWS V13.01,2013-04-02 19:10:00,
2013-04-02 15:11:00,36.8,12.4,29.74,WNW,284,3.0,18.0,36,0.00,,SKC,0.00,VWS V13.01,2013-04-02 19:11:00,
2013-04-02 15:12:00,36.8,12.4,29.74,WNW,302,3.0,18.0,36,0.00,,SKC,0.00,VWS V13.01,2013-04-02 19:12:00,
2013-04-02 15:13:00,36.8,11.7,29.74,WNW,289,10.0,18.0,35,0.00,,SKC,0.00,VWS V13.01,2013-04-02 19:13:00,
2013-04-02 15:14:00,36.8,11.1,29.74,West,277,4.0,18.0,34,0.00,,SKC,0.00,VWS V13.01,2013-04-02 19:14:00,
2013-04-02 15:15:00,36.9,11.2,29.74,NW,315,2.0,18.0,34,0.00,,SKC,0.00,VWS V13.01,2013-04-02 19:15:00,
2013-04-02 15:16:00,36.8,11.7,29.74,NW,319,5.0,18.0,35,0.00,,SKC,0.00,VWS V13.01,2013-04-02 19:16:00,
2013-04-02 15:17:00,36.8,12.4,29.74,NNW,347,3.0,18.0,36,0.00,,SKC,0.00,VWS V13.01,2013-04-02 19:17:00,
2013-04-02 15:18:00,36.8,11.7,29.74,WNW,292,10.0,18.0,35,0.00,,SKC,0.00,VWS V13.01,2013-04-02 19:18:00,
2013-04-02 15:19:00,36.7,11.0,29.74,NW,313,13.0,18.0,34,0.00,,SKC,0.00,VWS V13.01,2013-04-02 19:19:00,
2013-04-02 15:20:00,36.6,10.2,29.74,NW,309,12.0,18.0,33,0.00,,SKC,0.00,VWS V13.01,2013-04-02 19:20:00,
2013-04-02 15:21:00,36.4,10.1,29.74,ENE,57,7.0,18.0,33,0.00,,SKC,0.00,VWS V13.01,2013-04-02 19:21:00,
2013-04-02 15:22:00,36.4,10.1,29.74,NE,53,1.0,18.0,33,0.00,,SKC,0.00,VWS V13.01,2013-04-02 19:22:00,
2013-04-02 15:23:00,36.3,11.3,29.74,West,276,5.0,18.0,35,0.00,,SKC,0.00,VWS V13.01,2013-04-02 19:23:00,
2013-04-02 15:24:00,36.4,11.4,29.74,West,263,5.0,18.0,35,0.00,,SKC,0.00,VWS V13.01,2013-04-02 19:24:00,
2013-04-02 15:25:00,36.5,11.5,29.74,ENE,76,6.0,18.0,35,0.00,,SKC,0.00,VWS V13.01,2013-04-02 19:25:00,
2013-04-02 15:26:00,36.9,11.2,29.74,NW,326,2.0,18.0,34,0.00,,SKC,0.00,VWS V13.01,2013-04-02 19:26:00,
2013-04-02 15:27:00,37.0,11.2,29.74,NNE,28,1.0,18.0,34,0.00,,SKC,0.00,VWS V13.01,2013-04-02 19:27:00,
2013-04-02 15:28:00,37.3,11.5,29.74,NW,320,1.0,18.0,34,0.00,,SKC,0.00,VWS V13.01,2013-04-02 19:28:00,
2013-04-02 15:29:00,37.5,11.7,29.74,West,267,4.0,18.0,34,0.00,,SKC,0.00,VWS V13.01,2013-04-02 19:29:00,
2013-04-02 15:30:00,37.8,12.0,29.73,NNW,346,2.0,18.0,34,0.00,,SKC,0.00,VWS V13.01,2013-04-02 19:30:00,
2013-04-02 15:31:00,38.2,13.0,29.73,WSW,242,3.0,10.0,35,0.00,,SKC,0.00,VWS V13.01,2013-04-02 19:31:00,
2013-04-02 15:32:00,38.2,11.6,29.74,West,259,4.0,16.0,33,0.00,,SKC,0.00,VWS V13.01,2013-04-02 19:32:00,
2013-04-02 15:33:00,38.2,12.3,29.73,SW,223,3.0,16.0,34,0.00,,SKC,0.00,VWS V13.01,2013-04-02 19:33:00,
2013-04-02 15:34:00,38.2,13.0,29.73,SW,218,8.0,16.0,35,0.00,,SKC,0.00,VWS V13.01,2013-04-02 19:34:00,
2013-04-02 15:35:00,38.2,13.0,29.73,SW,230,5.0,16.0,35,0.00,,SKC,0.00,VWS V13.01,2013-04-02 19:35:00,
2013-04-02 15:36:00,38.0,11.5,29.73,West,275,10.0,16.0,33,0.00,,SKC,0.00,VWS V13.01,2013-04-02 19:36:00,
2013-04-02 15:37:00,37.9,12.1,29.74,West,263,11.0,16.0,34,0.00,,SKC,0.00,VWS V13.01,2013-04-02 19:37:00,
2013-04-02 15:38:00,37.7,11.9,29.74,NW,306,4.0,16.0,34,0.00,,SKC,0.00,VWS V13.01,2013-04-02 19:38:00,
2013-04-02 15:39:00,37.5,12.4,29.74,SSE,168,6.0,16.0,35,0.00,,SKC,0.00,VWS V13.01,2013-04-02 19:39:00,
2013-04-02 15:40:00,37.3,11.5,29.74,West,259,6.0,16.0,34,0.00,,SKC,0.00,VWS V13.01,2013-04-02 19:40:00,
2013-04-02 15:41:00,37.0,11.2,29.74,NNW,331,7.0,16.0,34,0.00,,SKC,0.00,VWS V13.01,2013-04-02 19:41:00,
2013-04-02 15:42:00,36.7,10.3,29.74,North,360,6.0,16.0,33,0.00,,SKC,0.00,VWS V13.01,2013-04-02 19:42:00,
2013-04-02 15:43:00,36.6,10.9,29.74,NNW,337,5.0,16.0,34,0.00,,SKC,0.00,VWS V13.01,2013-04-02 19:43:00,
2013-04-02 15:44:00,36.5,10.1,29.74,NNW,345,2.0,16.0,33,0.00,,SKC,0.00,VWS V13.01,2013-04-02 19:44:00,
2013-04-02 15:46:00,36.5,10.1,29.74,North,360,2.0,16.0,33,0.00,,SKC,0.00,VWS V13.01,2013-04-02 19:46:00,
2013-04-02 15:47:00,36.5,10.1,29.74,ENE,64,6.0,16.0,33,0.00,,SKC,0.00,VWS V13.01,2013-04-02 19:47:00,
2013-04-02 15:48:00,36.6,10.9,29.74,West,276,13.0,16.0,34,0.00,,SKC,0.00,VWS V13.01,2013-04-02 19:48:00,
2013-04-02 15:49:00,36.8,11.1,29.74,WNW,296,7.0,16.0,34,0.00,,SKC,0.00,VWS V13.01,2013-04-02 19:49:00,
2013-04-02 15:50:00,36.8,11.1,29.74,NNE,28,5.0,16.0,34,0.00,,SKC,0.00,VWS V13.01,2013-04-02 19:50:00,
2013-04-02 15:51:00,36.9,11.8,29.73,NNW,328,2.0,16.0,35,0.00,,SKC,0.00,VWS V13.01,2013-04-02 19:51:00,
2013-04-02 15:52:00,36.9,11.8,29.73,WSW,249,6.0,16.0,35,0.00,,SKC,0.00,VWS V13.01,2013-04-02 19:52:00,
2013-04-02 15:53:00,36.8,11.7,29.74,NE,40,3.0,16.0,35,0.00,,SKC,0.00,VWS V13.01,2013-04-02 19:53:00,
2013-04-02 15:54:00,36.8,12.4,29.74,NE,51,6.0,16.0,36,0.00,,SKC,0.00,VWS V13.01,2013-04-02 19:54:00,
2013-04-02 15:56:00,36.6,11.6,29.74,WSW,241,3.0,16.0,35,0.00,,SKC,0.00,VWS V13.01,2013-04-02 19:56:00,
2013-04-02 15:57:00,36.6,11.6,29.74,North,355,3.0,16.0,35,0.00,,SKC,0.00,VWS V13.01,2013-04-02 19:57:00,
2013-04-02 15:58:00,36.5,12.1,29.74,WNW,294,9.0,16.0,36,0.00,,SKC,0.00,VWS V13.01,2013-04-02 19:58:00,
2013-04-02 15:59:00,36.6,12.2,29.73,WNW,293,13.0,16.0,36,0.00,,SKC,0.00,VWS V13.01,2013-04-02 19:59:00,
2013-04-02 16:00:00,36.6,11.6,29.73,WSW,246,5.0,17.0,35,0.00,,SKC,0.00,VWS V13.01,2013-04-02 20:00:00,
2013-04-02 16:01:00,36.8,11.7,29.73,NW,306,9.0,12.0,35,0.00,,SKC,0.00,VWS V13.01,2013-04-02 20:01:00,
2013-04-02 16:02:00,37.0,12.5,29.73,NNW,335,3.0,12.0,36,0.00,,SKC,0.00,VWS V13.01,2013-04-02 20:02:00,
2013-04-02 16:03:00,37.1,12.6,29.74,NNW,338,2.0,13.0,36,0.00,,SKC,0.00,VWS V13.01,2013-04-02 20:03:00,
2013-04-02 16:04:00,37.3,12.2,29.73,West,263,6.0,13.0,35,0.00,,SKC,0.00,VWS V13.01,2013-04-02 20:04:00,
2013-04-02 16:06:00,37.4,11.6,29.74,NW,309,4.0,13.0,34,0.00,,SKC,0.00,VWS V13.01,2013-04-02 20:06:00,
2013-04-02 16:07:00,37.4,12.3,29.74,West,273,15.0,15.0,35,0.00,,SKC,0.00,VWS V13.01,2013-04-02 20:07:00,
2013-04-02 16:08:00,37.3,12.2,29.74,West,273,5.0,15.0,35,0.00,,SKC,0.00,VWS V13.01,2013-04-02 20:08:00,
2013-04-02 16:09:00,37.2,12.7,29.74,WNW,290,5.0,15.0,36,0.00,,SKC,0.00,VWS V13.01,2013-04-02 20:09:00,
2013-04-02 16:10:00,37.1,13.2,29.74,ENE,69,4.0,15.0,37,0.00,,SKC,0.00,VWS V13.01,2013-04-02 20:10:00,
2013-04-02 16:11:00,37.0,12.5,29.74,North,350,5.0,15.0,36,0.00,,SKC,0.00,VWS V13.01,2013-04-02 20:11:00,
2013-04-02 16:12:00,36.9,12.4,29.74,NNE,26,2.0,15.0,36,0.00,,SKC,0.00,VWS V13.01,2013-04-02 20:12:00,
2013-04-02 16:13:00,36.8,12.4,29.74,WNW,294,3.0,15.0,36,0.00,,SKC,0.00,VWS V13.01,2013-04-02 20:13:00,
2013-04-02 16:14:00,36.8,11.7,29.74,ENE,62,2.0,15.0,35,0.00,,SKC,0.00,VWS V13.01,2013-04-02 20:14:00,
2013-04-02 16:17:00,37.2,13.3,29.74,NW,309,6.0,15.0,37,0.00,,SKC,0.00,VWS V13.01,2013-04-02 20:17:00,
2013-04-02 16:18:00,37.3,13.4,29.74,West,268,2.0,15.0,37,0.00,,SKC,0.00,VWS V13.01,2013-04-02 20:18:00,
2013-04-02 16:19:00,37.3,12.8,29.74,WNW,300,13.0,15.0,36,0.00,,SKC,0.00,VWS V13.01,2013-04-02 20:19:00,
2013-04-02 16:20:00,37.3,12.8,29.74,NE,56,6.0,15.0,36,0.00,,SKC,0.00,VWS V13.01,2013-04-02 20:20:00,
2013-04-02 16:21:00,37.3,12.2,29.74,West,277,10.0,15.0,35,0.00,,SKC,0.00,VWS V13.01,2013-04-02 20:21:00,
2013-04-02 16:22:00,37.2,11.4,29.74,West,263,4.0,15.0,34,0.00,,SKC,0.00,VWS V13.01,2013-04-02 20:22:00,
2013-04-02 16:23:00,37.1,12.6,29.74,West,259,2.0,15.0,36,0.00,,SKC,0.00,VWS V13.01,2013-04-02 20:23:00,
2013-04-02 16:24:00,37.1,12.6,29.74,West,280,3.0,15.0,36,0.00,,SKC,0.00,VWS V13.01,2013-04-02 20:24:00,
2013-04-02 16:25:00,37.0,12.5,29.74,West,279,4.0,15.0,36,0.00,,SKC,0.00,VWS V13.01,2013-04-02 20:25:00,
2013-04-02 16:26:00,36.9,12.4,29.74,NW,314,1.0,15.0,36,0.00,,SKC,0.00,VWS V13.01,2013-04-02 20:26:00,
2013-04-02 16:27:00,36.8,12.4,29.74,WNW,302,4.0,15.0,36,0.00,,SKC,0.00,VWS V13.01,2013-04-02 20:27:00,
2013-04-02 16:28:00,36.8,12.4,29.74,NNW,331,10.0,15.0,36,0.00,,SKC,0.00,VWS V13.01,2013-04-02 20:28:00,
2013-04-02 16:29:00,36.7,12.9,29.74,WNW,302,2.0,15.0,37,0.00,,SKC,0.00,VWS V13.01,2013-04-02 20:29:00,
2013-04-02 16:30:00,36.6,12.2,29.74,NNW,329,2.0,15.0,36,0.00,,SKC,0.00,VWS V13.01,2013-04-02 20:30:00,
2013-04-02 16:31:00,36.5,12.1,29.74,WNW,290,3.0,5.0,36,0.00,,SKC,0.00,VWS V13.01,2013-04-02 20:31:00,
2013-04-02 16:32:00,36.5,12.1,29.74,NNW,330,0.0,5.0,36,0.00,,SKC,0.00,VWS V13.01,2013-04-02 20:32:00,
2013-04-02 16:33:00,36.6,12.8,29.74,North,360,4.0,7.0,37,0.00,,SKC,0.00,VWS V13.01,2013-04-02 20:33:00,
2013-04-02 16:34:00,36.6,12.8,29.74,NNE,22,2.0,11.0,37,0.00,,SKC,0.00,VWS V13.01,2013-04-02 20:34:00,
2013-04-02 16:35:00,36.8,13.6,29.74,West,281,4.0,11.0,38,0.00,,SKC,0.00,VWS V13.01,2013-04-02 20:35:00,
2013-04-02 16:36:00,36.9,13.1,29.74,WNW,285,6.0,11.0,37,0.00,,SKC,0.00,VWS V13.01,2013-04-02 20:36:00,
2013-04-02 16:37:00,37.1,13.2,29.74,WSW,254,4.0,11.0,37,0.00,,SKC,0.00,VWS V13.01,2013-04-02 20:37:00,
2013-04-02 16:38:00,37.2,13.9,29.74,NNW,348,7.0,11.0,38,0.00,,SKC,0.00,VWS V13.01,2013-04-02 20:38:00,
2013-04-02 16:39:00,37.3,14.0,29.74,NNE,25,9.0,13.0,38,0.00,,SKC,0.00,VWS V13.01,2013-04-02 20:39:00,
2013-04-02 16:40:00,37.5,13.0,29.74,WSW,252,4.0,16.0,36,0.00,,SKC,0.00,VWS V13.01,2013-04-02 20:40:00,
2013-04-02 16:41:00,37.4,12.9,29.74,West,275,3.0,16.0,36,0.00,,SKC,0.00,VWS V13.01,2013-04-02 20:41:00,
2013-04-02 16:42:00,37.4,12.9,29.74,WSW,254,6.0,16.0,36,0.00,,SKC,0.00,VWS V13.01,2013-04-02 20:42:00,
2013-04-02 16:43:00,37.4,12.9,29.74,NNW,330,10.0,16.0,36,0.00,,SKC,0.00,VWS V13.01,2013-04-02 20:43:00,
2013-04-02 16:44:00,37.3,12.8,29.74,NW,309,10.0,16.0,36,0.00,,SKC,0.00,VWS V13.01,2013-04-02 20:44:00,
2013-04-02 16:45:00,37.3,12.8,29.74,NNW,345,5.0,16.0,36,0.00,,SKC,0.00,VWS V13.01,2013-04-02 20:45:00,
2013-04-02 16:46:00,37.4,13.5,29.74,NW,323,5.0,16.0,37,0.00,,SKC,0.00,VWS V13.01,2013-04-02 20:46:00,
2013-04-02 16:47:00,37.4,14.1,29.74,SW,223,10.0,16.0,38,0.00,,SKC,0.00,VWS V13.01,2013-04-02 20:47:00,
2013-04-02 16:48:00,37.5,14.8,29.74,West,260,3.0,16.0,39,0.00,,SKC,0.00,VWS V13.01,2013-04-02 20:48:00,
2013-04-02 16:49:00,37.6,14.3,29.74,NW,318,6.0,16.0,38,0.00,,SKC,0.00,VWS V13.01,2013-04-02 20:49:00,
2013-04-02 16:50:00,37.7,15.0,29.74,NW,319,9.0,16.0,39,0.00,,SKC,0.00,VWS V13.01,2013-04-02 20:50:00,
2013-04-02 16:51:00,37.6,14.3,29.74,WSW,253,2.0,16.0,38,0.00,,SKC,0.00,VWS V13.01,2013-04-02 20:51:00,
2013-04-02 16:52:00,37.5,14.8,29.74,WNW,296,14.0,16.0,39,0.00,,SKC,0.00,VWS V13.01,2013-04-02 20:52:00,
2013-04-02 16:53:00,37.5,14.8,29.74,South,188,3.0,16.0,39,0.00,,SKC,0.00,VWS V13.01,2013-04-02 20:53:00,
2013-04-02 16:54:00,37.5,14.8,29.74,NW,315,9.0,16.0,39,0.00,,SKC,0.00,VWS V13.01,2013-04-02 20:54:00,
2013-04-02 16:56:00,37.5,14.2,29.74,NNW,333,2.0,16.0,38,0.00,,SKC,0.00,VWS V13.01,2013-04-02 20:56:00,
2013-04-02 16:57:00,37.5,14.2,29.74,West,264,10.0,16.0,38,0.00,,SKC,0.00,VWS V13.01,2013-04-02 20:57:00,
2013-04-02 16:58:00,37.6,14.9,29.74,NW,319,13.0,16.0,39,0.00,,SKC,0.00,VWS V13.01,2013-04-02 20:58:00,
2013-04-02 16:59:00,37.6,15.5,29.74,West,279,8.0,16.0,40,0.00,,SKC,0.00,VWS V13.01,2013-04-02 20:59:00,
2013-04-02 17:01:00,37.7,16.7,29.74,WNW,286,6.0,6.0,42,0.00,,SKC,0.00,VWS V13.01,2013-04-02 21:01:00,
2013-04-02 17:02:00,37.7,16.1,29.74,WNW,300,2.0,10.0,41,0.00,,SKC,0.00,VWS V13.01,2013-04-02 21:02:00,
2013-04-02 17:03:00,37.8,15.7,29.75,NW,307,3.0,11.0,40,0.00,,SKC,0.00,VWS V13.01,2013-04-02 21:03:00,
2013-04-02 17:04:00,37.8,15.7,29.74,WSW,245,9.0,11.0,40,0.00,,SKC,0.00,VWS V13.01,2013-04-02 21:04:00,
2013-04-02 17:06:00,37.6,14.9,29.75,WNW,302,10.0,11.0,39,0.00,,SKC,0.00,VWS V13.01,2013-04-02 21:06:00,
2013-04-02 17:07:00,37.5,15.4,29.75,West,281,5.0,11.0,40,0.00,,SKC,0.00,VWS V13.01,2013-04-02 21:07:00,
2013-04-02 17:08:00,37.5,16.0,29.74,North,5,6.0,11.0,41,0.00,,SKC,0.00,VWS V13.01,2013-04-02 21:08:00,
2013-04-02 17:09:00,37.5,15.4,29.74,NNW,342,5.0,11.0,40,0.00,,SKC,0.00,VWS V13.01,2013-04-02 21:09:00,
2013-04-02 17:11:00,37.4,15.3,29.75,West,269,3.0,12.0,40,0.00,,SKC,0.00,VWS V13.01,2013-04-02 21:11:00,
2013-04-02 17:12:00,37.4,15.3,29.75,NNW,348,1.0,12.0,40,0.00,,SKC,0.00,VWS V13.01,2013-04-02 21:12:00,
2013-04-02 17:13:00,37.3,14.6,29.75,NW,313,6.0,12.0,39,0.00,,SKC,0.00,VWS V13.01,2013-04-02 21:13:00,
2013-04-02 17:14:00,37.2,15.1,29.75,WNW,298,7.0,14.0,40,0.00,,SKC,0.00,VWS V13.01,2013-04-02 21:14:00,
2013-04-02 17:15:00,37.1,15.0,29.75,NNW,345,4.0,14.0,40,0.00,,SKC,0.00,VWS V13.01,2013-04-02 21:15:00,
2013-04-02 17:16:00,37.0,15.5,29.75,NW,309,4.0,14.0,41,0.00,,SKC,0.00,VWS V13.01,2013-04-02 21:16:00,
2013-04-02 17:17:00,36.9,14.3,29.75,NW,308,9.0,14.0,39,0.00,,SKC,0.00,VWS V13.01,2013-04-02 21:17:00,
2013-04-02 17:18:00,36.8,14.2,29.75,North,11,5.0,14.0,39,0.00,,SKC,0.00,VWS V13.01,2013-04-02 21:18:00,
2013-04-02 17:19:00,36.7,14.1,29.75,WNW,303,6.0,14.0,39,0.00,,SKC,0.00,VWS V13.01,2013-04-02 21:19:00,
2013-04-02 17:20:00,36.5,13.9,29.75,WNW,292,5.0,14.0,39,0.00,,SKC,0.00,VWS V13.01,2013-04-02 21:20:00,
2013-04-02 17:21:00,36.4,15.0,29.75,WSW,254,2.0,16.0,41,0.00,,SKC,0.00,VWS V13.01,2013-04-02 21:21:00,
2013-04-02 17:22:00,36.3,14.9,29.75,NNE,25,4.0,16.0,41,0.00,,SKC,0.00,VWS V13.01,2013-04-02 21:22:00,
2013-04-02 17:23:00,36.3,15.4,29.75,WNW,298,9.0,16.0,42,0.00,,SKC,0.00,VWS V13.01,2013-04-02 21:23:00,
2013-04-02 17:24:00,36.2,14.8,29.75,North,360,5.0,16.0,41,0.00,,SKC,0.00,VWS V13.01,2013-04-02 21:24:00,
2013-04-02 17:25:00,36.1,14.1,29.75,NW,321,9.0,16.0,40,0.00,,SKC,0.00,VWS V13.01,2013-04-02 21:25:00,
2013-04-02 17:26:00,36.0,15.1,29.75,North,355,7.0,16.0,42,0.00,,SKC,0.00,VWS V13.01,2013-04-02 21:26:00,
2013-04-02 17:27:00,35.9,14.5,29.75,SW,226,3.0,16.0,41,0.00,,SKC,0.00,VWS V13.01,2013-04-02 21:27:00,
2013-04-02 17:28:00,35.9,13.9,29.75,WNW,288,4.0,16.0,40,0.00,,SKC,0.00,VWS V13.01,2013-04-02 21:28:00,
2013-04-02 17:29:00,35.7,13.8,29.75,NNE,18,2.0,16.0,40,0.00,,SKC,0.00,VWS V13.01,2013-04-02 21:29:00,
2013-04-02 17:30:00,35.7,14.3,29.75,WNW,286,3.0,16.0,41,0.00,,SKC,0.00,VWS V13.01,2013-04-02 21:30:00,
2013-04-02 17:31:00,35.6,13.7,29.75,NW,310,7.0,7.0,40,0.00,,SKC,0.00,VWS V13.01,2013-04-02 21:31:00,
2013-04-02 17:33:00,35.5,14.7,29.75,South,185,6.0,15.0,42,0.00,,SKC,0.00,VWS V13.01,2013-04-02 21:33:00,
2013-04-02 17:34:00,35.5,15.2,29.75,NW,304,10.0,15.0,43,0.00,,SKC,0.00,VWS V13.01,2013-04-02 21:34:00,
2013-04-02 17:35:00,35.5,15.8,29.75,West,264,5.0,15.0,44,0.00,,SKC,0.00,VWS V13.01,2013-04-02 21:35:00,
2013-04-02 17:36:00,35.5,15.8,29.75,NW,314,5.0,15.0,44,0.00,,SKC,0.00,VWS V13.01,2013-04-02 21:36:00,
2013-04-02 17:37:00,35.4,16.7,29.75,SW,215,3.0,15.0,46,0.00,,SKC,0.00,VWS V13.01,2013-04-02 21:37:00,
2013-04-02 17:38:00,35.4,17.2,29.75,SW,233,6.0,15.0,47,0.00,,SKC,0.00,VWS V13.01,2013-04-02 21:38:00,
2013-04-02 17:39:00,35.4,17.2,29.75,WNW,302,3.0,15.0,47,0.00,,SKC,0.00,VWS V13.01,2013-04-02 21:39:00,
2013-04-02 17:41:00,35.4,16.7,29.76,WNW,285,5.0,15.0,46,0.00,,SKC,0.00,VWS V13.01,2013-04-02 21:41:00,
2013-04-02 17:42:00,35.5,17.3,29.75,North,5,4.0,15.0,47,0.00,,SKC,0.00,VWS V13.01,2013-04-02 21:42:00,
2013-04-02 17:43:00,35.5,17.3,29.75,NNW,334,7.0,15.0,47,0.00,,SKC,0.00,VWS V13.01,2013-04-02 21:43:00,
2013-04-02 17:44:00,35.4,17.2,29.75,WSW,252,5.0,15.0,47,0.00,,SKC,0.00,VWS V13.01,2013-04-02 21:44:00,
2013-04-02 17:45:00,35.4,17.2,29.75,SE,138,3.0,15.0,47,0.00,,SKC,0.00,VWS V13.01,2013-04-02 21:45:00,
2013-04-02 17:46:00,35.3,17.1,29.75,West,281,8.0,15.0,47,0.00,,SKC,0.00,VWS V13.01,2013-04-02 21:46:00,
2013-04-02 17:47:00,35.4,17.7,29.76,NW,316,10.0,15.0,48,0.00,,SKC,0.00,VWS V13.01,2013-04-02 21:47:00,
2013-04-02 17:48:00,35.3,17.1,29.75,WSW,248,4.0,15.0,47,0.00,,SKC,0.00,VWS V13.01,2013-04-02 21:48:00,
2013-04-02 17:49:00,35.3,16.6,29.75,NW,310,2.0,15.0,46,0.00,,SKC,0.00,VWS V13.01,2013-04-02 21:49:00,
2013-04-02 17:51:00,35.4,16.7,29.76,WNW,300,2.0,15.0,46,0.00,,SKC,0.00,VWS V13.01,2013-04-02 21:51:00,
2013-04-02 17:52:00,35.4,17.2,29.76,North,355,5.0,15.0,47,0.00,,SKC,0.00,VWS V13.01,2013-04-02 21:52:00,
2013-04-02 17:53:00,35.4,16.7,29.76,NW,325,4.0,15.0,46,0.00,,SKC,0.00,VWS V13.01,2013-04-02 21:53:00,
2013-04-02 17:54:00,35.5,17.3,29.76,NW,307,4.0,15.0,47,0.00,,SKC,0.00,VWS V13.01,2013-04-02 21:54:00,
2013-04-02 17:55:00,35.5,16.8,29.76,NE,43,2.0,15.0,46,0.00,,SKC,0.00,VWS V13.01,2013-04-02 21:55:00,
2013-04-02 17:56:00,35.6,16.9,29.76,WSW,247,4.0,15.0,46,0.00,,SKC,0.00,VWS V13.01,2013-04-02 21:56:00,
2013-04-02 17:57:00,35.6,16.9,29.76,West,280,5.0,15.0,46,0.00,,SKC,0.00,VWS V13.01,2013-04-02 21:57:00,
2013-04-02 17:58:00,35.6,15.9,29.76,ENE,57,3.0,15.0,44,0.00,,SKC,0.00,VWS V13.01,2013-04-02 21:58:00,
2013-04-02 17:59:00,35.6,15.9,29.76,NW,314,5.0,15.0,44,0.00,,SKC,0.00,VWS V13.01,2013-04-02 21:59:00,
2013-04-02 18:00:00,35.6,16.9,29.76,West,277,4.0,15.0,46,0.00,,SKC,0.00,VWS V13.01,2013-04-02 22:00:00,
2013-04-02 18:01:00,35.6,15.9,29.76,NE,34,3.0,7.0,44,0.00,,SKC,0.00,VWS V13.01,2013-04-02 22:01:00,
2013-04-02 18:02:00,35.6,16.4,29.77,NNE,19,2.0,7.0,45,0.00,,SKC,0.00,VWS V13.01,2013-04-02 22:02:00,
2013-04-02 18:03:00,35.6,15.9,29.77,WNW,294,5.0,7.0,44,0.00,,SKC,0.00,VWS V13.01,2013-04-02 22:03:00,
2013-04-02 18:06:00,35.5,15.8,29.77,WNW,303,3.0,10.0,44,0.00,,SKC,0.00,VWS V13.01,2013-04-02 22:06:00,
2013-04-02 18:07:00,35.5,15.8,29.77,WNW,292,5.0,10.0,44,0.00,,SKC,0.00,VWS V13.01,2013-04-02 22:07:00,
2013-04-02 18:08:00,35.5,15.8,29.77,North,5,12.0,12.0,44,0.00,,SKC,0.00,VWS V13.01,2013-04-02 22:08:00,
2013-04-02 18:09:00,35.4,15.1,29.77,North,11,7.0,14.0,43,0.00,,SKC,0.00,VWS V13.01,2013-04-02 22:09:00,
2013-04-02 18:10:00,35.3,14.0,29.77,WNW,284,7.0,14.0,41,0.00,,SKC,0.00,VWS V13.01,2013-04-02 22:10:00,
2013-04-02 18:11:00,35.3,13.4,29.77,NW,321,1.0,14.0,40,0.00,,SKC,0.00,VWS V13.01,2013-04-02 22:11:00,
2013-04-02 18:12:00,35.2,13.9,29.76,NNW,336,6.0,14.0,41,0.00,,SKC,0.00,VWS V13.01,2013-04-02 22:12:00,
2013-04-02 18:13:00,35.1,13.2,29.77,NNW,329,2.0,14.0,40,0.00,,SKC,0.00,VWS V13.01,2013-04-02 22:13:00,
2013-04-02 18:14:00,35.1,13.2,29.77,NNW,329,0.0,14.0,40,0.00,,SKC,0.00,VWS V13.01,2013-04-02 22:14:00,
2013-04-02 18:16:00,35.1,13.8,29.76,NW,325,4.0,14.0,41,0.00,,SKC,0.00,VWS V13.01,2013-04-02 22:16:00,
2013-04-02 18:17:00,35.0,13.7,29.77,NNW,327,4.0,14.0,41,0.00,,SKC,0.00,VWS V13.01,2013-04-02 22:17:00,
2013-04-02 18:18:00,35.0,13.7,29.77,NE,44,0.0,14.0,41,0.00,,SKC,0.00,VWS V13.01,2013-04-02 22:18:00,
2013-04-02 18:19:00,35.0,13.7,29.77,NNE,28,6.0,14.0,41,0.00,,SKC,0.00,VWS V13.01,2013-04-02 22:19:00,
2013-04-02 18:20:00,35.0,13.7,29.76,NNE,22,2.0,14.0,41,0.00,,SKC,0.00,VWS V13.01,2013-04-02 22:20:00,
2013-04-02 18:21:00,35.0,13.7,29.76,NNE,23,0.0,14.0,41,0.00,,SKC,0.00,VWS V13.01,2013-04-02 22:21:00,
2013-04-02 18:22:00,35.0,13.7,29.77,NW,315,1.0,14.0,41,0.00,,SKC,0.00,VWS V13.01,2013-04-02 22:22:00,
2013-04-02 18:23:00,35.0,13.7,29.77,ENE,74,3.0,14.0,41,0.00,,SKC,0.00,VWS V13.01,2013-04-02 22:23:00,
2013-04-02 18:24:00,35.0,14.2,29.77,NW,317,6.0,14.0,42,0.00,,SKC,0.00,VWS V13.01,2013-04-02 22:24:00,
2013-04-02 18:26:00,35.1,13.8,29.77,West,265,0.0,14.0,41,0.00,,SKC,0.00,VWS V13.01,2013-04-02 22:26:00,
2013-04-02 18:27:00,35.1,13.8,29.77,NW,313,3.0,14.0,41,0.00,,SKC,0.00,VWS V13.01,2013-04-02 22:27:00,
2013-04-02 18:28:00,35.1,13.2,29.77,West,271,9.0,14.0,40,0.00,,SKC,0.00,VWS V13.01,2013-04-02 22:28:00,
2013-04-02 18:29:00,35.2,13.3,29.77,WNW,300,0.0,14.0,40,0.00,,SKC,0.00,VWS V13.01,2013-04-02 22:29:00,
2013-04-02 18:30:00,35.2,13.3,29.77,North,355,3.0,14.0,40,0.00,,SKC,0.00,VWS V13.01,2013-04-02 22:30:00,
2013-04-02 18:31:00,35.2,12.7,29.77,NW,322,10.0,10.0,39,0.00,,SKC,0.00,VWS V13.01,2013-04-02 22:31:00,
2013-04-02 18:32:00,35.2,13.3,29.77,NW,311,1.0,10.0,40,0.00,,SKC,0.00,VWS V13.01,2013-04-02 22:32:00,
2013-04-02 18:33:00,35.2,13.3,29.77,WNW,284,3.0,10.0,40,0.00,,SKC,0.00,VWS V13.01,2013-04-02 22:33:00,
2013-04-02 18:34:00,35.3,14.0,29.77,WNW,297,2.0,10.0,41,0.00,,SKC,0.00,VWS V13.01,2013-04-02 22:34:00,
2013-04-02 18:35:00,35.3,13.4,29.77,NW,304,2.0,10.0,40,0.00,,SKC,0.00,VWS V13.01,2013-04-02 22:35:00,
2013-04-02 18:36:00,35.3,13.4,29.77,NW,304,2.0,10.0,40,0.00,,SKC,0.00,VWS V13.01,2013-04-02 22:36:00,
2013-04-02 18:37:00,35.3,13.4,29.77,North,360,7.0,10.0,40,0.00,,SKC,0.00,VWS V13.01,2013-04-02 22:37:00,
2013-04-02 18:38:00,35.3,12.8,29.78,ENE,60,20.0,20.0,39,0.00,,SKC,0.00,VWS V13.01,2013-04-02 22:38:00,
2013-04-02 18:39:00,35.3,12.8,29.77,SSW,205,2.0,20.0,39,0.00,,SKC,0.00,VWS V13.01,2013-04-02 22:39:00,
2013-04-02 18:40:00,35.3,12.2,29.78,NNW,340,2.0,20.0,38,0.00,,SKC,0.00,VWS V13.01,2013-04-02 22:40:00,
2013-04-02 18:41:00,35.3,12.8,29.78,North,355,5.0,20.0,39,0.00,,SKC,0.00,VWS V13.01,2013-04-02 22:41:00,
2013-04-02 18:42:00,35.3,12.8,29.78,NNW,348,3.0,20.0,39,0.00,,SKC,0.00,VWS V13.01,2013-04-02 22:42:00,
2013-04-02 18:43:00,35.3,13.4,29.78,West,275,7.0,20.0,40,0.00,,SKC,0.00,VWS V13.01,2013-04-02 22:43:00,
2013-04-02 18:44:00,35.2,12.7,29.78,NW,324,2.0,20.0,39,0.00,,SKC,0.00,VWS V13.01,2013-04-02 22:44:00,
2013-04-02 18:45:00,35.2,12.7,29.78,NNW,337,5.0,20.0,39,0.00,,SKC,0.00,VWS V13.01,2013-04-02 22:45:00,
2013-04-02 18:46:00,35.2,12.7,29.78,North,355,10.0,20.0,39,0.00,,SKC,0.00,VWS V13.01,2013-04-02 22:46:00,
2013-04-02 18:47:00,35.2,12.7,29.78,NNW,344,7.0,20.0,39,0.00,,SKC,0.00,VWS V13.01,2013-04-02 22:47:00,
2013-04-02 18:48:00,35.1,12.6,29.78,WNW,298,15.0,20.0,39,0.00,,SKC,0.00,VWS V13.01,2013-04-02 22:48:00,
2013-04-02 18:49:00,35.0,12.6,29.79,NNW,345,9.0,20.0,39,0.00,,SKC,0.00,VWS V13.01,2013-04-02 22:49:00,
2013-04-02 18:50:00,34.9,13.0,29.79,NNE,18,13.0,20.0,40,0.00,,SKC,0.00,VWS V13.01,2013-04-02 22:50:00,
2013-04-02 18:51:00,34.8,12.9,29.79,NNW,336,3.0,20.0,40,0.00,,SKC,0.00,VWS V13.01,2013-04-02 22:51:00,
2013-04-02 18:52:00,34.7,12.9,29.79,NNW,333,2.0,20.0,40,0.00,,SKC,0.00,VWS V13.01,2013-04-02 22:52:00,
2013-04-02 18:53:00,34.5,12.7,29.79,North,5,7.0,20.0,40,0.00,,SKC,0.00,VWS V13.01,2013-04-02 22:53:00,
2013-04-02 18:54:00,34.4,13.1,29.79,NNW,347,12.0,20.0,41,0.00,,SKC,0.00,VWS V13.01,2013-04-02 22:54:00,
2013-04-02 18:56:00,34.4,13.7,29.79,ENE,57,14.0,20.0,42,0.00,,SKC,0.00,VWS V13.01,2013-04-02 22:56:00,
2013-04-02 18:57:00,34.4,13.1,29.79,NNE,26,3.0,20.0,41,0.00,,SKC,0.00,VWS V13.01,2013-04-02 22:57:00,
2013-04-02 18:58:00,34.3,13.6,29.79,NW,304,3.0,20.0,42,0.00,,SKC,0.00,VWS V13.01,2013-04-02 22:58:00,
2013-04-02 18:59:00,34.2,14.1,29.79,NNW,336,6.0,20.0,43,0.00,,SKC,0.00,VWS V13.01,2013-04-02 22:59:00,
2013-04-02 19:01:00,34.1,13.4,29.79,NNW,328,4.0,7.0,42,0.00,,SKC,0.00,VWS V13.01,2013-04-02 23:01:00,
2013-04-02 19:02:00,34.1,12.9,29.79,NNE,22,6.0,7.0,41,0.00,,SKC,0.00,VWS V13.01,2013-04-02 23:02:00,
2013-04-02 19:03:00,34.1,13.4,29.79,West,268,10.0,12.0,42,0.00,,SKC,0.00,VWS V13.01,2013-04-02 23:03:00,
2013-04-02 19:04:00,34.1,13.4,29.79,North,5,2.0,12.0,42,0.00,,SKC,0.00,VWS V13.01,2013-04-02 23:04:00,
2013-04-02 19:05:00,34.1,13.4,29.80,East,88,12.0,15.0,42,0.00,,SKC,0.00,VWS V13.01,2013-04-02 23:05:00,
2013-04-02 19:06:00,34.0,13.3,29.80,NNW,342,2.0,18.0,42,0.00,,SKC,0.00,VWS V13.01,2013-04-02 23:06:00,
2013-04-02 19:07:00,34.0,13.3,29.80,NNE,14,9.0,18.0,42,0.00,,SKC,0.00,VWS V13.01,2013-04-02 23:07:00,
2013-04-02 19:08:00,34.0,13.3,29.80,West,274,12.0,19.0,42,0.00,,SKC,0.00,VWS V13.01,2013-04-02 23:08:00,
2013-04-02 19:09:00,33.9,13.2,29.79,NNE,14,6.0,19.0,42,0.00,,SKC,0.00,VWS V13.01,2013-04-02 23:09:00,
2013-04-02 19:11:00,33.9,13.8,29.80,NNW,341,5.0,19.0,43,0.00,,SKC,0.00,VWS V13.01,2013-04-02 23:11:00,
2013-04-02 19:12:00,33.9,13.8,29.80,NNW,330,10.0,19.0,43,0.00,,SKC,0.00,VWS V13.01,2013-04-02 23:12:00,
2013-04-02 19:13:00,33.8,14.2,29.80,WNW,287,2.0,19.0,44,0.00,,SKC,0.00,VWS V13.01,2013-04-02 23:13:00,
2013-04-02 19:14:00,33.8,13.7,29.80,NNE,33,6.0,19.0,43,0.00,,SKC,0.00,VWS V13.01,2013-04-02 23:14:00,
2013-04-02 19:15:00,33.7,13.6,29.80,North,355,12.0,19.0,43,0.00,,SKC,0.00,VWS V13.01,2013-04-02 23:15:00,
2013-04-02 19:16:00,33.7,13.6,29.80,North,9,4.0,19.0,43,0.00,,SKC,0.00,VWS V13.01,2013-04-02 23:16:00,
2013-04-02 19:17:00,33.7,13.6,29.80,SW,236,5.0,19.0,43,0.00,,SKC,0.00,VWS V13.01,2013-04-02 23:17:00,
2013-04-02 19:18:00,33.7,14.1,29.80,NNW,342,4.0,19.0,44,0.00,,SKC,0.00,VWS V13.01,2013-04-02 23:18:00,
2013-04-02 19:19:00,33.7,14.1,29.80,NNE,15,2.0,19.0,44,0.00,,SKC,0.00,VWS V13.01,2013-04-02 23:19:00,
2013-04-02 19:21:00,33.6,14.0,29.80,NNW,327,3.0,19.0,44,0.00,,SKC,0.00,VWS V13.01,2013-04-02 23:21:00,
2013-04-02 19:22:00,33.6,14.0,29.80,North,5,7.0,19.0,44,0.00,,SKC,0.00,VWS V13.01,2013-04-02 23:22:00,
2013-04-02 19:23:00,33.6,14.0,29.80,NNW,331,0.0,19.0,44,0.00,,SKC,0.00,VWS V13.01,2013-04-02 23:23:00,
2013-04-02 19:24:00,33.6,14.0,29.80,ENE,76,4.0,19.0,44,0.00,,SKC,0.00,VWS V13.01,2013-04-02 23:24:00,
2013-04-02 19:26:00,33.5,13.4,29.80,NW,318,4.0,19.0,43,0.00,,SKC,0.00,VWS V13.01,2013-04-02 23:26:00,
2013-04-02 19:27:00,33.5,13.9,29.80,NNW,334,9.0,19.0,44,0.00,,SKC,0.00,VWS V13.01,2013-04-02 23:27:00,
2013-04-02 19:28:00,33.5,13.9,29.80,NW,317,4.0,19.0,44,0.00,,SKC,0.00,VWS V13.01,2013-04-02 23:28:00,
2013-04-02 19:29:00,33.5,13.9,29.80,NNW,345,4.0,19.0,44,0.00,,SKC,0.00,VWS V13.01,2013-04-02 23:29:00,
2013-04-02 19:30:00,33.4,13.3,29.81,NNW,345,3.0,19.0,43,0.00,,SKC,0.00,VWS V13.01,2013-04-02 23:30:00,
2013-04-02 19:31:00,33.4,13.3,29.81,NNW,339,4.0,4.0,43,0.00,,SKC,0.00,VWS V13.01,2013-04-02 23:31:00,
2013-04-02 19:32:00,33.4,13.3,29.81,NW,326,7.0,12.0,43,0.00,,SKC,0.00,VWS V13.01,2013-04-02 23:32:00,
2013-04-02 19:33:00,33.4,13.3,29.81,NNW,329,5.0,14.0,43,0.00,,SKC,0.00,VWS V13.01,2013-04-02 23:33:00,
2013-04-02 19:34:00,33.4,13.3,29.81,ENE,66,6.0,14.0,43,0.00,,SKC,0.00,VWS V13.01,2013-04-02 23:34:00,
2013-04-02 19:35:00,33.4,13.3,29.81,NNE,18,4.0,14.0,43,0.00,,SKC,0.00,VWS V13.01,2013-04-02 23:35:00,
2013-04-02 19:36:00,33.4,13.3,29.81,NNE,13,1.0,14.0,43,0.00,,SKC,0.00,VWS V13.01,2013-04-02 23:36:00,
2013-04-02 19:37:00,33.4,13.3,29.81,NNW,340,4.0,14.0,43,0.00,,SKC,0.00,VWS V13.01,2013-04-02 23:37:00,
2013-04-02 19:38:00,33.4,13.9,29.81,NNE,19,5.0,15.0,44,0.00,,SKC,0.00,VWS V13.01,2013-04-02 23:38:00,
2013-04-02 19:39:00,33.4,13.3,29.81,North,355,6.0,15.0,43,0.00,,SKC,0.00,VWS V13.01,2013-04-02 23:39:00,
2013-04-02 19:40:00,33.4,13.9,29.81,NNE,17,7.0,15.0,44,0.00,,SKC,0.00,VWS V13.01,2013-04-02 23:40:00,
2013-04-02 19:41:00,33.4,13.9,29.82,NNE,15,7.0,15.0,44,0.00,,SKC,0.00,VWS V13.01,2013-04-02 23:41:00,
2013-04-02 19:42:00,33.4,13.9,29.82,North,11,1.0,15.0,44,0.00,,SKC,0.00,VWS V13.01,2013-04-02 23:42:00,
2013-04-02 19:43:00,33.4,13.9,29.81,NW,318,3.0,15.0,44,0.00,,SKC,0.00,VWS V13.01,2013-04-02 23:43:00,
2013-04-02 19:44:00,33.4,13.9,29.81,NW,321,1.0,15.0,44,0.00,,SKC,0.00,VWS V13.01,2013-04-02 23:44:00,
2013-04-02 19:45:00,33.3,13.8,29.81,NE,46,5.0,15.0,44,0.00,,SKC,0.00,VWS V13.01,2013-04-02 23:45:00,
2013-04-02 19:46:00,33.2,13.7,29.81,North,10,3.0,15.0,44,0.00,,SKC,0.00,VWS V13.01,2013-04-02 23:46:00,
2013-04-02 19:47:00,33.2,13.7,29.81,North,360,5.0,15.0,44,0.00,,SKC,0.00,VWS V13.01,2013-04-02 23:47:00,
2013-04-02 19:48:00,33.2,13.7,29.81,North,360,4.0,15.0,44,0.00,,SKC,0.00,VWS V13.01,2013-04-02 23:48:00,
2013-04-02 19:49:00,33.2,13.7,29.81,NW,312,3.0,15.0,44,0.00,,SKC,0.00,VWS V13.01,2013-04-02 23:49:00,
2013-04-02 19:50:00,33.1,13.6,29.81,North,11,8.0,15.0,44,0.00,,SKC,0.00,VWS V13.01,2013-04-02 23:50:00,
2013-04-02 19:51:00,33.1,13.6,29.81,NNW,340,2.0,15.0,44,0.00,,SKC,0.00,VWS V13.01,2013-04-02 23:51:00,
2013-04-02 19:52:00,33.1,13.6,29.82,NNW,340,3.0,15.0,44,0.00,,SKC,0.00,VWS V13.01,2013-04-02 23:52:00,
2013-04-02 19:53:00,33.0,13.5,29.82,NW,309,1.0,15.0,44,0.00,,SKC,0.00,VWS V13.01,2013-04-02 23:53:00,
2013-04-02 19:54:00,33.0,14.0,29.82,NNW,348,2.0,15.0,45,0.00,,SKC,0.00,VWS V13.01,2013-04-02 23:54:00,
2013-04-02 19:56:00,32.9,13.9,29.82,WNW,296,2.0,15.0,45,0.00,,SKC,0.00,VWS V13.01,2013-04-02 23:56:00,
2013-04-02 19:57:00,32.9,13.9,29.82,North,360,2.0,15.0,45,0.00,,SKC,0.00,VWS V13.01,2013-04-02 23:57:00,
2013-04-02 19:58:00,32.8,13.3,29.82,North,360,2.0,15.0,44,0.00,,SKC,0.00,VWS V13.01,2013-04-02 23:58:00,
2013-04-02 19:59:00,32.8,13.8,29.82,WNW,290,4.0,15.0,45,0.00,,SKC,0.00,VWS V13.01,2013-04-02 23:59:00,
2013-04-02 20:00:00,32.8,13.8,29.82,WNW,291,3.0,15.0,45,0.00,,SKC,0.00,VWS V13.01,2013-04-03 00:00:00,
2013-04-02 20:01:00,32.7,13.7,29.82,WNW,295,3.0,3.0,45,0.00,,SKC,0.00,VWS V13.01,2013-04-03 00:01:00,
2013-04-02 20:02:00,32.7,13.7,29.82,WNW,295,2.0,3.0,45,0.00,,SKC,0.00,VWS V13.01,2013-04-03 00:02:00,
2013-04-02 20:03:00,32.7,14.2,29.82,WNW,295,1.0,3.0,46,0.00,,SKC,0.00,VWS V13.01,2013-04-03 00:03:00,
2013-04-02 20:04:00,32.6,14.1,29.82,WNW,298,5.0,5.0,46,0.00,,SKC,0.00,VWS V13.01,2013-04-03 00:04:00,
2013-04-02 20:05:00,32.6,14.1,29.82,North,360,3.0,5.0,46,0.00,,SKC,0.00,VWS V13.01,2013-04-03 00:05:00,
2013-04-02 20:06:00,32.6,14.1,29.82,NNE,18,4.0,6.0,46,0.00,,SKC,0.00,VWS V13.01,2013-04-03 00:06:00,
2013-04-02 20:07:00,32.6,14.1,29.82,North,360,2.0,6.0,46,0.00,,SKC,0.00,VWS V13.01,2013-04-03 00:07:00,
2013-04-02 20:08:00,32.5,13.5,29.83,NNE,28,3.0,10.0,45,0.00,,SKC,0.00,VWS V13.01,2013-04-03 00:08:00,
2013-04-02 20:09:00,32.5,14.0,29.83,NW,305,6.0,10.0,46,0.00,,SKC,0.00,VWS V13.01,2013-04-03 00:09:00,
2013-04-02 20:11:00,32.6,13.6,29.83,West,280,1.0,11.0,45,0.00,,SKC,0.00,VWS V13.01,2013-04-03 00:11:00,
2013-04-02 20:12:00,32.6,13.6,29.83,NNE,26,5.0,11.0,45,0.00,,SKC,0.00,VWS V13.01,2013-04-03 00:12:00,
2013-04-02 20:13:00,32.6,13.6,29.83,NNE,13,2.0,11.0,45,0.00,,SKC,0.00,VWS V13.01,2013-04-03 00:13:00,
2013-04-02 20:14:00,32.6,13.6,29.83,West,281,6.0,11.0,45,0.00,,SKC,0.00,VWS V13.01,2013-04-03 00:14:00,
2013-04-02 20:15:00,32.6,13.6,29.83,NNW,346,7.0,11.0,45,0.00,,SKC,0.00,VWS V13.01,2013-04-03 00:15:00,
2013-04-02 20:16:00,32.6,13.6,29.83,North,351,1.0,11.0,45,0.00,,SKC,0.00,VWS V13.01,2013-04-03 00:16:00,
2013-04-02 20:17:00,32.6,13.6,29.83,NW,325,7.0,11.0,45,0.00,,SKC,0.00,VWS V13.01,2013-04-03 00:17:00,
2013-04-02 20:18:00,32.6,14.1,29.83,NW,324,2.0,11.0,46,0.00,,SKC,0.00,VWS V13.01,2013-04-03 00:18:00,
2013-04-02 20:19:00,32.7,14.2,29.83,North,360,3.0,11.0,46,0.00,,SKC,0.00,VWS V13.01,2013-04-03 00:19:00,
2013-04-02 20:20:00,32.6,14.1,29.83,North,350,12.0,12.0,46,0.00,,SKC,0.00,VWS V13.01,2013-04-03 00:20:00,
2013-04-02 20:21:00,32.6,14.1,29.83,NE,49,4.0,12.0,46,0.00,,SKC,0.00,VWS V13.01,2013-04-03 00:21:00,
2013-04-02 20:22:00,32.6,14.1,29.83,NNW,332,6.0,12.0,46,0.00,,SKC,0.00,VWS V13.01,2013-04-03 00:22:00,
2013-04-02 20:23:00,32.6,13.6,29.83,North,349,4.0,12.0,45,0.00,,SKC,0.00,VWS V13.01,2013-04-03 00:23:00,
2013-04-02 20:24:00,32.6,13.6,29.83,North,360,5.0,13.0,45,0.00,,SKC,0.00,VWS V13.01,2013-04-03 00:24:00,
2013-04-02 20:25:00,32.6,13.6,29.83,North,5,7.0,13.0,45,0.00,,SKC,0.00,VWS V13.01,2013-04-03 00:25:00,
2013-04-02 20:26:00,32.5,14.5,29.83,NNW,338,3.0,13.0,47,0.00,,SKC,0.00,VWS V13.01,2013-04-03 00:26:00,
2013-04-02 20:27:00,32.6,14.6,29.83,WNW,292,3.0,13.0,47,0.00,,SKC,0.00,VWS V13.01,2013-04-03 00:27:00,
2013-04-02 20:28:00,32.6,14.1,29.83,NW,311,5.0,13.0,46,0.00,,SKC,0.00,VWS V13.01,2013-04-03 00:28:00,
2013-04-02 20:29:00,32.6,14.1,29.83,WSW,257,4.0,13.0,46,0.00,,SKC,0.00,VWS V13.01,2013-04-03 00:29:00,
2013-04-02 20:30:00,32.6,14.1,29.83,West,279,1.0,13.0,46,0.00,,SKC,0.00,VWS V13.01,2013-04-03 00:30:00,
2013-04-02 20:31:00,32.6,14.1,29.83,NNW,343,4.0,4.0,46,0.00,,SKC,0.00,VWS V13.01,2013-04-03 00:31:00,
2013-04-02 20:32:00,32.6,13.6,29.83,WNW,296,6.0,14.0,45,0.00,,SKC,0.00,VWS V13.01,2013-04-03 00:32:00,
2013-04-02 20:33:00,32.6,13.6,29.83,WNW,286,2.0,14.0,45,0.00,,SKC,0.00,VWS V13.01,2013-04-03 00:33:00,
2013-04-02 20:34:00,32.6,14.1,29.83,West,280,2.0,14.0,46,0.00,,SKC,0.00,VWS V13.01,2013-04-03 00:34:00,
2013-04-02 20:36:00,32.6,14.1,29.83,NNW,339,3.0,14.0,46,0.00,,SKC,0.00,VWS V13.01,2013-04-03 00:36:00,
2013-04-02 20:37:00,32.5,14.0,29.83,NNW,348,5.0,14.0,46,0.00,,SKC,0.00,VWS V13.01,2013-04-03 00:37:00,
2013-04-02 20:38:00,32.6,14.1,29.83,WNW,296,2.0,14.0,46,0.00,,SKC,0.00,VWS V13.01,2013-04-03 00:38:00,
2013-04-02 20:39:00,32.5,14.0,29.83,WNW,288,2.0,14.0,46,0.00,,SKC,0.00,VWS V13.01,2013-04-03 00:39:00,
2013-04-02 20:40:00,32.5,14.0,29.83,NNW,329,2.0,14.0,46,0.00,,SKC,0.00,VWS V13.01,2013-04-03 00:40:00,
2013-04-02 20:41:00,32.5,14.0,29.83,NW,315,3.0,14.0,46,0.00,,SKC,0.00,VWS V13.01,2013-04-03 00:41:00,
2013-04-02 20:42:00,32.5,14.0,29.83,NW,318,3.0,14.0,46,0.00,,SKC,0.00,VWS V13.01,2013-04-03 00:42:00,
2013-04-02 20:43:00,32.5,14.0,29.83,NNW,339,1.0,14.0,46,0.00,,SKC,0.00,VWS V13.01,2013-04-03 00:43:00,
2013-04-02 20:44:00,32.5,14.0,29.83,WNW,287,4.0,14.0,46,0.00,,SKC,0.00,VWS V13.01,2013-04-03 00:44:00,
2013-04-02 20:46:00,32.4,13.9,29.84,NNW,347,4.0,14.0,46,0.00,,SKC,0.00,VWS V13.01,2013-04-03 00:46:00,
2013-04-02 20:47:00,32.4,13.9,29.84,NNW,336,1.0,14.0,46,0.00,,SKC,0.00,VWS V13.01,2013-04-03 00:47:00,
2013-04-02 20:48:00,32.4,13.9,29.84,NNW,339,3.0,14.0,46,0.00,,SKC,0.00,VWS V13.01,2013-04-03 00:48:00,
2013-04-02 20:49:00,32.4,13.9,29.84,NW,306,2.0,14.0,46,0.00,,SKC,0.00,VWS V13.01,2013-04-03 00:49:00,
2013-04-02 20:50:00,32.4,13.9,29.84,West,277,6.0,14.0,46,0.00,,SKC,0.00,VWS V13.01,2013-04-03 00:50:00,
2013-04-02 20:51:00,32.4,12.9,29.84,WNW,283,1.0,14.0,44,0.00,,SKC,0.00,VWS V13.01,2013-04-03 00:51:00,
2013-04-02 20:52:00,32.4,12.9,29.84,NNW,333,10.0,14.0,44,0.00,,SKC,0.00,VWS V13.01,2013-04-03 00:52:00,
2013-04-02 20:53:00,32.4,13.4,29.84,WNW,298,4.0,14.0,45,0.00,,SKC,0.00,VWS V13.01,2013-04-03 00:53:00,
2013-04-02 20:54:00,32.4,13.4,29.84,NW,320,4.0,14.0,45,0.00,,SKC,0.00,VWS V13.01,2013-04-03 00:54:00,
2013-04-02 20:55:00,32.4,13.9,29.84,NW,319,4.0,14.0,46,0.00,,SKC,0.00,VWS V13.01,2013-04-03 00:55:00,
2013-04-02 20:56:00,32.4,13.4,29.84,WNW,294,4.0,14.0,45,0.00,,SKC,0.00,VWS V13.01,2013-04-03 00:56:00,
2013-04-02 20:57:00,32.4,13.4,29.84,SSW,196,2.0,14.0,45,0.00,,SKC,0.00,VWS V13.01,2013-04-03 00:57:00,
2013-04-02 20:58:00,32.4,13.4,29.84,North,349,0.0,14.0,45,0.00,,SKC,0.00,VWS V13.01,2013-04-03 00:58:00,
2013-04-02 20:59:00,32.4,13.4,29.84,NNW,344,6.0,14.0,45,0.00,,SKC,0.00,VWS V13.01,2013-04-03 00:59:00,
2013-04-02 21:01:00,32.4,13.4,29.84,West,263,0.0,5.0,45,0.00,,SKC,0.00,VWS V13.01,2013-04-03 01:01:00,
2013-04-02 21:02:00,32.3,13.4,29.84,NNW,341,6.0,6.0,45,0.00,,SKC,0.00,VWS V13.01,2013-04-03 01:02:00,
2013-04-02 21:03:00,32.3,13.4,29.84,WSW,257,5.0,10.0,45,0.00,,SKC,0.00,VWS V13.01,2013-04-03 01:03:00,
2013-04-02 21:04:00,32.3,13.4,29.84,NW,311,1.0,10.0,45,0.00,,SKC,0.00,VWS V13.01,2013-04-03 01:04:00,
2013-04-02 21:05:00,32.3,13.4,29.84,SW,235,6.0,10.0,45,0.00,,SKC,0.00,VWS V13.01,2013-04-03 01:05:00,
2013-04-02 21:06:00,32.4,13.4,29.84,West,275,1.0,10.0,45,0.00,,SKC,0.00,VWS V13.01,2013-04-03 01:06:00,
2013-04-02 21:07:00,32.3,13.4,29.84,West,281,4.0,10.0,45,0.00,,SKC,0.00,VWS V13.01,2013-04-03 01:07:00,
2013-04-02 21:08:00,32.4,13.9,29.84,West,265,3.0,10.0,46,0.00,,SKC,0.00,VWS V13.01,2013-04-03 01:08:00,
2013-04-02 21:09:00,32.3,13.9,29.84,North,355,4.0,10.0,46,0.00,,SKC,0.00,VWS V13.01,2013-04-03 01:09:00,
2013-04-02 21:10:00,32.3,13.4,29.84,NNE,29,2.0,10.0,45,0.00,,SKC,0.00,VWS V13.01,2013-04-03 01:10:00,
2013-04-02 21:11:00,32.3,14.3,29.84,NW,315,0.0,10.0,47,0.00,,SKC,0.00,VWS V13.01,2013-04-03 01:11:00,
2013-04-02 21:12:00,32.3,13.9,29.84,NW,318,3.0,10.0,46,0.00,,SKC,0.00,VWS V13.01,2013-04-03 01:12:00,
2013-04-02 21:13:00,32.3,13.4,29.84,NNW,327,4.0,10.0,45,0.00,,SKC,0.00,VWS V13.01,2013-04-03 01:13:00,
2013-04-02 21:14:00,32.3,13.4,29.84,West,273,14.0,14.0,45,0.00,,SKC,0.00,VWS V13.01,2013-04-03 01:14:00,
2013-04-02 21:15:00,32.3,13.4,29.84,WNW,284,3.0,14.0,45,0.00,,SKC,0.00,VWS V13.01,2013-04-03 01:15:00,
2013-04-02 21:16:00,32.3,13.4,29.84,NNW,334,3.0,14.0,45,0.00,,SKC,0.00,VWS V13.01,2013-04-03 01:16:00,
2013-04-02 21:17:00,32.3,13.9,29.84,NW,313,4.0,14.0,46,0.00,,SKC,0.00,VWS V13.01,2013-04-03 01:17:00,
2013-04-02 21:18:00,32.3,14.3,29.84,SW,228,3.0,14.0,47,0.00,,SKC,0.00,VWS V13.01,2013-04-03 01:18:00,
2013-04-02 21:19:00,32.3,13.9,29.84,ENE,64,1.0,14.0,46,0.00,,SKC,0.00,VWS V13.01,2013-04-03 01:19:00,
2013-04-02 21:21:00,32.2,14.2,29.84,WSW,252,2.0,14.0,47,0.00,,SKC,0.00,VWS V13.01,2013-04-03 01:21:00,
2013-04-02 21:22:00,32.2,14.2,29.84,WNW,284,3.0,14.0,47,0.00,,SKC,0.00,VWS V13.01,2013-04-03 01:22:00,
2013-04-02 21:23:00,32.2,13.8,29.84,SW,229,5.0,14.0,46,0.00,,SKC,0.00,VWS V13.01,2013-04-03 01:23:00,
2013-04-02 21:24:00,32.2,13.8,29.84,NE,50,2.0,14.0,46,0.00,,SKC,0.00,VWS V13.01,2013-04-03 01:24:00,
2013-04-02 21:26:00,32.2,13.8,29.84,SW,236,5.0,14.0,46,0.00,,SKC,0.00,VWS V13.01,2013-04-03 01:26:00,
2013-04-02 21:27:00,32.2,13.8,29.84,SSW,196,5.0,14.0,46,0.00,,SKC,0.00,VWS V13.01,2013-04-03 01:27:00,
2013-04-02 21:28:00,32.2,13.8,29.84,NNE,27,4.0,14.0,46,0.00,,SKC,0.00,VWS V13.01,2013-04-03 01:28:00,
2013-04-02 21:29:00,32.2,14.2,29.84,NW,306,4.0,14.0,47,0.00,,SKC,0.00,VWS V13.01,2013-04-03 01:29:00,
2013-04-02 21:30:00,32.2,13.8,29.84,WSW,254,3.0,14.0,46,0.00,,SKC,0.00,VWS V13.01,2013-04-03 01:30:00,
2013-04-02 21:31:00,32.2,13.8,29.84,SSW,198,2.0,9.0,46,0.00,,SKC,0.00,VWS V13.01,2013-04-03 01:31:00,
2013-04-02 21:32:00,32.2,13.8,29.84,SSW,199,0.0,9.0,46,0.00,,SKC,0.00,VWS V13.01,2013-04-03 01:32:00,
2013-04-02 21:33:00,32.1,13.7,29.84,SW,229,2.0,10.0,46,0.00,,SKC,0.00,VWS V13.01,2013-04-03 01:33:00,
2013-04-02 21:34:00,32.1,14.2,29.84,NW,307,1.0,10.0,47,0.00,,SKC,0.00,VWS V13.01,2013-04-03 01:34:00,
2013-04-02 21:35:00,32.1,13.7,29.84,NW,310,2.0,10.0,46,0.00,,SKC,0.00,VWS V13.01,2013-04-03 01:35:00,
2013-04-02 21:36:00,32.1,14.2,29.84,WNW,291,5.0,10.0,47,0.00,,SKC,0.00,VWS V13.01,2013-04-03 01:36:00,
2013-04-02 21:37:00,32.1,14.2,29.84,SW,223,4.0,10.0,47,0.00,,SKC,0.00,VWS V13.01,2013-04-03 01:37:00,
2013-04-02 21:38:00,32.1,14.6,29.84,NE,37,4.0,10.0,48,0.00,,SKC,0.00,VWS V13.01,2013-04-03 01:38:00,
2013-04-02 21:39:00,32.1,14.2,29.85,WNW,297,3.0,10.0,47,0.00,,SKC,0.00,VWS V13.01,2013-04-03 01:39:00,
2013-04-02 21:40:00,32.1,13.7,29.84,NNW,340,4.0,10.0,46,0.00,,SKC,0.00,VWS V13.01,2013-04-03 01:40:00,
2013-04-02 21:41:00,32.0,13.6,29.84,NNE,22,5.0,10.0,46,0.00,,SKC,0.00,VWS V13.01,2013-04-03 01:41:00,
2013-04-02 21:42:00,32.0,13.6,29.84,WNW,293,10.0,10.0,46,0.00,,SKC,0.00,VWS V13.01,2013-04-03 01:42:00,
2013-04-02 21:43:00,32.0,13.6,29.84,NNW,340,4.0,10.0,46,0.00,,SKC,0.00,VWS V13.01,2013-04-03 01:43:00,
2013-04-02 21:44:00,32.0,14.1,29.84,WNW,283,11.0,11.0,47,0.00,,SKC,0.00,VWS V13.01,2013-04-03 01:44:00,
2013-04-02 21:45:00,32.0,14.1,29.84,NNW,327,6.0,11.0,47,0.00,,SKC,0.00,VWS V13.01,2013-04-03 01:45:00,
2013-04-02 21:46:00,32.0,14.1,29.84,West,263,4.0,11.0,47,0.00,,SKC,0.00,VWS V13.01,2013-04-03 01:46:00,
2013-04-02 21:47:00,32.0,14.1,29.84,West,273,2.0,11.0,47,0.00,,SKC,0.00,VWS V13.01,2013-04-03 01:47:00,
2013-04-02 21:48:00,32.0,14.1,29.84,WNW,298,2.0,11.0,47,0.00,,SKC,0.00,VWS V13.01,2013-04-03 01:48:00,
2013-04-02 21:49:00,32.0,14.1,29.84,NNE,28,2.0,11.0,47,0.00,,SKC,0.00,VWS V13.01,2013-04-03 01:49:00,
2013-04-02 21:50:00,31.9,14.4,29.84,NNE,25,2.0,11.0,48,0.00,,SKC,0.00,VWS V13.01,2013-04-03 01:50:00,
2013-04-02 21:51:00,31.9,14.4,29.84,WSW,240,5.0,11.0,48,0.00,,SKC,0.00,VWS V13.01,2013-04-03 01:51:00,
2013-04-02 21:52:00,31.9,14.0,29.84,West,263,3.0,11.0,47,0.00,,SKC,0.00,VWS V13.01,2013-04-03 01:52:00,
2013-04-02 21:53:00,31.9,14.0,29.84,North,5,5.0,11.0,47,0.00,,SKC,0.00,VWS V13.01,2013-04-03 01:53:00,
2013-04-02 21:54:00,31.9,14.0,29.84,WNW,299,7.0,11.0,47,0.00,,SKC,0.00,VWS V13.01,2013-04-03 01:54:00,
2013-04-02 21:56:00,31.8,13.4,29.84,NW,319,3.0,11.0,46,0.00,,SKC,0.00,VWS V13.01,2013-04-03 01:56:00,
2013-04-02 21:57:00,31.8,13.4,29.84,WNW,291,5.0,11.0,46,0.00,,SKC,0.00,VWS V13.01,2013-04-03 01:57:00,
2013-04-02 21:58:00,31.9,14.0,29.84,NNW,327,4.0,11.0,47,0.00,,SKC,0.00,VWS V13.01,2013-04-03 01:58:00,
2013-04-02 21:59:00,31.8,13.9,29.84,NW,312,6.0,11.0,47,0.00,,SKC,0.00,VWS V13.01,2013-04-03 01:59:00,
2013-04-02 22:00:00,31.8,13.9,29.84,NW,317,1.0,11.0,47,0.00,,SKC,0.00,VWS V13.01,2013-04-03 02:00:00,
2013-04-02 22:01:00,31.8,14.4,29.84,NNE,20,3.0,4.0,48,0.00,,SKC,0.00,VWS V13.01,2013-04-03 02:01:00,
2013-04-02 22:02:00,31.7,14.3,29.84,WNW,284,3.0,5.0,48,0.00,,SKC,0.00,VWS V13.01,2013-04-03 02:02:00,
2013-04-02 22:03:00,31.7,14.3,29.84,NNW,341,1.0,5.0,48,0.00,,SKC,0.00,VWS V13.01,2013-04-03 02:03:00,
2013-04-02 22:04:00,31.7,14.3,29.84,East,99,1.0,5.0,48,0.00,,SKC,0.00,VWS V13.01,2013-04-03 02:04:00,
2013-04-02 22:06:00,31.7,14.3,29.84,West,281,2.0,7.0,48,0.00,,SKC,0.00,VWS V13.01,2013-04-03 02:06:00,
2013-04-02 22:07:00,31.7,14.7,29.84,West,275,3.0,7.0,49,0.00,,SKC,0.00,VWS V13.01,2013-04-03 02:07:00,
2013-04-02 22:08:00,31.7,14.7,29.84,NW,323,13.0,13.0,49,0.00,,SKC,0.00,VWS V13.01,2013-04-03 02:08:00,
2013-04-02 22:09:00,31.7,14.3,29.84,WNW,292,2.0,13.0,48,0.00,,SKC,0.00,VWS V13.01,2013-04-03 02:09:00,
2013-04-02 22:10:00,31.7,14.7,29.84,NNE,26,2.0,13.0,49,0.00,,SKC,0.00,VWS V13.01,2013-04-03 02:10:00,
2013-04-02 22:11:00,31.7,14.7,29.84,WSW,250,1.0,13.0,49,0.00,,SKC,0.00,VWS V13.01,2013-04-03 02:11:00,
2013-04-02 22:12:00,31.7,14.7,29.84,NNW,328,5.0,13.0,49,0.00,,SKC,0.00,VWS V13.01,2013-04-03 02:12:00,
2013-04-02 22:13:00,31.7,14.7,29.84,WNW,284,4.0,13.0,49,0.00,,SKC,0.00,VWS V13.01,2013-04-03 02:13:00,
2013-04-02 22:14:00,31.6,14.6,29.84,NNE,24,3.0,13.0,49,0.00,,SKC,0.00,VWS V13.01,2013-04-03 02:14:00,
2013-04-02 22:16:00,31.6,14.6,29.84,West,277,2.0,13.0,49,0.00,,SKC,0.00,VWS V13.01,2013-04-03 02:16:00,
2013-04-02 22:17:00,31.6,14.6,29.84,West,280,0.0,13.0,49,0.00,,SKC,0.00,VWS V13.01,2013-04-03 02:17:00,
2013-04-02 22:18:00,31.6,15.1,29.84,NNW,332,5.0,13.0,50,0.00,,SKC,0.00,VWS V13.01,2013-04-03 02:18:00,
2013-04-02 22:19:00,31.6,14.6,29.84,SE,133,1.0,13.0,49,0.00,,SKC,0.00,VWS V13.01,2013-04-03 02:19:00,
2013-04-02 22:21:00,31.5,14.6,29.84,West,267,9.0,13.0,49,0.00,,SKC,0.00,VWS V13.01,2013-04-03 02:21:00,
2013-04-02 22:22:00,31.5,14.6,29.84,SW,224,0.0,13.0,49,0.00,,SKC,0.00,VWS V13.01,2013-04-03 02:22:00,
2013-04-02 22:23:00,31.5,14.6,29.84,ENE,64,3.0,13.0,49,0.00,,SKC,0.00,VWS V13.01,2013-04-03 02:23:00,
2013-04-02 22:24:00,31.5,14.1,29.84,WNW,300,4.0,13.0,48,0.00,,SKC,0.00,VWS V13.01,2013-04-03 02:24:00,
2013-04-02 22:25:00,31.5,14.6,29.84,NNW,342,2.0,13.0,49,0.00,,SKC,0.00,VWS V13.01,2013-04-03 02:25:00,
2013-04-02 22:26:00,31.5,14.1,29.84,NNW,344,2.0,13.0,48,0.00,,SKC,0.00,VWS V13.01,2013-04-03 02:26:00,
2013-04-02 22:27:00,31.5,14.1,29.84,NNE,24,1.0,13.0,48,0.00,,SKC,0.00,VWS V13.01,2013-04-03 02:27:00,
2013-04-02 22:28:00,31.5,14.6,29.84,NNE,23,0.0,13.0,49,0.00,,SKC,0.00,VWS V13.01,2013-04-03 02:28:00,
2013-04-02 22:29:00,31.5,14.6,29.84,West,281,3.0,13.0,49,0.00,,SKC,0.00,VWS V13.01,2013-04-03 02:29:00,
2013-04-02 22:30:00,31.5,14.6,29.84,NW,324,3.0,13.0,49,0.00,,SKC,0.00,VWS V13.01,2013-04-03 02:30:00,
2013-04-02 22:31:00,31.5,14.6,29.84,NNE,13,2.0,7.0,49,0.00,,SKC,0.00,VWS V13.01,2013-04-03 02:31:00,
2013-04-02 22:32:00,31.5,15.0,29.84,WNW,299,2.0,7.0,50,0.00,,SKC,0.00,VWS V13.01,2013-04-03 02:32:00,
2013-04-02 22:33:00,31.5,15.0,29.84,SW,228,0.0,7.0,50,0.00,,SKC,0.00,VWS V13.01,2013-04-03 02:33:00,
2013-04-02 22:34:00,31.5,15.5,29.83,WSW,256,4.0,7.0,51,0.00,,SKC,0.00,VWS V13.01,2013-04-03 02:34:00,
2013-04-02 22:35:00,31.5,15.5,29.83,WSW,250,0.0,7.0,51,0.00,,SKC,0.00,VWS V13.01,2013-04-03 02:35:00,
2013-04-02 22:36:00,31.5,15.0,29.83,WSW,240,2.0,7.0,50,0.00,,SKC,0.00,VWS V13.01,2013-04-03 02:36:00,
2013-04-02 22:37:00,31.5,14.6,29.83,WSW,248,10.0,13.0,49,0.00,,SKC,0.00,VWS V13.01,2013-04-03 02:37:00,
2013-04-02 22:38:00,31.5,14.6,29.83,WSW,252,1.0,13.0,49,0.00,,SKC,0.00,VWS V13.01,2013-04-03 02:38:00,
2013-04-02 22:39:00,31.5,14.6,29.83,NW,315,8.0,13.0,49,0.00,,SKC,0.00,VWS V13.01,2013-04-03 02:39:00,
2013-04-02 22:40:00,31.5,14.6,29.83,WNW,282,5.0,13.0,49,0.00,,SKC,0.00,VWS V13.01,2013-04-03 02:40:00,
2013-04-02 22:41:00,31.6,14.2,29.83,NW,306,5.0,13.0,48,0.00,,SKC,0.00,VWS V13.01,2013-04-03 02:41:00,
2013-04-02 22:42:00,31.6,14.2,29.83,SE,136,4.0,13.0,48,0.00,,SKC,0.00,VWS V13.01,2013-04-03 02:42:00,
2013-04-02 22:43:00,31.6,14.6,29.83,SSE,159,8.0,13.0,49,0.00,,SKC,0.00,VWS V13.01,2013-04-03 02:43:00,
2013-04-02 22:44:00,31.6,14.2,29.83,NW,306,5.0,13.0,48,0.00,,SKC,0.00,VWS V13.01,2013-04-03 02:44:00,
2013-04-02 22:45:00,31.7,14.3,29.83,ENE,72,5.0,13.0,48,0.00,,SKC,0.00,VWS V13.01,2013-04-03 02:45:00,
2013-04-02 22:46:00,31.7,14.7,29.83,NW,321,4.0,13.0,49,0.00,,SKC,0.00,VWS V13.01,2013-04-03 02:46:00,
2013-04-02 22:47:00,31.7,14.7,29.83,WNW,283,0.0,13.0,49,0.00,,SKC,0.00,VWS V13.01,2013-04-03 02:47:00,
2013-04-02 22:48:00,31.7,15.2,29.83,WSW,258,9.0,13.0,50,0.00,,SKC,0.00,VWS V13.01,2013-04-03 02:48:00,
2013-04-02 22:49:00,31.7,14.7,29.83,West,267,3.0,13.0,49,0.00,,SKC,0.00,VWS V13.01,2013-04-03 02:49:00,
2013-04-02 22:50:00,31.7,14.7,29.83,NNE,18,6.0,13.0,49,0.00,,SKC,0.00,VWS V13.01,2013-04-03 02:50:00,
2013-04-02 22:51:00,31.7,15.2,29.83,West,273,5.0,13.0,50,0.00,,SKC,0.00,VWS V13.01,2013-04-03 02:51:00,
2013-04-02 22:52:00,31.6,15.1,29.83,WNW,286,2.0,13.0,50,0.00,,SKC,0.00,VWS V13.01,2013-04-03 02:52:00,
2013-04-02 22:53:00,31.6,15.1,29.83,West,259,5.0,13.0,50,0.00,,SKC,0.00,VWS V13.01,2013-04-03 02:53:00,
2013-04-02 22:54:00,31.6,15.1,29.83,West,266,10.0,16.0,50,0.00,,SKC,0.00,VWS V13.01,2013-04-03 02:54:00,
2013-04-02 22:56:00,31.7,15.2,29.83,SSW,193,9.0,16.0,50,0.00,,SKC,0.00,VWS V13.01,2013-04-03 02:56:00,
2013-04-02 22:57:00,31.6,15.1,29.83,WNW,282,4.0,16.0,50,0.00,,SKC,0.00,VWS V13.01,2013-04-03 02:57:00,
2013-04-02 22:58:00,31.6,15.1,29.83,WNW,283,6.0,16.0,50,0.00,,SKC,0.00,VWS V13.01,2013-04-03 02:58:00,
2013-04-02 22:59:00,31.6,15.1,29.83,West,261,4.0,16.0,50,0.00,,SKC,0.00,VWS V13.01,2013-04-03 02:59:00,
2013-04-02 23:00:00,31.7,16.1,29.83,WNW,282,4.0,16.0,52,0.00,,SKC,0.00,VWS V13.01,2013-04-03 03:00:00,
2013-04-02 23:01:00,31.6,16.0,29.83,WNW,297,6.0,9.0,52,0.00,,SKC,0.00,VWS V13.01,2013-04-03 03:01:00,
2013-04-02 23:02:00,31.7,15.7,29.83,WNW,298,4.0,11.0,51,0.00,,SKC,0.00,VWS V13.01,2013-04-03 03:02:00,
2013-04-02 23:03:00,31.6,15.6,29.83,West,271,5.0,11.0,51,0.00,,SKC,0.00,VWS V13.01,2013-04-03 03:03:00,
2013-04-02 23:04:00,31.6,15.6,29.83,West,261,3.0,11.0,51,0.00,,SKC,0.00,VWS V13.01,2013-04-03 03:04:00,
2013-04-02 23:06:00,31.6,15.6,29.83,NW,317,3.0,11.0,51,0.00,,SKC,0.00,VWS V13.01,2013-04-03 03:06:00,
2013-04-02 23:07:00,31.6,16.0,29.83,SW,229,2.0,11.0,52,0.00,,SKC,0.00,VWS V13.01,2013-04-03 03:07:00,
2013-04-02 23:08:00,31.6,16.0,29.83,WSW,242,2.0,11.0,52,0.00,,SKC,0.00,VWS V13.01,2013-04-03 03:08:00,
2013-04-02 23:09:00,31.6,16.0,29.83,SW,225,3.0,11.0,52,0.00,,SKC,0.00,VWS V13.01,2013-04-03 03:09:00,
2013-04-02 23:11:00,31.5,15.0,29.83,NW,314,5.0,11.0,50,0.00,,SKC,0.00,VWS V13.01,2013-04-03 03:11:00,
2013-04-02 23:12:00,31.5,15.5,29.83,NW,319,2.0,11.0,51,0.00,,SKC,0.00,VWS V13.01,2013-04-03 03:12:00,
2013-04-02 23:13:00,31.5,15.9,29.83,West,275,6.0,11.0,52,0.00,,SKC,0.00,VWS V13.01,2013-04-03 03:13:00,
2013-04-02 23:14:00,31.5,15.9,29.83,SW,234,1.0,14.0,52,0.00,,SKC,0.00,VWS V13.01,2013-04-03 03:14:00,
2013-04-02 23:15:00,31.5,16.4,29.83,NNW,336,1.0,14.0,53,0.00,,SKC,0.00,VWS V13.01,2013-04-03 03:15:00,
2013-04-02 23:16:00,31.5,16.4,29.83,NW,317,5.0,14.0,53,0.00,,SKC,0.00,VWS V13.01,2013-04-03 03:16:00,
2013-04-02 23:17:00,31.5,16.4,29.83,West,280,5.0,14.0,53,0.00,,SKC,0.00,VWS V13.01,2013-04-03 03:17:00,
2013-04-02 23:18:00,31.5,16.4,29.83,WNW,300,5.0,14.0,53,0.00,,SKC,0.00,VWS V13.01,2013-04-03 03:18:00,
2013-04-02 23:19:00,31.5,15.9,29.83,West,280,5.0,14.0,52,0.00,,SKC,0.00,VWS V13.01,2013-04-03 03:19:00,
2013-04-02 23:20:00,31.5,15.9,29.83,WNW,296,7.0,14.0,52,0.00,,SKC,0.00,VWS V13.01,2013-04-03 03:20:00,
2013-04-02 23:21:00,31.5,15.9,29.83,SW,219,6.0,14.0,52,0.00,,SKC,0.00,VWS V13.01,2013-04-03 03:21:00,
2013-04-02 23:22:00,31.5,15.9,29.83,ENE,78,4.0,14.0,52,0.00,,SKC,0.00,VWS V13.01,2013-04-03 03:22:00,
2013-04-02 23:23:00,31.5,15.9,29.83,West,279,5.0,14.0,52,0.00,,SKC,0.00,VWS V13.01,2013-04-03 03:23:00,
2013-04-02 23:24:00,31.5,15.9,29.83,NW,315,4.0,14.0,52,0.00,,SKC,0.00,VWS V13.01,2013-04-03 03:24:00,
2013-04-02 23:25:00,31.5,16.4,29.83,SSW,199,3.0,14.0,53,0.00,,SKC,0.00,VWS V13.01,2013-04-03 03:25:00,
2013-04-02 23:26:00,31.5,16.4,29.83,West,261,4.0,14.0,53,0.00,,SKC,0.00,VWS V13.01,2013-04-03 03:26:00,
2013-04-02 23:27:00,31.4,16.3,29.83,ENE,66,5.0,14.0,53,0.00,,SKC,0.00,VWS V13.01,2013-04-03 03:27:00,
2013-04-02 23:28:00,31.4,15.8,29.83,NNW,337,1.0,14.0,52,0.00,,SKC,0.00,VWS V13.01,2013-04-03 03:28:00,
2013-04-02 23:29:00,31.4,15.8,29.83,WSW,239,6.0,14.0,52,0.00,,SKC,0.00,VWS V13.01,2013-04-03 03:29:00,
2013-04-02 23:31:00,31.4,16.3,29.83,WSW,250,5.0,9.0,53,0.00,,SKC,0.00,VWS V13.01,2013-04-03 03:31:00,
2013-04-02 23:32:00,31.4,16.3,29.83,WSW,240,2.0,9.0,53,0.00,,SKC,0.00,VWS V13.01,2013-04-03 03:32:00,
2013-04-02 23:33:00,31.4,15.8,29.82,NNW,331,3.0,9.0,52,0.00,,SKC,0.00,VWS V13.01,2013-04-03 03:33:00,
2013-04-02 23:34:00,31.4,16.3,29.82,NW,311,4.0,13.0,53,0.00,,SKC,0.00,VWS V13.01,2013-04-03 03:34:00,
2013-04-02 23:35:00,31.4,15.8,29.82,NW,321,5.0,13.0,52,0.00,,SKC,0.00,VWS V13.01,2013-04-03 03:35:00,
2013-04-02 23:36:00,31.5,16.4,29.82,NW,321,10.0,13.0,53,0.00,,SKC,0.00,VWS V13.01,2013-04-03 03:36:00,
2013-04-02 23:37:00,31.5,15.9,29.82,WNW,288,7.0,13.0,52,0.00,,SKC,0.00,VWS V13.01,2013-04-03 03:37:00,
2013-04-02 23:38:00,31.5,16.4,29.82,NNE,22,5.0,13.0,53,0.00,,SKC,0.00,VWS V13.01,2013-04-03 03:38:00,
2013-04-02 23:39:00,31.5,16.4,29.82,NW,325,1.0,13.0,53,0.00,,SKC,0.00,VWS V13.01,2013-04-03 03:39:00,
2013-04-02 23:40:00,31.5,16.4,29.82,West,276,5.0,13.0,53,0.00,,SKC,0.00,VWS V13.01,2013-04-03 03:40:00,
2013-04-02 23:41:00,31.5,16.4,29.82,NW,311,6.0,13.0,53,0.00,,SKC,0.00,VWS V13.01,2013-04-03 03:41:00,
2013-04-02 23:42:00,31.5,16.4,29.82,West,279,1.0,13.0,53,0.00,,SKC,0.00,VWS V13.01,2013-04-03 03:42:00,
2013-04-02 23:43:00,31.5,16.8,29.82,WNW,303,2.0,13.0,54,0.00,,SKC,0.00,VWS V13.01,2013-04-03 03:43:00,
2013-04-02 23:44:00,31.5,16.8,29.82,North,10,4.0,13.0,54,0.00,,SKC,0.00,VWS V13.01,2013-04-03 03:44:00,
2013-04-02 23:46:00,31.4,16.7,29.82,WNW,290,7.0,13.0,54,0.00,,SKC,0.00,VWS V13.01,2013-04-03 03:46:00,
2013-04-02 23:47:00,31.4,17.1,29.82,NNE,13,8.0,13.0,55,0.00,,SKC,0.00,VWS V13.01,2013-04-03 03:47:00,
2013-04-02 23:48:00,31.4,16.3,29.82,WNW,288,4.0,13.0,53,0.00,,SKC,0.00,VWS V13.01,2013-04-03 03:48:00,
2013-04-02 23:49:00,31.4,16.3,29.82,North,360,6.0,13.0,53,0.00,,SKC,0.00,VWS V13.01,2013-04-03 03:49:00,
2013-04-02 23:51:00,31.4,16.7,29.82,WSW,238,5.0,13.0,54,0.00,,SKC,0.00,VWS V13.01,2013-04-03 03:51:00,
2013-04-02 23:52:00,31.4,16.7,29.82,West,267,3.0,13.0,54,0.00,,SKC,0.00,VWS V13.01,2013-04-03 03:52:00,
2013-04-02 23:53:00,31.4,16.7,29.82,North,10,5.0,13.0,54,0.00,,SKC,0.00,VWS V13.01,2013-04-03 03:53:00,
2013-04-02 23:54:00,31.4,16.7,29.82,NW,304,3.0,13.0,54,0.00,,SKC,0.00,VWS V13.01,2013-04-03 03:54:00,
2013-04-02 23:55:00,31.4,16.7,29.82,NW,312,4.0,13.0,54,0.00,,SKC,0.00,VWS V13.01,2013-04-03 03:55:00,
2013-04-02 23:56:00,31.4,16.7,29.82,SSW,193,6.0,13.0,54,0.00,,SKC,0.00,VWS V13.01,2013-04-03 03:56:00,
2013-04-02 23:57:00,31.4,16.7,29.82,WSW,258,3.0,13.0,54,0.00,,SKC,0.00,VWS V13.01,2013-04-03 03:57:00,
2013-04-02 23:58:00,31.5,16.8,29.82,WSW,247,0.0,13.0,54,0.00,,SKC,0.00,VWS V13.01,2013-04-03 03:58:00,
2013-04-02 23:59:00,31.4,16.7,29.82,WSW,242,5.0,13.0,54,0.00,,SKC,0.00,VWS V13.01,2013-04-03 03:59:00,